<?xml version="1.0" encoding="UTF-8" standalone="no" ?>
<gpx xmlns="http://www.topografix.com/GPX/1/1" xmlns:xsi="http://www.w3.org/2001/XMLSchema-instance" xsi:schemaLocation="http://www.topografix.com/GPX/1/1 http://www.topografix.com/GPX/1/1/gpx.xsd" version="1.1" creator="VisuGPX - https://www.visugpx.com">
  <metadata>
    <name>Montréal 63 k d2000</name>
    <desc><![CDATA[Montréal 63 k d2000 tracé non réalisé en entier]]></desc>
  </metadata>
  <wpt lat="44.52849" lon="4.29223">
    <ele>287</ele>
    <name><![CDATA[Départ]]></name>
  </wpt>
  <trk>
    <name><![CDATA[20180808173131-Px46E]]></name>
    <trkseg>
      <trkpt lat="44.55114" lon="4.24468">
        <ele>353</ele>
        <time>2018-06-03T07:38:46.000Z</time>
      </trkpt>
      <trkpt lat="44.55115" lon="4.24468">
        <ele>353</ele>
        <time>2018-06-03T07:38:47.000Z</time>
      </trkpt>
      <trkpt lat="44.55115" lon="4.24467">
        <ele>353</ele>
        <time>2018-06-03T07:38:48.000Z</time>
      </trkpt>
      <trkpt lat="44.55115" lon="4.24466">
        <ele>353</ele>
        <time>2018-06-03T07:38:49.000Z</time>
      </trkpt>
      <trkpt lat="44.55116" lon="4.24466">
        <ele>353</ele>
        <time>2018-06-03T07:38:50.000Z</time>
      </trkpt>
      <trkpt lat="44.55116" lon="4.24465">
        <ele>353</ele>
        <time>2018-06-03T07:38:51.000Z</time>
      </trkpt>
      <trkpt lat="44.55116" lon="4.24464">
        <ele>353</ele>
        <time>2018-06-03T07:38:52.000Z</time>
      </trkpt>
      <trkpt lat="44.55117" lon="4.24464">
        <ele>353</ele>
        <time>2018-06-03T07:38:53.000Z</time>
      </trkpt>
      <trkpt lat="44.55117" lon="4.24463">
        <ele>353</ele>
        <time>2018-06-03T07:38:54.000Z</time>
      </trkpt>
      <trkpt lat="44.55118" lon="4.24462">
        <ele>354</ele>
        <time>2018-06-03T07:38:55.000Z</time>
      </trkpt>
      <trkpt lat="44.55118" lon="4.24462">
        <ele>354</ele>
        <time>2018-06-03T07:38:56.000Z</time>
      </trkpt>
      <trkpt lat="44.55119" lon="4.24461">
        <ele>354</ele>
        <time>2018-06-03T07:38:57.000Z</time>
      </trkpt>
      <trkpt lat="44.55119" lon="4.24461">
        <ele>354</ele>
        <time>2018-06-03T07:38:58.000Z</time>
      </trkpt>
      <trkpt lat="44.55119" lon="4.2446">
        <ele>354</ele>
        <time>2018-06-03T07:38:59.000Z</time>
      </trkpt>
      <trkpt lat="44.55119" lon="4.2446">
        <ele>354</ele>
        <time>2018-06-03T07:39:00.000Z</time>
      </trkpt>
      <trkpt lat="44.55119" lon="4.2446">
        <ele>354</ele>
        <time>2018-06-03T07:39:01.000Z</time>
      </trkpt>
      <trkpt lat="44.55119" lon="4.2446">
        <ele>354</ele>
        <time>2018-06-03T07:39:02.000Z</time>
      </trkpt>
      <trkpt lat="44.55119" lon="4.2446">
        <ele>354</ele>
        <time>2018-06-03T07:39:03.000Z</time>
      </trkpt>
      <trkpt lat="44.55119" lon="4.2446">
        <ele>354</ele>
        <time>2018-06-03T07:39:04.000Z</time>
      </trkpt>
      <trkpt lat="44.55119" lon="4.24459">
        <ele>354</ele>
        <time>2018-06-03T07:39:05.000Z</time>
      </trkpt>
      <trkpt lat="44.55119" lon="4.24459">
        <ele>354</ele>
        <time>2018-06-03T07:39:06.000Z</time>
      </trkpt>
      <trkpt lat="44.55119" lon="4.24459">
        <ele>354</ele>
        <time>2018-06-03T07:39:07.000Z</time>
      </trkpt>
      <trkpt lat="44.5512" lon="4.24459">
        <ele>354</ele>
        <time>2018-06-03T07:39:08.000Z</time>
      </trkpt>
      <trkpt lat="44.5512" lon="4.24458">
        <ele>354</ele>
        <time>2018-06-03T07:39:09.000Z</time>
      </trkpt>
      <trkpt lat="44.5512" lon="4.24458">
        <ele>354</ele>
        <time>2018-06-03T07:39:10.000Z</time>
      </trkpt>
      <trkpt lat="44.5512" lon="4.24458">
        <ele>354</ele>
        <time>2018-06-03T07:39:11.000Z</time>
      </trkpt>
      <trkpt lat="44.5512" lon="4.24458">
        <ele>354</ele>
        <time>2018-06-03T07:39:12.000Z</time>
      </trkpt>
      <trkpt lat="44.5512" lon="4.24458">
        <ele>354</ele>
        <time>2018-06-03T07:39:13.000Z</time>
      </trkpt>
      <trkpt lat="44.5512" lon="4.24458">
        <ele>354</ele>
        <time>2018-06-03T07:39:14.000Z</time>
      </trkpt>
      <trkpt lat="44.5512" lon="4.24458">
        <ele>354</ele>
        <time>2018-06-03T07:39:15.000Z</time>
      </trkpt>
      <trkpt lat="44.5512" lon="4.24458">
        <ele>354</ele>
        <time>2018-06-03T07:39:16.000Z</time>
      </trkpt>
      <trkpt lat="44.5512" lon="4.24458">
        <ele>354</ele>
        <time>2018-06-03T07:39:17.000Z</time>
      </trkpt>
      <trkpt lat="44.5512" lon="4.24458">
        <ele>354</ele>
        <time>2018-06-03T07:39:18.000Z</time>
      </trkpt>
      <trkpt lat="44.5512" lon="4.24458">
        <ele>354</ele>
        <time>2018-06-03T07:39:19.000Z</time>
      </trkpt>
      <trkpt lat="44.5512" lon="4.24458">
        <ele>354</ele>
        <time>2018-06-03T07:39:20.000Z</time>
      </trkpt>
      <trkpt lat="44.55121" lon="4.24458">
        <ele>354</ele>
        <time>2018-06-03T07:39:21.000Z</time>
      </trkpt>
      <trkpt lat="44.55121" lon="4.24456">
        <ele>354</ele>
        <time>2018-06-03T07:39:22.000Z</time>
      </trkpt>
      <trkpt lat="44.55121" lon="4.24454">
        <ele>354</ele>
        <time>2018-06-03T07:39:23.000Z</time>
      </trkpt>
      <trkpt lat="44.55122" lon="4.24452">
        <ele>354</ele>
        <time>2018-06-03T07:39:24.000Z</time>
      </trkpt>
      <trkpt lat="44.55123" lon="4.24449">
        <ele>354</ele>
        <time>2018-06-03T07:39:25.000Z</time>
      </trkpt>
      <trkpt lat="44.55125" lon="4.24447">
        <ele>354</ele>
        <time>2018-06-03T07:39:26.000Z</time>
      </trkpt>
      <trkpt lat="44.55126" lon="4.24445">
        <ele>354</ele>
        <time>2018-06-03T07:39:27.000Z</time>
      </trkpt>
      <trkpt lat="44.55128" lon="4.24444">
        <ele>354</ele>
        <time>2018-06-03T07:39:28.000Z</time>
      </trkpt>
      <trkpt lat="44.5513" lon="4.24445">
        <ele>355</ele>
        <time>2018-06-03T07:39:29.000Z</time>
      </trkpt>
      <trkpt lat="44.55131" lon="4.24445">
        <ele>355</ele>
        <time>2018-06-03T07:39:30.000Z</time>
      </trkpt>
      <trkpt lat="44.55131" lon="4.24444">
        <ele>355</ele>
        <time>2018-06-03T07:39:31.000Z</time>
      </trkpt>
      <trkpt lat="44.55132" lon="4.24444">
        <ele>355</ele>
        <time>2018-06-03T07:39:32.000Z</time>
      </trkpt>
      <trkpt lat="44.55133" lon="4.24442">
        <ele>355</ele>
        <time>2018-06-03T07:39:33.000Z</time>
      </trkpt>
      <trkpt lat="44.55133" lon="4.24441">
        <ele>355</ele>
        <time>2018-06-03T07:39:34.000Z</time>
      </trkpt>
      <trkpt lat="44.55135" lon="4.2444">
        <ele>355</ele>
        <time>2018-06-03T07:39:35.000Z</time>
      </trkpt>
      <trkpt lat="44.55137" lon="4.24441">
        <ele>355</ele>
        <time>2018-06-03T07:39:36.000Z</time>
      </trkpt>
      <trkpt lat="44.55139" lon="4.2444">
        <ele>355</ele>
        <time>2018-06-03T07:39:37.000Z</time>
      </trkpt>
      <trkpt lat="44.55142" lon="4.2444">
        <ele>355</ele>
        <time>2018-06-03T07:39:38.000Z</time>
      </trkpt>
      <trkpt lat="44.55144" lon="4.24439">
        <ele>356</ele>
        <time>2018-06-03T07:39:39.000Z</time>
      </trkpt>
      <trkpt lat="44.55145" lon="4.24439">
        <ele>356</ele>
        <time>2018-06-03T07:39:40.000Z</time>
      </trkpt>
      <trkpt lat="44.55147" lon="4.24438">
        <ele>356</ele>
        <time>2018-06-03T07:39:41.000Z</time>
      </trkpt>
      <trkpt lat="44.55149" lon="4.24438">
        <ele>356</ele>
        <time>2018-06-03T07:39:42.000Z</time>
      </trkpt>
      <trkpt lat="44.5515" lon="4.24437">
        <ele>356</ele>
        <time>2018-06-03T07:39:43.000Z</time>
      </trkpt>
      <trkpt lat="44.55152" lon="4.24436">
        <ele>356</ele>
        <time>2018-06-03T07:39:44.000Z</time>
      </trkpt>
      <trkpt lat="44.55155" lon="4.24436">
        <ele>356</ele>
        <time>2018-06-03T07:39:45.000Z</time>
      </trkpt>
      <trkpt lat="44.55157" lon="4.24435">
        <ele>356</ele>
        <time>2018-06-03T07:39:46.000Z</time>
      </trkpt>
      <trkpt lat="44.5516" lon="4.24434">
        <ele>357</ele>
        <time>2018-06-03T07:39:47.000Z</time>
      </trkpt>
      <trkpt lat="44.55162" lon="4.24433">
        <ele>357</ele>
        <time>2018-06-03T07:39:48.000Z</time>
      </trkpt>
      <trkpt lat="44.55164" lon="4.24432">
        <ele>357</ele>
        <time>2018-06-03T07:39:49.000Z</time>
      </trkpt>
      <trkpt lat="44.55165" lon="4.24431">
        <ele>357</ele>
        <time>2018-06-03T07:39:50.000Z</time>
      </trkpt>
      <trkpt lat="44.55167" lon="4.24431">
        <ele>365</ele>
        <time>2018-06-03T07:39:51.000Z</time>
      </trkpt>
      <trkpt lat="44.5517" lon="4.24432">
        <ele>366</ele>
        <time>2018-06-03T07:39:52.000Z</time>
      </trkpt>
      <trkpt lat="44.55172" lon="4.24433">
        <ele>366</ele>
        <time>2018-06-03T07:39:53.000Z</time>
      </trkpt>
      <trkpt lat="44.55173" lon="4.24434">
        <ele>367</ele>
        <time>2018-06-03T07:39:54.000Z</time>
      </trkpt>
      <trkpt lat="44.55173" lon="4.24434">
        <ele>367</ele>
        <time>2018-06-03T07:39:55.000Z</time>
      </trkpt>
      <trkpt lat="44.55174" lon="4.24434">
        <ele>367</ele>
        <time>2018-06-03T07:39:56.000Z</time>
      </trkpt>
      <trkpt lat="44.55174" lon="4.24434">
        <ele>367</ele>
        <time>2018-06-03T07:39:57.000Z</time>
      </trkpt>
      <trkpt lat="44.55174" lon="4.24434">
        <ele>367</ele>
        <time>2018-06-03T07:39:58.000Z</time>
      </trkpt>
      <trkpt lat="44.55174" lon="4.24433">
        <ele>367</ele>
        <time>2018-06-03T07:39:59.000Z</time>
      </trkpt>
      <trkpt lat="44.55175" lon="4.24433">
        <ele>367</ele>
        <time>2018-06-03T07:40:00.000Z</time>
      </trkpt>
      <trkpt lat="44.55176" lon="4.24433">
        <ele>367</ele>
        <time>2018-06-03T07:40:01.000Z</time>
      </trkpt>
      <trkpt lat="44.55177" lon="4.24432">
        <ele>367</ele>
        <time>2018-06-03T07:40:02.000Z</time>
      </trkpt>
      <trkpt lat="44.55178" lon="4.24431">
        <ele>367</ele>
        <time>2018-06-03T07:40:03.000Z</time>
      </trkpt>
      <trkpt lat="44.55179" lon="4.24431">
        <ele>367</ele>
        <time>2018-06-03T07:40:04.000Z</time>
      </trkpt>
      <trkpt lat="44.5518" lon="4.2443">
        <ele>367</ele>
        <time>2018-06-03T07:40:05.000Z</time>
      </trkpt>
      <trkpt lat="44.55181" lon="4.2443">
        <ele>367</ele>
        <time>2018-06-03T07:40:06.000Z</time>
      </trkpt>
      <trkpt lat="44.55181" lon="4.24429">
        <ele>367</ele>
        <time>2018-06-03T07:40:07.000Z</time>
      </trkpt>
      <trkpt lat="44.55181" lon="4.24429">
        <ele>367</ele>
        <time>2018-06-03T07:40:08.000Z</time>
      </trkpt>
      <trkpt lat="44.55181" lon="4.24429">
        <ele>367</ele>
        <time>2018-06-03T07:40:09.000Z</time>
      </trkpt>
      <trkpt lat="44.55181" lon="4.24429">
        <ele>367</ele>
        <time>2018-06-03T07:40:10.000Z</time>
      </trkpt>
      <trkpt lat="44.55181" lon="4.24429">
        <ele>367</ele>
        <time>2018-06-03T07:40:11.000Z</time>
      </trkpt>
      <trkpt lat="44.55181" lon="4.24429">
        <ele>367</ele>
        <time>2018-06-03T07:40:12.000Z</time>
      </trkpt>
      <trkpt lat="44.55181" lon="4.24429">
        <ele>367</ele>
        <time>2018-06-03T07:40:13.000Z</time>
      </trkpt>
      <trkpt lat="44.55181" lon="4.24429">
        <ele>367</ele>
        <time>2018-06-03T07:40:14.000Z</time>
      </trkpt>
      <trkpt lat="44.55181" lon="4.24429">
        <ele>367</ele>
        <time>2018-06-03T07:40:15.000Z</time>
      </trkpt>
      <trkpt lat="44.55181" lon="4.24429">
        <ele>367</ele>
        <time>2018-06-03T07:40:16.000Z</time>
      </trkpt>
      <trkpt lat="44.55181" lon="4.24428">
        <ele>367</ele>
        <time>2018-06-03T07:40:17.000Z</time>
      </trkpt>
      <trkpt lat="44.55182" lon="4.24427">
        <ele>367</ele>
        <time>2018-06-03T07:40:18.000Z</time>
      </trkpt>
      <trkpt lat="44.55183" lon="4.24426">
        <ele>367</ele>
        <time>2018-06-03T07:40:19.000Z</time>
      </trkpt>
      <trkpt lat="44.55184" lon="4.24425">
        <ele>367</ele>
        <time>2018-06-03T07:40:20.000Z</time>
      </trkpt>
      <trkpt lat="44.55186" lon="4.24424">
        <ele>368</ele>
        <time>2018-06-03T07:40:21.000Z</time>
      </trkpt>
      <trkpt lat="44.55187" lon="4.24424">
        <ele>368</ele>
        <time>2018-06-03T07:40:22.000Z</time>
      </trkpt>
      <trkpt lat="44.55188" lon="4.24423">
        <ele>368</ele>
        <time>2018-06-03T07:40:23.000Z</time>
      </trkpt>
      <trkpt lat="44.55189" lon="4.24422">
        <ele>368</ele>
        <time>2018-06-03T07:40:24.000Z</time>
      </trkpt>
      <trkpt lat="44.5519" lon="4.24421">
        <ele>369</ele>
        <time>2018-06-03T07:40:25.000Z</time>
      </trkpt>
      <trkpt lat="44.55192" lon="4.2442">
        <ele>369</ele>
        <time>2018-06-03T07:40:26.000Z</time>
      </trkpt>
      <trkpt lat="44.55193" lon="4.24419">
        <ele>369</ele>
        <time>2018-06-03T07:40:27.000Z</time>
      </trkpt>
      <trkpt lat="44.55194" lon="4.24417">
        <ele>370</ele>
        <time>2018-06-03T07:40:28.000Z</time>
      </trkpt>
      <trkpt lat="44.55196" lon="4.24415">
        <ele>364</ele>
        <time>2018-06-03T07:40:29.000Z</time>
      </trkpt>
      <trkpt lat="44.55198" lon="4.24413">
        <ele>364</ele>
        <time>2018-06-03T07:40:30.000Z</time>
      </trkpt>
      <trkpt lat="44.55199" lon="4.24411">
        <ele>364</ele>
        <time>2018-06-03T07:40:31.000Z</time>
      </trkpt>
      <trkpt lat="44.55201" lon="4.24409">
        <ele>365</ele>
        <time>2018-06-03T07:40:32.000Z</time>
      </trkpt>
      <trkpt lat="44.55202" lon="4.24407">
        <ele>365</ele>
        <time>2018-06-03T07:40:33.000Z</time>
      </trkpt>
      <trkpt lat="44.55204" lon="4.24405">
        <ele>365</ele>
        <time>2018-06-03T07:40:34.000Z</time>
      </trkpt>
      <trkpt lat="44.55205" lon="4.24404">
        <ele>365</ele>
        <time>2018-06-03T07:40:35.000Z</time>
      </trkpt>
      <trkpt lat="44.55207" lon="4.24402">
        <ele>365</ele>
        <time>2018-06-03T07:40:36.000Z</time>
      </trkpt>
      <trkpt lat="44.55209" lon="4.244">
        <ele>366</ele>
        <time>2018-06-03T07:40:37.000Z</time>
      </trkpt>
      <trkpt lat="44.5521" lon="4.24399">
        <ele>366</ele>
        <time>2018-06-03T07:40:38.000Z</time>
      </trkpt>
      <trkpt lat="44.55211" lon="4.24397">
        <ele>366</ele>
        <time>2018-06-03T07:40:39.000Z</time>
      </trkpt>
      <trkpt lat="44.55212" lon="4.24396">
        <ele>366</ele>
        <time>2018-06-03T07:40:40.000Z</time>
      </trkpt>
      <trkpt lat="44.55214" lon="4.24394">
        <ele>366</ele>
        <time>2018-06-03T07:40:41.000Z</time>
      </trkpt>
      <trkpt lat="44.55215" lon="4.24393">
        <ele>366</ele>
        <time>2018-06-03T07:40:42.000Z</time>
      </trkpt>
      <trkpt lat="44.55217" lon="4.24391">
        <ele>366</ele>
        <time>2018-06-03T07:40:43.000Z</time>
      </trkpt>
      <trkpt lat="44.55218" lon="4.2439">
        <ele>366</ele>
        <time>2018-06-03T07:40:44.000Z</time>
      </trkpt>
      <trkpt lat="44.55219" lon="4.24389">
        <ele>366</ele>
        <time>2018-06-03T07:40:45.000Z</time>
      </trkpt>
      <trkpt lat="44.55221" lon="4.24387">
        <ele>366</ele>
        <time>2018-06-03T07:40:46.000Z</time>
      </trkpt>
      <trkpt lat="44.55222" lon="4.24385">
        <ele>366</ele>
        <time>2018-06-03T07:40:47.000Z</time>
      </trkpt>
      <trkpt lat="44.55224" lon="4.24384">
        <ele>366</ele>
        <time>2018-06-03T07:40:48.000Z</time>
      </trkpt>
      <trkpt lat="44.55225" lon="4.24382">
        <ele>366</ele>
        <time>2018-06-03T07:40:49.000Z</time>
      </trkpt>
      <trkpt lat="44.55227" lon="4.24381">
        <ele>366</ele>
        <time>2018-06-03T07:40:50.000Z</time>
      </trkpt>
      <trkpt lat="44.55228" lon="4.24379">
        <ele>366</ele>
        <time>2018-06-03T07:40:51.000Z</time>
      </trkpt>
      <trkpt lat="44.5523" lon="4.24378">
        <ele>365</ele>
        <time>2018-06-03T07:40:52.000Z</time>
      </trkpt>
      <trkpt lat="44.55231" lon="4.24376">
        <ele>365</ele>
        <time>2018-06-03T07:40:53.000Z</time>
      </trkpt>
      <trkpt lat="44.55233" lon="4.24374">
        <ele>365</ele>
        <time>2018-06-03T07:40:54.000Z</time>
      </trkpt>
      <trkpt lat="44.55234" lon="4.24372">
        <ele>365</ele>
        <time>2018-06-03T07:40:55.000Z</time>
      </trkpt>
      <trkpt lat="44.55236" lon="4.24371">
        <ele>365</ele>
        <time>2018-06-03T07:40:56.000Z</time>
      </trkpt>
      <trkpt lat="44.55237" lon="4.24369">
        <ele>364</ele>
        <time>2018-06-03T07:40:57.000Z</time>
      </trkpt>
      <trkpt lat="44.55239" lon="4.24368">
        <ele>364</ele>
        <time>2018-06-03T07:40:58.000Z</time>
      </trkpt>
      <trkpt lat="44.55241" lon="4.24367">
        <ele>364</ele>
        <time>2018-06-03T07:40:59.000Z</time>
      </trkpt>
      <trkpt lat="44.55243" lon="4.24366">
        <ele>364</ele>
        <time>2018-06-03T07:41:00.000Z</time>
      </trkpt>
      <trkpt lat="44.55245" lon="4.24365">
        <ele>364</ele>
        <time>2018-06-03T07:41:01.000Z</time>
      </trkpt>
      <trkpt lat="44.55248" lon="4.24365">
        <ele>363</ele>
        <time>2018-06-03T07:41:02.000Z</time>
      </trkpt>
      <trkpt lat="44.5525" lon="4.24365">
        <ele>369</ele>
        <time>2018-06-03T07:41:03.000Z</time>
      </trkpt>
      <trkpt lat="44.55252" lon="4.24365">
        <ele>369</ele>
        <time>2018-06-03T07:41:04.000Z</time>
      </trkpt>
      <trkpt lat="44.55254" lon="4.24365">
        <ele>369</ele>
        <time>2018-06-03T07:41:05.000Z</time>
      </trkpt>
      <trkpt lat="44.55256" lon="4.24364">
        <ele>369</ele>
        <time>2018-06-03T07:41:06.000Z</time>
      </trkpt>
      <trkpt lat="44.55258" lon="4.24364">
        <ele>369</ele>
        <time>2018-06-03T07:41:07.000Z</time>
      </trkpt>
      <trkpt lat="44.5526" lon="4.24364">
        <ele>369</ele>
        <time>2018-06-03T07:41:08.000Z</time>
      </trkpt>
      <trkpt lat="44.55263" lon="4.24363">
        <ele>369</ele>
        <time>2018-06-03T07:41:09.000Z</time>
      </trkpt>
      <trkpt lat="44.55265" lon="4.24362">
        <ele>369</ele>
        <time>2018-06-03T07:41:10.000Z</time>
      </trkpt>
      <trkpt lat="44.55267" lon="4.24361">
        <ele>369</ele>
        <time>2018-06-03T07:41:11.000Z</time>
      </trkpt>
      <trkpt lat="44.5527" lon="4.2436">
        <ele>369</ele>
        <time>2018-06-03T07:41:12.000Z</time>
      </trkpt>
      <trkpt lat="44.55272" lon="4.2436">
        <ele>369</ele>
        <time>2018-06-03T07:41:13.000Z</time>
      </trkpt>
      <trkpt lat="44.55274" lon="4.24359">
        <ele>369</ele>
        <time>2018-06-03T07:41:14.000Z</time>
      </trkpt>
      <trkpt lat="44.55276" lon="4.24359">
        <ele>369</ele>
        <time>2018-06-03T07:41:15.000Z</time>
      </trkpt>
      <trkpt lat="44.55279" lon="4.24359">
        <ele>370</ele>
        <time>2018-06-03T07:41:16.000Z</time>
      </trkpt>
      <trkpt lat="44.55282" lon="4.24359">
        <ele>370</ele>
        <time>2018-06-03T07:41:17.000Z</time>
      </trkpt>
      <trkpt lat="44.55284" lon="4.24359">
        <ele>370</ele>
        <time>2018-06-03T07:41:18.000Z</time>
      </trkpt>
      <trkpt lat="44.55287" lon="4.24358">
        <ele>370</ele>
        <time>2018-06-03T07:41:19.000Z</time>
      </trkpt>
      <trkpt lat="44.55289" lon="4.24358">
        <ele>370</ele>
        <time>2018-06-03T07:41:20.000Z</time>
      </trkpt>
      <trkpt lat="44.55292" lon="4.24358">
        <ele>371</ele>
        <time>2018-06-03T07:41:21.000Z</time>
      </trkpt>
      <trkpt lat="44.55295" lon="4.24358">
        <ele>371</ele>
        <time>2018-06-03T07:41:22.000Z</time>
      </trkpt>
      <trkpt lat="44.55298" lon="4.24358">
        <ele>371</ele>
        <time>2018-06-03T07:41:23.000Z</time>
      </trkpt>
      <trkpt lat="44.55301" lon="4.24359">
        <ele>371</ele>
        <time>2018-06-03T07:41:24.000Z</time>
      </trkpt>
      <trkpt lat="44.55304" lon="4.24359">
        <ele>371</ele>
        <time>2018-06-03T07:41:25.000Z</time>
      </trkpt>
      <trkpt lat="44.55306" lon="4.2436">
        <ele>372</ele>
        <time>2018-06-03T07:41:26.000Z</time>
      </trkpt>
      <trkpt lat="44.55309" lon="4.2436">
        <ele>372</ele>
        <time>2018-06-03T07:41:27.000Z</time>
      </trkpt>
      <trkpt lat="44.55311" lon="4.24361">
        <ele>372</ele>
        <time>2018-06-03T07:41:28.000Z</time>
      </trkpt>
      <trkpt lat="44.55314" lon="4.24362">
        <ele>372</ele>
        <time>2018-06-03T07:41:29.000Z</time>
      </trkpt>
      <trkpt lat="44.55316" lon="4.24363">
        <ele>372</ele>
        <time>2018-06-03T07:41:30.000Z</time>
      </trkpt>
      <trkpt lat="44.55319" lon="4.24363">
        <ele>372</ele>
        <time>2018-06-03T07:41:31.000Z</time>
      </trkpt>
      <trkpt lat="44.55321" lon="4.24365">
        <ele>373</ele>
        <time>2018-06-03T07:41:32.000Z</time>
      </trkpt>
      <trkpt lat="44.55324" lon="4.24366">
        <ele>373</ele>
        <time>2018-06-03T07:41:33.000Z</time>
      </trkpt>
      <trkpt lat="44.55326" lon="4.24367">
        <ele>373</ele>
        <time>2018-06-03T07:41:34.000Z</time>
      </trkpt>
      <trkpt lat="44.55328" lon="4.24368">
        <ele>374</ele>
        <time>2018-06-03T07:41:35.000Z</time>
      </trkpt>
      <trkpt lat="44.55331" lon="4.24368">
        <ele>374</ele>
        <time>2018-06-03T07:41:36.000Z</time>
      </trkpt>
      <trkpt lat="44.55333" lon="4.24369">
        <ele>374</ele>
        <time>2018-06-03T07:41:37.000Z</time>
      </trkpt>
      <trkpt lat="44.55336" lon="4.24369">
        <ele>383</ele>
        <time>2018-06-03T07:41:38.000Z</time>
      </trkpt>
      <trkpt lat="44.55338" lon="4.24368">
        <ele>383</ele>
        <time>2018-06-03T07:41:39.000Z</time>
      </trkpt>
      <trkpt lat="44.55341" lon="4.24368">
        <ele>383</ele>
        <time>2018-06-03T07:41:40.000Z</time>
      </trkpt>
      <trkpt lat="44.55344" lon="4.24367">
        <ele>383</ele>
        <time>2018-06-03T07:41:41.000Z</time>
      </trkpt>
      <trkpt lat="44.55346" lon="4.24367">
        <ele>383</ele>
        <time>2018-06-03T07:41:42.000Z</time>
      </trkpt>
      <trkpt lat="44.55349" lon="4.24367">
        <ele>383</ele>
        <time>2018-06-03T07:41:43.000Z</time>
      </trkpt>
      <trkpt lat="44.55352" lon="4.24367">
        <ele>384</ele>
        <time>2018-06-03T07:41:44.000Z</time>
      </trkpt>
      <trkpt lat="44.55354" lon="4.24367">
        <ele>384</ele>
        <time>2018-06-03T07:41:45.000Z</time>
      </trkpt>
      <trkpt lat="44.55357" lon="4.24367">
        <ele>384</ele>
        <time>2018-06-03T07:41:46.000Z</time>
      </trkpt>
      <trkpt lat="44.55359" lon="4.24367">
        <ele>385</ele>
        <time>2018-06-03T07:41:47.000Z</time>
      </trkpt>
      <trkpt lat="44.55361" lon="4.24367">
        <ele>385</ele>
        <time>2018-06-03T07:41:48.000Z</time>
      </trkpt>
      <trkpt lat="44.55364" lon="4.24366">
        <ele>385</ele>
        <time>2018-06-03T07:41:49.000Z</time>
      </trkpt>
      <trkpt lat="44.55366" lon="4.24365">
        <ele>385</ele>
        <time>2018-06-03T07:41:50.000Z</time>
      </trkpt>
      <trkpt lat="44.55368" lon="4.24364">
        <ele>385</ele>
        <time>2018-06-03T07:41:51.000Z</time>
      </trkpt>
      <trkpt lat="44.55371" lon="4.24364">
        <ele>385</ele>
        <time>2018-06-03T07:41:52.000Z</time>
      </trkpt>
      <trkpt lat="44.55373" lon="4.24363">
        <ele>386</ele>
        <time>2018-06-03T07:41:53.000Z</time>
      </trkpt>
      <trkpt lat="44.55375" lon="4.24363">
        <ele>386</ele>
        <time>2018-06-03T07:41:54.000Z</time>
      </trkpt>
      <trkpt lat="44.55377" lon="4.24362">
        <ele>386</ele>
        <time>2018-06-03T07:41:55.000Z</time>
      </trkpt>
      <trkpt lat="44.55379" lon="4.24362">
        <ele>386</ele>
        <time>2018-06-03T07:41:56.000Z</time>
      </trkpt>
      <trkpt lat="44.55381" lon="4.24362">
        <ele>386</ele>
        <time>2018-06-03T07:41:57.000Z</time>
      </trkpt>
      <trkpt lat="44.55383" lon="4.24361">
        <ele>386</ele>
        <time>2018-06-03T07:41:58.000Z</time>
      </trkpt>
      <trkpt lat="44.55384" lon="4.24361">
        <ele>386</ele>
        <time>2018-06-03T07:41:59.000Z</time>
      </trkpt>
      <trkpt lat="44.55385" lon="4.24361">
        <ele>386</ele>
        <time>2018-06-03T07:42:00.000Z</time>
      </trkpt>
      <trkpt lat="44.55387" lon="4.2436">
        <ele>386</ele>
        <time>2018-06-03T07:42:01.000Z</time>
      </trkpt>
      <trkpt lat="44.55388" lon="4.2436">
        <ele>386</ele>
        <time>2018-06-03T07:42:02.000Z</time>
      </trkpt>
      <trkpt lat="44.55389" lon="4.2436">
        <ele>387</ele>
        <time>2018-06-03T07:42:03.000Z</time>
      </trkpt>
      <trkpt lat="44.55391" lon="4.24359">
        <ele>386</ele>
        <time>2018-06-03T07:42:04.000Z</time>
      </trkpt>
      <trkpt lat="44.55392" lon="4.24358">
        <ele>386</ele>
        <time>2018-06-03T07:42:05.000Z</time>
      </trkpt>
      <trkpt lat="44.55393" lon="4.24358">
        <ele>386</ele>
        <time>2018-06-03T07:42:06.000Z</time>
      </trkpt>
      <trkpt lat="44.55394" lon="4.24357">
        <ele>386</ele>
        <time>2018-06-03T07:42:07.000Z</time>
      </trkpt>
      <trkpt lat="44.55395" lon="4.24355">
        <ele>386</ele>
        <time>2018-06-03T07:42:08.000Z</time>
      </trkpt>
      <trkpt lat="44.55397" lon="4.24354">
        <ele>386</ele>
        <time>2018-06-03T07:42:09.000Z</time>
      </trkpt>
      <trkpt lat="44.55398" lon="4.24354">
        <ele>386</ele>
        <time>2018-06-03T07:42:10.000Z</time>
      </trkpt>
      <trkpt lat="44.554" lon="4.24352">
        <ele>386</ele>
        <time>2018-06-03T07:42:11.000Z</time>
      </trkpt>
      <trkpt lat="44.554" lon="4.24351">
        <ele>385</ele>
        <time>2018-06-03T07:42:12.000Z</time>
      </trkpt>
      <trkpt lat="44.55402" lon="4.24349">
        <ele>385</ele>
        <time>2018-06-03T07:42:13.000Z</time>
      </trkpt>
      <trkpt lat="44.55403" lon="4.24348">
        <ele>385</ele>
        <time>2018-06-03T07:42:14.000Z</time>
      </trkpt>
      <trkpt lat="44.55404" lon="4.24347">
        <ele>385</ele>
        <time>2018-06-03T07:42:15.000Z</time>
      </trkpt>
      <trkpt lat="44.55406" lon="4.24347">
        <ele>385</ele>
        <time>2018-06-03T07:42:16.000Z</time>
      </trkpt>
      <trkpt lat="44.55407" lon="4.24346">
        <ele>384</ele>
        <time>2018-06-03T07:42:17.000Z</time>
      </trkpt>
      <trkpt lat="44.55408" lon="4.24345">
        <ele>384</ele>
        <time>2018-06-03T07:42:18.000Z</time>
      </trkpt>
      <trkpt lat="44.55409" lon="4.24344">
        <ele>384</ele>
        <time>2018-06-03T07:42:19.000Z</time>
      </trkpt>
      <trkpt lat="44.55411" lon="4.24343">
        <ele>384</ele>
        <time>2018-06-03T07:42:20.000Z</time>
      </trkpt>
      <trkpt lat="44.55413" lon="4.24342">
        <ele>383</ele>
        <time>2018-06-03T07:42:21.000Z</time>
      </trkpt>
      <trkpt lat="44.55415" lon="4.24342">
        <ele>383</ele>
        <time>2018-06-03T07:42:22.000Z</time>
      </trkpt>
      <trkpt lat="44.55416" lon="4.24341">
        <ele>383</ele>
        <time>2018-06-03T07:42:23.000Z</time>
      </trkpt>
      <trkpt lat="44.55418" lon="4.2434">
        <ele>388</ele>
        <time>2018-06-03T07:42:24.000Z</time>
      </trkpt>
      <trkpt lat="44.55419" lon="4.24339">
        <ele>387</ele>
        <time>2018-06-03T07:42:25.000Z</time>
      </trkpt>
      <trkpt lat="44.5542" lon="4.24338">
        <ele>387</ele>
        <time>2018-06-03T07:42:26.000Z</time>
      </trkpt>
      <trkpt lat="44.55422" lon="4.24336">
        <ele>387</ele>
        <time>2018-06-03T07:42:27.000Z</time>
      </trkpt>
      <trkpt lat="44.55423" lon="4.24334">
        <ele>387</ele>
        <time>2018-06-03T07:42:28.000Z</time>
      </trkpt>
      <trkpt lat="44.55424" lon="4.24332">
        <ele>382</ele>
        <time>2018-06-03T07:42:29.000Z</time>
      </trkpt>
      <trkpt lat="44.55425" lon="4.24331">
        <ele>383</ele>
        <time>2018-06-03T07:42:30.000Z</time>
      </trkpt>
      <trkpt lat="44.55426" lon="4.2433">
        <ele>383</ele>
        <time>2018-06-03T07:42:31.000Z</time>
      </trkpt>
      <trkpt lat="44.55427" lon="4.24328">
        <ele>383</ele>
        <time>2018-06-03T07:42:32.000Z</time>
      </trkpt>
      <trkpt lat="44.55428" lon="4.24326">
        <ele>383</ele>
        <time>2018-06-03T07:42:33.000Z</time>
      </trkpt>
      <trkpt lat="44.55429" lon="4.24325">
        <ele>383</ele>
        <time>2018-06-03T07:42:34.000Z</time>
      </trkpt>
      <trkpt lat="44.5543" lon="4.24324">
        <ele>384</ele>
        <time>2018-06-03T07:42:35.000Z</time>
      </trkpt>
      <trkpt lat="44.55431" lon="4.24323">
        <ele>384</ele>
        <time>2018-06-03T07:42:36.000Z</time>
      </trkpt>
      <trkpt lat="44.55432" lon="4.24322">
        <ele>384</ele>
        <time>2018-06-03T07:42:37.000Z</time>
      </trkpt>
      <trkpt lat="44.55434" lon="4.24321">
        <ele>384</ele>
        <time>2018-06-03T07:42:38.000Z</time>
      </trkpt>
      <trkpt lat="44.55435" lon="4.2432">
        <ele>384</ele>
        <time>2018-06-03T07:42:39.000Z</time>
      </trkpt>
      <trkpt lat="44.55436" lon="4.24319">
        <ele>384</ele>
        <time>2018-06-03T07:42:40.000Z</time>
      </trkpt>
      <trkpt lat="44.55437" lon="4.24318">
        <ele>385</ele>
        <time>2018-06-03T07:42:41.000Z</time>
      </trkpt>
      <trkpt lat="44.55438" lon="4.24317">
        <ele>385</ele>
        <time>2018-06-03T07:42:42.000Z</time>
      </trkpt>
      <trkpt lat="44.5544" lon="4.24316">
        <ele>385</ele>
        <time>2018-06-03T07:42:43.000Z</time>
      </trkpt>
      <trkpt lat="44.55441" lon="4.24315">
        <ele>385</ele>
        <time>2018-06-03T07:42:44.000Z</time>
      </trkpt>
      <trkpt lat="44.55442" lon="4.24314">
        <ele>385</ele>
        <time>2018-06-03T07:42:45.000Z</time>
      </trkpt>
      <trkpt lat="44.55443" lon="4.24313">
        <ele>385</ele>
        <time>2018-06-03T07:42:46.000Z</time>
      </trkpt>
      <trkpt lat="44.55444" lon="4.24312">
        <ele>385</ele>
        <time>2018-06-03T07:42:47.000Z</time>
      </trkpt>
      <trkpt lat="44.55445" lon="4.24311">
        <ele>385</ele>
        <time>2018-06-03T07:42:48.000Z</time>
      </trkpt>
      <trkpt lat="44.55446" lon="4.2431">
        <ele>386</ele>
        <time>2018-06-03T07:42:49.000Z</time>
      </trkpt>
      <trkpt lat="44.55448" lon="4.24309">
        <ele>386</ele>
        <time>2018-06-03T07:42:50.000Z</time>
      </trkpt>
      <trkpt lat="44.55449" lon="4.24309">
        <ele>386</ele>
        <time>2018-06-03T07:42:51.000Z</time>
      </trkpt>
      <trkpt lat="44.55451" lon="4.24308">
        <ele>386</ele>
        <time>2018-06-03T07:42:52.000Z</time>
      </trkpt>
      <trkpt lat="44.55452" lon="4.24306">
        <ele>386</ele>
        <time>2018-06-03T07:42:53.000Z</time>
      </trkpt>
      <trkpt lat="44.55453" lon="4.24305">
        <ele>386</ele>
        <time>2018-06-03T07:42:54.000Z</time>
      </trkpt>
      <trkpt lat="44.55455" lon="4.24303">
        <ele>386</ele>
        <time>2018-06-03T07:42:55.000Z</time>
      </trkpt>
      <trkpt lat="44.55457" lon="4.24302">
        <ele>387</ele>
        <time>2018-06-03T07:42:56.000Z</time>
      </trkpt>
      <trkpt lat="44.55458" lon="4.24301">
        <ele>387</ele>
        <time>2018-06-03T07:42:57.000Z</time>
      </trkpt>
      <trkpt lat="44.55459" lon="4.24301">
        <ele>387</ele>
        <time>2018-06-03T07:42:58.000Z</time>
      </trkpt>
      <trkpt lat="44.5546" lon="4.243">
        <ele>387</ele>
        <time>2018-06-03T07:42:59.000Z</time>
      </trkpt>
      <trkpt lat="44.55462" lon="4.243">
        <ele>387</ele>
        <time>2018-06-03T07:43:00.000Z</time>
      </trkpt>
      <trkpt lat="44.55463" lon="4.24299">
        <ele>387</ele>
        <time>2018-06-03T07:43:01.000Z</time>
      </trkpt>
      <trkpt lat="44.55465" lon="4.24297">
        <ele>387</ele>
        <time>2018-06-03T07:43:02.000Z</time>
      </trkpt>
      <trkpt lat="44.55467" lon="4.24297">
        <ele>388</ele>
        <time>2018-06-03T07:43:03.000Z</time>
      </trkpt>
      <trkpt lat="44.55469" lon="4.24296">
        <ele>388</ele>
        <time>2018-06-03T07:43:04.000Z</time>
      </trkpt>
      <trkpt lat="44.5547" lon="4.24295">
        <ele>388</ele>
        <time>2018-06-03T07:43:05.000Z</time>
      </trkpt>
      <trkpt lat="44.55472" lon="4.24294">
        <ele>388</ele>
        <time>2018-06-03T07:43:06.000Z</time>
      </trkpt>
      <trkpt lat="44.55473" lon="4.24293">
        <ele>388</ele>
        <time>2018-06-03T07:43:07.000Z</time>
      </trkpt>
      <trkpt lat="44.55475" lon="4.24292">
        <ele>388</ele>
        <time>2018-06-03T07:43:08.000Z</time>
      </trkpt>
      <trkpt lat="44.55476" lon="4.24291">
        <ele>388</ele>
        <time>2018-06-03T07:43:09.000Z</time>
      </trkpt>
      <trkpt lat="44.55478" lon="4.2429">
        <ele>388</ele>
        <time>2018-06-03T07:43:10.000Z</time>
      </trkpt>
      <trkpt lat="44.55479" lon="4.2429">
        <ele>388</ele>
        <time>2018-06-03T07:43:11.000Z</time>
      </trkpt>
      <trkpt lat="44.55481" lon="4.24288">
        <ele>388</ele>
        <time>2018-06-03T07:43:12.000Z</time>
      </trkpt>
      <trkpt lat="44.55483" lon="4.24287">
        <ele>389</ele>
        <time>2018-06-03T07:43:13.000Z</time>
      </trkpt>
      <trkpt lat="44.55485" lon="4.24285">
        <ele>388</ele>
        <time>2018-06-03T07:43:14.000Z</time>
      </trkpt>
      <trkpt lat="44.55487" lon="4.24283">
        <ele>388</ele>
        <time>2018-06-03T07:43:15.000Z</time>
      </trkpt>
      <trkpt lat="44.55489" lon="4.24281">
        <ele>388</ele>
        <time>2018-06-03T07:43:16.000Z</time>
      </trkpt>
      <trkpt lat="44.55491" lon="4.2428">
        <ele>388</ele>
        <time>2018-06-03T07:43:17.000Z</time>
      </trkpt>
      <trkpt lat="44.55492" lon="4.24278">
        <ele>388</ele>
        <time>2018-06-03T07:43:18.000Z</time>
      </trkpt>
      <trkpt lat="44.55494" lon="4.24277">
        <ele>388</ele>
        <time>2018-06-03T07:43:19.000Z</time>
      </trkpt>
      <trkpt lat="44.55496" lon="4.24275">
        <ele>388</ele>
        <time>2018-06-03T07:43:20.000Z</time>
      </trkpt>
      <trkpt lat="44.55497" lon="4.24273">
        <ele>388</ele>
        <time>2018-06-03T07:43:21.000Z</time>
      </trkpt>
      <trkpt lat="44.55499" lon="4.24271">
        <ele>388</ele>
        <time>2018-06-03T07:43:22.000Z</time>
      </trkpt>
      <trkpt lat="44.55501" lon="4.24269">
        <ele>395</ele>
        <time>2018-06-03T07:43:23.000Z</time>
      </trkpt>
      <trkpt lat="44.55503" lon="4.24267">
        <ele>395</ele>
        <time>2018-06-03T07:43:24.000Z</time>
      </trkpt>
      <trkpt lat="44.55504" lon="4.24265">
        <ele>394</ele>
        <time>2018-06-03T07:43:25.000Z</time>
      </trkpt>
      <trkpt lat="44.55506" lon="4.24264">
        <ele>394</ele>
        <time>2018-06-03T07:43:26.000Z</time>
      </trkpt>
      <trkpt lat="44.55508" lon="4.24262">
        <ele>394</ele>
        <time>2018-06-03T07:43:27.000Z</time>
      </trkpt>
      <trkpt lat="44.5551" lon="4.24262">
        <ele>394</ele>
        <time>2018-06-03T07:43:28.000Z</time>
      </trkpt>
      <trkpt lat="44.55511" lon="4.24261">
        <ele>394</ele>
        <time>2018-06-03T07:43:29.000Z</time>
      </trkpt>
      <trkpt lat="44.55513" lon="4.2426">
        <ele>394</ele>
        <time>2018-06-03T07:43:30.000Z</time>
      </trkpt>
      <trkpt lat="44.55515" lon="4.24259">
        <ele>394</ele>
        <time>2018-06-03T07:43:31.000Z</time>
      </trkpt>
      <trkpt lat="44.55517" lon="4.24258">
        <ele>395</ele>
        <time>2018-06-03T07:43:32.000Z</time>
      </trkpt>
      <trkpt lat="44.55519" lon="4.24257">
        <ele>395</ele>
        <time>2018-06-03T07:43:33.000Z</time>
      </trkpt>
      <trkpt lat="44.55521" lon="4.24256">
        <ele>395</ele>
        <time>2018-06-03T07:43:34.000Z</time>
      </trkpt>
      <trkpt lat="44.55523" lon="4.24255">
        <ele>395</ele>
        <time>2018-06-03T07:43:35.000Z</time>
      </trkpt>
      <trkpt lat="44.55526" lon="4.24254">
        <ele>396</ele>
        <time>2018-06-03T07:43:36.000Z</time>
      </trkpt>
      <trkpt lat="44.55528" lon="4.24254">
        <ele>396</ele>
        <time>2018-06-03T07:43:37.000Z</time>
      </trkpt>
      <trkpt lat="44.5553" lon="4.24253">
        <ele>396</ele>
        <time>2018-06-03T07:43:38.000Z</time>
      </trkpt>
      <trkpt lat="44.55531" lon="4.24253">
        <ele>397</ele>
        <time>2018-06-03T07:43:39.000Z</time>
      </trkpt>
      <trkpt lat="44.55533" lon="4.24252">
        <ele>397</ele>
        <time>2018-06-03T07:43:40.000Z</time>
      </trkpt>
      <trkpt lat="44.55535" lon="4.24253">
        <ele>397</ele>
        <time>2018-06-03T07:43:41.000Z</time>
      </trkpt>
      <trkpt lat="44.55537" lon="4.24253">
        <ele>397</ele>
        <time>2018-06-03T07:43:42.000Z</time>
      </trkpt>
      <trkpt lat="44.55539" lon="4.24254">
        <ele>397</ele>
        <time>2018-06-03T07:43:43.000Z</time>
      </trkpt>
      <trkpt lat="44.5554" lon="4.24254">
        <ele>397</ele>
        <time>2018-06-03T07:43:44.000Z</time>
      </trkpt>
      <trkpt lat="44.55542" lon="4.24254">
        <ele>398</ele>
        <time>2018-06-03T07:43:45.000Z</time>
      </trkpt>
      <trkpt lat="44.55544" lon="4.24254">
        <ele>398</ele>
        <time>2018-06-03T07:43:46.000Z</time>
      </trkpt>
      <trkpt lat="44.55545" lon="4.24255">
        <ele>398</ele>
        <time>2018-06-03T07:43:47.000Z</time>
      </trkpt>
      <trkpt lat="44.55546" lon="4.24256">
        <ele>398</ele>
        <time>2018-06-03T07:43:48.000Z</time>
      </trkpt>
      <trkpt lat="44.55547" lon="4.24257">
        <ele>398</ele>
        <time>2018-06-03T07:43:49.000Z</time>
      </trkpt>
      <trkpt lat="44.55548" lon="4.24259">
        <ele>398</ele>
        <time>2018-06-03T07:43:50.000Z</time>
      </trkpt>
      <trkpt lat="44.55549" lon="4.2426">
        <ele>398</ele>
        <time>2018-06-03T07:43:51.000Z</time>
      </trkpt>
      <trkpt lat="44.55549" lon="4.24262">
        <ele>398</ele>
        <time>2018-06-03T07:43:52.000Z</time>
      </trkpt>
      <trkpt lat="44.55549" lon="4.24263">
        <ele>398</ele>
        <time>2018-06-03T07:43:53.000Z</time>
      </trkpt>
      <trkpt lat="44.55548" lon="4.24264">
        <ele>398</ele>
        <time>2018-06-03T07:43:54.000Z</time>
      </trkpt>
      <trkpt lat="44.55547" lon="4.24266">
        <ele>399</ele>
        <time>2018-06-03T07:43:55.000Z</time>
      </trkpt>
      <trkpt lat="44.55546" lon="4.24267">
        <ele>399</ele>
        <time>2018-06-03T07:43:56.000Z</time>
      </trkpt>
      <trkpt lat="44.55545" lon="4.24267">
        <ele>399</ele>
        <time>2018-06-03T07:43:57.000Z</time>
      </trkpt>
      <trkpt lat="44.55544" lon="4.24268">
        <ele>399</ele>
        <time>2018-06-03T07:43:58.000Z</time>
      </trkpt>
      <trkpt lat="44.55544" lon="4.24268">
        <ele>399</ele>
        <time>2018-06-03T07:43:59.000Z</time>
      </trkpt>
      <trkpt lat="44.55543" lon="4.24269">
        <ele>399</ele>
        <time>2018-06-03T07:44:00.000Z</time>
      </trkpt>
      <trkpt lat="44.55543" lon="4.2427">
        <ele>399</ele>
        <time>2018-06-03T07:44:01.000Z</time>
      </trkpt>
      <trkpt lat="44.55542" lon="4.24271">
        <ele>399</ele>
        <time>2018-06-03T07:44:02.000Z</time>
      </trkpt>
      <trkpt lat="44.55541" lon="4.24271">
        <ele>399</ele>
        <time>2018-06-03T07:44:03.000Z</time>
      </trkpt>
      <trkpt lat="44.5554" lon="4.24272">
        <ele>399</ele>
        <time>2018-06-03T07:44:04.000Z</time>
      </trkpt>
      <trkpt lat="44.5554" lon="4.24274">
        <ele>399</ele>
        <time>2018-06-03T07:44:05.000Z</time>
      </trkpt>
      <trkpt lat="44.55539" lon="4.24275">
        <ele>399</ele>
        <time>2018-06-03T07:44:06.000Z</time>
      </trkpt>
      <trkpt lat="44.55538" lon="4.24277">
        <ele>399</ele>
        <time>2018-06-03T07:44:07.000Z</time>
      </trkpt>
      <trkpt lat="44.55537" lon="4.24279">
        <ele>399</ele>
        <time>2018-06-03T07:44:08.000Z</time>
      </trkpt>
      <trkpt lat="44.55536" lon="4.24281">
        <ele>399</ele>
        <time>2018-06-03T07:44:09.000Z</time>
      </trkpt>
      <trkpt lat="44.55535" lon="4.24282">
        <ele>399</ele>
        <time>2018-06-03T07:44:10.000Z</time>
      </trkpt>
      <trkpt lat="44.55534" lon="4.24284">
        <ele>399</ele>
        <time>2018-06-03T07:44:11.000Z</time>
      </trkpt>
      <trkpt lat="44.55533" lon="4.24285">
        <ele>400</ele>
        <time>2018-06-03T07:44:12.000Z</time>
      </trkpt>
      <trkpt lat="44.55532" lon="4.24287">
        <ele>400</ele>
        <time>2018-06-03T07:44:13.000Z</time>
      </trkpt>
      <trkpt lat="44.55531" lon="4.24288">
        <ele>400</ele>
        <time>2018-06-03T07:44:14.000Z</time>
      </trkpt>
      <trkpt lat="44.55532" lon="4.24289">
        <ele>400</ele>
        <time>2018-06-03T07:44:15.000Z</time>
      </trkpt>
      <trkpt lat="44.55532" lon="4.2429">
        <ele>400</ele>
        <time>2018-06-03T07:44:16.000Z</time>
      </trkpt>
      <trkpt lat="44.55532" lon="4.24291">
        <ele>400</ele>
        <time>2018-06-03T07:44:17.000Z</time>
      </trkpt>
      <trkpt lat="44.55532" lon="4.24291">
        <ele>400</ele>
        <time>2018-06-03T07:44:18.000Z</time>
      </trkpt>
      <trkpt lat="44.55533" lon="4.24291">
        <ele>400</ele>
        <time>2018-06-03T07:44:19.000Z</time>
      </trkpt>
      <trkpt lat="44.55533" lon="4.24291">
        <ele>400</ele>
        <time>2018-06-03T07:44:20.000Z</time>
      </trkpt>
      <trkpt lat="44.55534" lon="4.24291">
        <ele>400</ele>
        <time>2018-06-03T07:44:21.000Z</time>
      </trkpt>
      <trkpt lat="44.55535" lon="4.24291">
        <ele>400</ele>
        <time>2018-06-03T07:44:22.000Z</time>
      </trkpt>
      <trkpt lat="44.55535" lon="4.24291">
        <ele>400</ele>
        <time>2018-06-03T07:44:23.000Z</time>
      </trkpt>
      <trkpt lat="44.55536" lon="4.24291">
        <ele>400</ele>
        <time>2018-06-03T07:44:24.000Z</time>
      </trkpt>
      <trkpt lat="44.55537" lon="4.24291">
        <ele>400</ele>
        <time>2018-06-03T07:44:25.000Z</time>
      </trkpt>
      <trkpt lat="44.55538" lon="4.24291">
        <ele>400</ele>
        <time>2018-06-03T07:44:26.000Z</time>
      </trkpt>
      <trkpt lat="44.55539" lon="4.24291">
        <ele>400</ele>
        <time>2018-06-03T07:44:27.000Z</time>
      </trkpt>
      <trkpt lat="44.55541" lon="4.24291">
        <ele>400</ele>
        <time>2018-06-03T07:44:28.000Z</time>
      </trkpt>
      <trkpt lat="44.55542" lon="4.24291">
        <ele>400</ele>
        <time>2018-06-03T07:44:29.000Z</time>
      </trkpt>
      <trkpt lat="44.55543" lon="4.24291">
        <ele>400</ele>
        <time>2018-06-03T07:44:30.000Z</time>
      </trkpt>
      <trkpt lat="44.55544" lon="4.24291">
        <ele>400</ele>
        <time>2018-06-03T07:44:31.000Z</time>
      </trkpt>
      <trkpt lat="44.55545" lon="4.24291">
        <ele>401</ele>
        <time>2018-06-03T07:44:32.000Z</time>
      </trkpt>
      <trkpt lat="44.55546" lon="4.24291">
        <ele>401</ele>
        <time>2018-06-03T07:44:33.000Z</time>
      </trkpt>
      <trkpt lat="44.55547" lon="4.24291">
        <ele>401</ele>
        <time>2018-06-03T07:44:34.000Z</time>
      </trkpt>
      <trkpt lat="44.55549" lon="4.24291">
        <ele>401</ele>
        <time>2018-06-03T07:44:35.000Z</time>
      </trkpt>
      <trkpt lat="44.5555" lon="4.24292">
        <ele>401</ele>
        <time>2018-06-03T07:44:36.000Z</time>
      </trkpt>
      <trkpt lat="44.55552" lon="4.24292">
        <ele>401</ele>
        <time>2018-06-03T07:44:37.000Z</time>
      </trkpt>
      <trkpt lat="44.55553" lon="4.24292">
        <ele>401</ele>
        <time>2018-06-03T07:44:38.000Z</time>
      </trkpt>
      <trkpt lat="44.55554" lon="4.24292">
        <ele>401</ele>
        <time>2018-06-03T07:44:39.000Z</time>
      </trkpt>
      <trkpt lat="44.55555" lon="4.24292">
        <ele>401</ele>
        <time>2018-06-03T07:44:40.000Z</time>
      </trkpt>
      <trkpt lat="44.55556" lon="4.24291">
        <ele>401</ele>
        <time>2018-06-03T07:44:41.000Z</time>
      </trkpt>
      <trkpt lat="44.55558" lon="4.24292">
        <ele>401</ele>
        <time>2018-06-03T07:44:42.000Z</time>
      </trkpt>
      <trkpt lat="44.55559" lon="4.24292">
        <ele>401</ele>
        <time>2018-06-03T07:44:43.000Z</time>
      </trkpt>
      <trkpt lat="44.5556" lon="4.24293">
        <ele>401</ele>
        <time>2018-06-03T07:44:44.000Z</time>
      </trkpt>
      <trkpt lat="44.55562" lon="4.24295">
        <ele>401</ele>
        <time>2018-06-03T07:44:45.000Z</time>
      </trkpt>
      <trkpt lat="44.55563" lon="4.24296">
        <ele>401</ele>
        <time>2018-06-03T07:44:46.000Z</time>
      </trkpt>
      <trkpt lat="44.55565" lon="4.24298">
        <ele>402</ele>
        <time>2018-06-03T07:44:47.000Z</time>
      </trkpt>
      <trkpt lat="44.55566" lon="4.243">
        <ele>402</ele>
        <time>2018-06-03T07:44:48.000Z</time>
      </trkpt>
      <trkpt lat="44.55568" lon="4.24302">
        <ele>402</ele>
        <time>2018-06-03T07:44:49.000Z</time>
      </trkpt>
      <trkpt lat="44.55569" lon="4.24304">
        <ele>402</ele>
        <time>2018-06-03T07:44:50.000Z</time>
      </trkpt>
      <trkpt lat="44.5557" lon="4.24306">
        <ele>403</ele>
        <time>2018-06-03T07:44:51.000Z</time>
      </trkpt>
      <trkpt lat="44.55571" lon="4.24307">
        <ele>403</ele>
        <time>2018-06-03T07:44:52.000Z</time>
      </trkpt>
      <trkpt lat="44.55572" lon="4.24309">
        <ele>403</ele>
        <time>2018-06-03T07:44:53.000Z</time>
      </trkpt>
      <trkpt lat="44.55573" lon="4.24311">
        <ele>403</ele>
        <time>2018-06-03T07:44:54.000Z</time>
      </trkpt>
      <trkpt lat="44.55574" lon="4.24312">
        <ele>404</ele>
        <time>2018-06-03T07:44:55.000Z</time>
      </trkpt>
      <trkpt lat="44.55575" lon="4.24314">
        <ele>404</ele>
        <time>2018-06-03T07:44:56.000Z</time>
      </trkpt>
      <trkpt lat="44.55576" lon="4.24317">
        <ele>404</ele>
        <time>2018-06-03T07:44:57.000Z</time>
      </trkpt>
      <trkpt lat="44.55576" lon="4.2432">
        <ele>405</ele>
        <time>2018-06-03T07:44:58.000Z</time>
      </trkpt>
      <trkpt lat="44.55577" lon="4.24322">
        <ele>405</ele>
        <time>2018-06-03T07:44:59.000Z</time>
      </trkpt>
      <trkpt lat="44.55578" lon="4.24325">
        <ele>406</ele>
        <time>2018-06-03T07:45:00.000Z</time>
      </trkpt>
      <trkpt lat="44.55579" lon="4.24327">
        <ele>406</ele>
        <time>2018-06-03T07:45:01.000Z</time>
      </trkpt>
      <trkpt lat="44.55579" lon="4.24329">
        <ele>406</ele>
        <time>2018-06-03T07:45:02.000Z</time>
      </trkpt>
      <trkpt lat="44.5558" lon="4.24332">
        <ele>407</ele>
        <time>2018-06-03T07:45:03.000Z</time>
      </trkpt>
      <trkpt lat="44.55581" lon="4.24334">
        <ele>409</ele>
        <time>2018-06-03T07:45:04.000Z</time>
      </trkpt>
      <trkpt lat="44.55583" lon="4.24336">
        <ele>409</ele>
        <time>2018-06-03T07:45:05.000Z</time>
      </trkpt>
      <trkpt lat="44.55584" lon="4.24337">
        <ele>411</ele>
        <time>2018-06-03T07:45:06.000Z</time>
      </trkpt>
      <trkpt lat="44.55585" lon="4.24338">
        <ele>411</ele>
        <time>2018-06-03T07:45:07.000Z</time>
      </trkpt>
      <trkpt lat="44.55587" lon="4.24338">
        <ele>412</ele>
        <time>2018-06-03T07:45:08.000Z</time>
      </trkpt>
      <trkpt lat="44.55589" lon="4.24339">
        <ele>413</ele>
        <time>2018-06-03T07:45:09.000Z</time>
      </trkpt>
      <trkpt lat="44.5559" lon="4.2434">
        <ele>414</ele>
        <time>2018-06-03T07:45:10.000Z</time>
      </trkpt>
      <trkpt lat="44.55592" lon="4.2434">
        <ele>415</ele>
        <time>2018-06-03T07:45:11.000Z</time>
      </trkpt>
      <trkpt lat="44.55595" lon="4.24341">
        <ele>416</ele>
        <time>2018-06-03T07:45:12.000Z</time>
      </trkpt>
      <trkpt lat="44.55597" lon="4.24341">
        <ele>417</ele>
        <time>2018-06-03T07:45:13.000Z</time>
      </trkpt>
      <trkpt lat="44.55599" lon="4.24342">
        <ele>417</ele>
        <time>2018-06-03T07:45:14.000Z</time>
      </trkpt>
      <trkpt lat="44.55601" lon="4.24343">
        <ele>418</ele>
        <time>2018-06-03T07:45:15.000Z</time>
      </trkpt>
      <trkpt lat="44.55603" lon="4.24344">
        <ele>419</ele>
        <time>2018-06-03T07:45:16.000Z</time>
      </trkpt>
      <trkpt lat="44.55604" lon="4.24345">
        <ele>419</ele>
        <time>2018-06-03T07:45:17.000Z</time>
      </trkpt>
      <trkpt lat="44.55606" lon="4.24347">
        <ele>420</ele>
        <time>2018-06-03T07:45:18.000Z</time>
      </trkpt>
      <trkpt lat="44.55607" lon="4.24349">
        <ele>421</ele>
        <time>2018-06-03T07:45:19.000Z</time>
      </trkpt>
      <trkpt lat="44.55609" lon="4.24351">
        <ele>421</ele>
        <time>2018-06-03T07:45:20.000Z</time>
      </trkpt>
      <trkpt lat="44.5561" lon="4.24353">
        <ele>422</ele>
        <time>2018-06-03T07:45:21.000Z</time>
      </trkpt>
      <trkpt lat="44.55611" lon="4.24356">
        <ele>423</ele>
        <time>2018-06-03T07:45:22.000Z</time>
      </trkpt>
      <trkpt lat="44.55612" lon="4.24358">
        <ele>423</ele>
        <time>2018-06-03T07:45:23.000Z</time>
      </trkpt>
      <trkpt lat="44.55613" lon="4.24361">
        <ele>424</ele>
        <time>2018-06-03T07:45:24.000Z</time>
      </trkpt>
      <trkpt lat="44.55614" lon="4.24363">
        <ele>424</ele>
        <time>2018-06-03T07:45:25.000Z</time>
      </trkpt>
      <trkpt lat="44.55615" lon="4.24365">
        <ele>424</ele>
        <time>2018-06-03T07:45:26.000Z</time>
      </trkpt>
      <trkpt lat="44.55617" lon="4.24366">
        <ele>425</ele>
        <time>2018-06-03T07:45:27.000Z</time>
      </trkpt>
      <trkpt lat="44.55619" lon="4.24367">
        <ele>425</ele>
        <time>2018-06-03T07:45:28.000Z</time>
      </trkpt>
      <trkpt lat="44.5562" lon="4.24367">
        <ele>425</ele>
        <time>2018-06-03T07:45:29.000Z</time>
      </trkpt>
      <trkpt lat="44.55622" lon="4.24367">
        <ele>425</ele>
        <time>2018-06-03T07:45:30.000Z</time>
      </trkpt>
      <trkpt lat="44.55623" lon="4.24366">
        <ele>425</ele>
        <time>2018-06-03T07:45:31.000Z</time>
      </trkpt>
      <trkpt lat="44.55625" lon="4.24364">
        <ele>425</ele>
        <time>2018-06-03T07:45:32.000Z</time>
      </trkpt>
      <trkpt lat="44.55626" lon="4.24363">
        <ele>425</ele>
        <time>2018-06-03T07:45:33.000Z</time>
      </trkpt>
      <trkpt lat="44.55627" lon="4.24361">
        <ele>425</ele>
        <time>2018-06-03T07:45:34.000Z</time>
      </trkpt>
      <trkpt lat="44.55629" lon="4.2436">
        <ele>425</ele>
        <time>2018-06-03T07:45:35.000Z</time>
      </trkpt>
      <trkpt lat="44.5563" lon="4.24359">
        <ele>425</ele>
        <time>2018-06-03T07:45:36.000Z</time>
      </trkpt>
      <trkpt lat="44.55631" lon="4.24357">
        <ele>425</ele>
        <time>2018-06-03T07:45:37.000Z</time>
      </trkpt>
      <trkpt lat="44.55632" lon="4.24356">
        <ele>425</ele>
        <time>2018-06-03T07:45:38.000Z</time>
      </trkpt>
      <trkpt lat="44.55633" lon="4.24354">
        <ele>424</ele>
        <time>2018-06-03T07:45:39.000Z</time>
      </trkpt>
      <trkpt lat="44.55635" lon="4.24352">
        <ele>424</ele>
        <time>2018-06-03T07:45:40.000Z</time>
      </trkpt>
      <trkpt lat="44.55636" lon="4.24351">
        <ele>424</ele>
        <time>2018-06-03T07:45:41.000Z</time>
      </trkpt>
      <trkpt lat="44.55638" lon="4.24349">
        <ele>424</ele>
        <time>2018-06-03T07:45:42.000Z</time>
      </trkpt>
      <trkpt lat="44.55639" lon="4.24348">
        <ele>424</ele>
        <time>2018-06-03T07:45:43.000Z</time>
      </trkpt>
      <trkpt lat="44.5564" lon="4.24346">
        <ele>424</ele>
        <time>2018-06-03T07:45:44.000Z</time>
      </trkpt>
      <trkpt lat="44.55641" lon="4.24345">
        <ele>424</ele>
        <time>2018-06-03T07:45:45.000Z</time>
      </trkpt>
      <trkpt lat="44.55642" lon="4.24343">
        <ele>424</ele>
        <time>2018-06-03T07:45:46.000Z</time>
      </trkpt>
      <trkpt lat="44.55643" lon="4.24342">
        <ele>424</ele>
        <time>2018-06-03T07:45:47.000Z</time>
      </trkpt>
      <trkpt lat="44.55644" lon="4.2434">
        <ele>424</ele>
        <time>2018-06-03T07:45:48.000Z</time>
      </trkpt>
      <trkpt lat="44.55646" lon="4.24339">
        <ele>423</ele>
        <time>2018-06-03T07:45:49.000Z</time>
      </trkpt>
      <trkpt lat="44.55647" lon="4.24337">
        <ele>423</ele>
        <time>2018-06-03T07:45:50.000Z</time>
      </trkpt>
      <trkpt lat="44.55649" lon="4.24335">
        <ele>423</ele>
        <time>2018-06-03T07:45:51.000Z</time>
      </trkpt>
      <trkpt lat="44.5565" lon="4.24333">
        <ele>415</ele>
        <time>2018-06-03T07:45:52.000Z</time>
      </trkpt>
      <trkpt lat="44.55652" lon="4.24331">
        <ele>416</ele>
        <time>2018-06-03T07:45:53.000Z</time>
      </trkpt>
      <trkpt lat="44.55654" lon="4.24329">
        <ele>416</ele>
        <time>2018-06-03T07:45:54.000Z</time>
      </trkpt>
      <trkpt lat="44.55655" lon="4.24329">
        <ele>416</ele>
        <time>2018-06-03T07:45:55.000Z</time>
      </trkpt>
      <trkpt lat="44.55657" lon="4.24328">
        <ele>417</ele>
        <time>2018-06-03T07:45:56.000Z</time>
      </trkpt>
      <trkpt lat="44.55658" lon="4.24327">
        <ele>417</ele>
        <time>2018-06-03T07:45:57.000Z</time>
      </trkpt>
      <trkpt lat="44.5566" lon="4.24325">
        <ele>417</ele>
        <time>2018-06-03T07:45:58.000Z</time>
      </trkpt>
      <trkpt lat="44.55661" lon="4.24324">
        <ele>417</ele>
        <time>2018-06-03T07:45:59.000Z</time>
      </trkpt>
      <trkpt lat="44.55663" lon="4.24323">
        <ele>417</ele>
        <time>2018-06-03T07:46:00.000Z</time>
      </trkpt>
      <trkpt lat="44.55664" lon="4.24322">
        <ele>416</ele>
        <time>2018-06-03T07:46:01.000Z</time>
      </trkpt>
      <trkpt lat="44.55666" lon="4.24321">
        <ele>416</ele>
        <time>2018-06-03T07:46:02.000Z</time>
      </trkpt>
      <trkpt lat="44.55667" lon="4.2432">
        <ele>421</ele>
        <time>2018-06-03T07:46:03.000Z</time>
      </trkpt>
      <trkpt lat="44.55669" lon="4.24319">
        <ele>421</ele>
        <time>2018-06-03T07:46:04.000Z</time>
      </trkpt>
      <trkpt lat="44.5567" lon="4.24317">
        <ele>421</ele>
        <time>2018-06-03T07:46:05.000Z</time>
      </trkpt>
      <trkpt lat="44.55671" lon="4.24316">
        <ele>421</ele>
        <time>2018-06-03T07:46:06.000Z</time>
      </trkpt>
      <trkpt lat="44.55673" lon="4.24315">
        <ele>421</ele>
        <time>2018-06-03T07:46:07.000Z</time>
      </trkpt>
      <trkpt lat="44.55674" lon="4.24313">
        <ele>421</ele>
        <time>2018-06-03T07:46:08.000Z</time>
      </trkpt>
      <trkpt lat="44.55676" lon="4.24311">
        <ele>421</ele>
        <time>2018-06-03T07:46:09.000Z</time>
      </trkpt>
      <trkpt lat="44.55677" lon="4.24309">
        <ele>421</ele>
        <time>2018-06-03T07:46:10.000Z</time>
      </trkpt>
      <trkpt lat="44.55679" lon="4.24307">
        <ele>421</ele>
        <time>2018-06-03T07:46:11.000Z</time>
      </trkpt>
      <trkpt lat="44.5568" lon="4.24305">
        <ele>420</ele>
        <time>2018-06-03T07:46:12.000Z</time>
      </trkpt>
      <trkpt lat="44.55681" lon="4.24303">
        <ele>420</ele>
        <time>2018-06-03T07:46:13.000Z</time>
      </trkpt>
      <trkpt lat="44.55682" lon="4.24301">
        <ele>420</ele>
        <time>2018-06-03T07:46:14.000Z</time>
      </trkpt>
      <trkpt lat="44.55684" lon="4.24299">
        <ele>420</ele>
        <time>2018-06-03T07:46:15.000Z</time>
      </trkpt>
      <trkpt lat="44.55685" lon="4.24297">
        <ele>420</ele>
        <time>2018-06-03T07:46:16.000Z</time>
      </trkpt>
      <trkpt lat="44.55686" lon="4.24297">
        <ele>420</ele>
        <time>2018-06-03T07:46:17.000Z</time>
      </trkpt>
      <trkpt lat="44.55687" lon="4.24296">
        <ele>420</ele>
        <time>2018-06-03T07:46:18.000Z</time>
      </trkpt>
      <trkpt lat="44.55689" lon="4.24294">
        <ele>420</ele>
        <time>2018-06-03T07:46:19.000Z</time>
      </trkpt>
      <trkpt lat="44.55691" lon="4.24294">
        <ele>420</ele>
        <time>2018-06-03T07:46:20.000Z</time>
      </trkpt>
      <trkpt lat="44.55692" lon="4.24293">
        <ele>420</ele>
        <time>2018-06-03T07:46:21.000Z</time>
      </trkpt>
      <trkpt lat="44.55694" lon="4.24293">
        <ele>420</ele>
        <time>2018-06-03T07:46:22.000Z</time>
      </trkpt>
      <trkpt lat="44.55696" lon="4.24292">
        <ele>420</ele>
        <time>2018-06-03T07:46:23.000Z</time>
      </trkpt>
      <trkpt lat="44.55698" lon="4.24291">
        <ele>420</ele>
        <time>2018-06-03T07:46:24.000Z</time>
      </trkpt>
      <trkpt lat="44.557" lon="4.2429">
        <ele>420</ele>
        <time>2018-06-03T07:46:25.000Z</time>
      </trkpt>
      <trkpt lat="44.55702" lon="4.2429">
        <ele>421</ele>
        <time>2018-06-03T07:46:26.000Z</time>
      </trkpt>
      <trkpt lat="44.55704" lon="4.2429">
        <ele>421</ele>
        <time>2018-06-03T07:46:27.000Z</time>
      </trkpt>
      <trkpt lat="44.55706" lon="4.2429">
        <ele>421</ele>
        <time>2018-06-03T07:46:28.000Z</time>
      </trkpt>
      <trkpt lat="44.55709" lon="4.2429">
        <ele>421</ele>
        <time>2018-06-03T07:46:29.000Z</time>
      </trkpt>
      <trkpt lat="44.55711" lon="4.24291">
        <ele>421</ele>
        <time>2018-06-03T07:46:30.000Z</time>
      </trkpt>
      <trkpt lat="44.55712" lon="4.24291">
        <ele>421</ele>
        <time>2018-06-03T07:46:31.000Z</time>
      </trkpt>
      <trkpt lat="44.55714" lon="4.24291">
        <ele>422</ele>
        <time>2018-06-03T07:46:32.000Z</time>
      </trkpt>
      <trkpt lat="44.55716" lon="4.24292">
        <ele>422</ele>
        <time>2018-06-03T07:46:33.000Z</time>
      </trkpt>
      <trkpt lat="44.55718" lon="4.24291">
        <ele>422</ele>
        <time>2018-06-03T07:46:34.000Z</time>
      </trkpt>
      <trkpt lat="44.5572" lon="4.24292">
        <ele>422</ele>
        <time>2018-06-03T07:46:35.000Z</time>
      </trkpt>
      <trkpt lat="44.55722" lon="4.24291">
        <ele>422</ele>
        <time>2018-06-03T07:46:36.000Z</time>
      </trkpt>
      <trkpt lat="44.55724" lon="4.24291">
        <ele>422</ele>
        <time>2018-06-03T07:46:37.000Z</time>
      </trkpt>
      <trkpt lat="44.55726" lon="4.24291">
        <ele>422</ele>
        <time>2018-06-03T07:46:38.000Z</time>
      </trkpt>
      <trkpt lat="44.55728" lon="4.2429">
        <ele>422</ele>
        <time>2018-06-03T07:46:39.000Z</time>
      </trkpt>
      <trkpt lat="44.5573" lon="4.2429">
        <ele>423</ele>
        <time>2018-06-03T07:46:40.000Z</time>
      </trkpt>
      <trkpt lat="44.55732" lon="4.2429">
        <ele>423</ele>
        <time>2018-06-03T07:46:41.000Z</time>
      </trkpt>
      <trkpt lat="44.55734" lon="4.2429">
        <ele>423</ele>
        <time>2018-06-03T07:46:42.000Z</time>
      </trkpt>
      <trkpt lat="44.55736" lon="4.2429">
        <ele>423</ele>
        <time>2018-06-03T07:46:43.000Z</time>
      </trkpt>
      <trkpt lat="44.55738" lon="4.2429">
        <ele>423</ele>
        <time>2018-06-03T07:46:44.000Z</time>
      </trkpt>
      <trkpt lat="44.5574" lon="4.2429">
        <ele>423</ele>
        <time>2018-06-03T07:46:45.000Z</time>
      </trkpt>
      <trkpt lat="44.55742" lon="4.2429">
        <ele>423</ele>
        <time>2018-06-03T07:46:46.000Z</time>
      </trkpt>
      <trkpt lat="44.55744" lon="4.2429">
        <ele>423</ele>
        <time>2018-06-03T07:46:47.000Z</time>
      </trkpt>
      <trkpt lat="44.55745" lon="4.24289">
        <ele>423</ele>
        <time>2018-06-03T07:46:48.000Z</time>
      </trkpt>
      <trkpt lat="44.55748" lon="4.2429">
        <ele>423</ele>
        <time>2018-06-03T07:46:49.000Z</time>
      </trkpt>
      <trkpt lat="44.5575" lon="4.2429">
        <ele>423</ele>
        <time>2018-06-03T07:46:50.000Z</time>
      </trkpt>
      <trkpt lat="44.55752" lon="4.2429">
        <ele>426</ele>
        <time>2018-06-03T07:46:51.000Z</time>
      </trkpt>
      <trkpt lat="44.55754" lon="4.2429">
        <ele>426</ele>
        <time>2018-06-03T07:46:52.000Z</time>
      </trkpt>
      <trkpt lat="44.55756" lon="4.24291">
        <ele>426</ele>
        <time>2018-06-03T07:46:53.000Z</time>
      </trkpt>
      <trkpt lat="44.55758" lon="4.24292">
        <ele>426</ele>
        <time>2018-06-03T07:46:54.000Z</time>
      </trkpt>
      <trkpt lat="44.5576" lon="4.24294">
        <ele>426</ele>
        <time>2018-06-03T07:46:55.000Z</time>
      </trkpt>
      <trkpt lat="44.55762" lon="4.24295">
        <ele>426</ele>
        <time>2018-06-03T07:46:56.000Z</time>
      </trkpt>
      <trkpt lat="44.55764" lon="4.24296">
        <ele>426</ele>
        <time>2018-06-03T07:46:57.000Z</time>
      </trkpt>
      <trkpt lat="44.55766" lon="4.24297">
        <ele>426</ele>
        <time>2018-06-03T07:46:58.000Z</time>
      </trkpt>
      <trkpt lat="44.55768" lon="4.24297">
        <ele>426</ele>
        <time>2018-06-03T07:46:59.000Z</time>
      </trkpt>
      <trkpt lat="44.5577" lon="4.24298">
        <ele>426</ele>
        <time>2018-06-03T07:47:00.000Z</time>
      </trkpt>
      <trkpt lat="44.55772" lon="4.24298">
        <ele>426</ele>
        <time>2018-06-03T07:47:01.000Z</time>
      </trkpt>
      <trkpt lat="44.55774" lon="4.243">
        <ele>426</ele>
        <time>2018-06-03T07:47:02.000Z</time>
      </trkpt>
      <trkpt lat="44.55776" lon="4.24302">
        <ele>426</ele>
        <time>2018-06-03T07:47:03.000Z</time>
      </trkpt>
      <trkpt lat="44.55777" lon="4.24304">
        <ele>427</ele>
        <time>2018-06-03T07:47:04.000Z</time>
      </trkpt>
      <trkpt lat="44.55779" lon="4.24306">
        <ele>427</ele>
        <time>2018-06-03T07:47:05.000Z</time>
      </trkpt>
      <trkpt lat="44.55781" lon="4.24309">
        <ele>427</ele>
        <time>2018-06-03T07:47:06.000Z</time>
      </trkpt>
      <trkpt lat="44.55782" lon="4.24311">
        <ele>427</ele>
        <time>2018-06-03T07:47:07.000Z</time>
      </trkpt>
      <trkpt lat="44.55784" lon="4.24313">
        <ele>427</ele>
        <time>2018-06-03T07:47:08.000Z</time>
      </trkpt>
      <trkpt lat="44.55786" lon="4.24315">
        <ele>427</ele>
        <time>2018-06-03T07:47:09.000Z</time>
      </trkpt>
      <trkpt lat="44.55787" lon="4.24318">
        <ele>427</ele>
        <time>2018-06-03T07:47:10.000Z</time>
      </trkpt>
      <trkpt lat="44.55788" lon="4.2432">
        <ele>427</ele>
        <time>2018-06-03T07:47:11.000Z</time>
      </trkpt>
      <trkpt lat="44.5579" lon="4.24323">
        <ele>427</ele>
        <time>2018-06-03T07:47:12.000Z</time>
      </trkpt>
      <trkpt lat="44.55791" lon="4.24326">
        <ele>427</ele>
        <time>2018-06-03T07:47:13.000Z</time>
      </trkpt>
      <trkpt lat="44.55792" lon="4.24328">
        <ele>427</ele>
        <time>2018-06-03T07:47:14.000Z</time>
      </trkpt>
      <trkpt lat="44.55794" lon="4.24331">
        <ele>427</ele>
        <time>2018-06-03T07:47:15.000Z</time>
      </trkpt>
      <trkpt lat="44.55795" lon="4.24333">
        <ele>427</ele>
        <time>2018-06-03T07:47:16.000Z</time>
      </trkpt>
      <trkpt lat="44.55796" lon="4.24336">
        <ele>437</ele>
        <time>2018-06-03T07:47:17.000Z</time>
      </trkpt>
      <trkpt lat="44.55796" lon="4.24337">
        <ele>437</ele>
        <time>2018-06-03T07:47:18.000Z</time>
      </trkpt>
      <trkpt lat="44.55797" lon="4.24339">
        <ele>437</ele>
        <time>2018-06-03T07:47:19.000Z</time>
      </trkpt>
      <trkpt lat="44.55798" lon="4.2434">
        <ele>437</ele>
        <time>2018-06-03T07:47:20.000Z</time>
      </trkpt>
      <trkpt lat="44.55798" lon="4.24343">
        <ele>437</ele>
        <time>2018-06-03T07:47:21.000Z</time>
      </trkpt>
      <trkpt lat="44.55799" lon="4.24345">
        <ele>437</ele>
        <time>2018-06-03T07:47:22.000Z</time>
      </trkpt>
      <trkpt lat="44.558" lon="4.24347">
        <ele>437</ele>
        <time>2018-06-03T07:47:23.000Z</time>
      </trkpt>
      <trkpt lat="44.55801" lon="4.24348">
        <ele>437</ele>
        <time>2018-06-03T07:47:24.000Z</time>
      </trkpt>
      <trkpt lat="44.55802" lon="4.24351">
        <ele>437</ele>
        <time>2018-06-03T07:47:25.000Z</time>
      </trkpt>
      <trkpt lat="44.55804" lon="4.24352">
        <ele>437</ele>
        <time>2018-06-03T07:47:26.000Z</time>
      </trkpt>
      <trkpt lat="44.55806" lon="4.24354">
        <ele>437</ele>
        <time>2018-06-03T07:47:27.000Z</time>
      </trkpt>
      <trkpt lat="44.55807" lon="4.24356">
        <ele>437</ele>
        <time>2018-06-03T07:47:28.000Z</time>
      </trkpt>
      <trkpt lat="44.55808" lon="4.24358">
        <ele>438</ele>
        <time>2018-06-03T07:47:29.000Z</time>
      </trkpt>
      <trkpt lat="44.5581" lon="4.24359">
        <ele>437</ele>
        <time>2018-06-03T07:47:30.000Z</time>
      </trkpt>
      <trkpt lat="44.55811" lon="4.24361">
        <ele>438</ele>
        <time>2018-06-03T07:47:31.000Z</time>
      </trkpt>
      <trkpt lat="44.55812" lon="4.24362">
        <ele>438</ele>
        <time>2018-06-03T07:47:32.000Z</time>
      </trkpt>
      <trkpt lat="44.55813" lon="4.24364">
        <ele>438</ele>
        <time>2018-06-03T07:47:33.000Z</time>
      </trkpt>
      <trkpt lat="44.55815" lon="4.24366">
        <ele>438</ele>
        <time>2018-06-03T07:47:34.000Z</time>
      </trkpt>
      <trkpt lat="44.55816" lon="4.24368">
        <ele>438</ele>
        <time>2018-06-03T07:47:35.000Z</time>
      </trkpt>
      <trkpt lat="44.55817" lon="4.2437">
        <ele>438</ele>
        <time>2018-06-03T07:47:36.000Z</time>
      </trkpt>
      <trkpt lat="44.55819" lon="4.24371">
        <ele>439</ele>
        <time>2018-06-03T07:47:37.000Z</time>
      </trkpt>
      <trkpt lat="44.5582" lon="4.24373">
        <ele>439</ele>
        <time>2018-06-03T07:47:38.000Z</time>
      </trkpt>
      <trkpt lat="44.55822" lon="4.24375">
        <ele>439</ele>
        <time>2018-06-03T07:47:39.000Z</time>
      </trkpt>
      <trkpt lat="44.55823" lon="4.24376">
        <ele>439</ele>
        <time>2018-06-03T07:47:40.000Z</time>
      </trkpt>
      <trkpt lat="44.55824" lon="4.24376">
        <ele>439</ele>
        <time>2018-06-03T07:47:41.000Z</time>
      </trkpt>
      <trkpt lat="44.55825" lon="4.24377">
        <ele>439</ele>
        <time>2018-06-03T07:47:42.000Z</time>
      </trkpt>
      <trkpt lat="44.55827" lon="4.24378">
        <ele>439</ele>
        <time>2018-06-03T07:47:43.000Z</time>
      </trkpt>
      <trkpt lat="44.55828" lon="4.24378">
        <ele>439</ele>
        <time>2018-06-03T07:47:44.000Z</time>
      </trkpt>
      <trkpt lat="44.5583" lon="4.2438">
        <ele>439</ele>
        <time>2018-06-03T07:47:45.000Z</time>
      </trkpt>
      <trkpt lat="44.55831" lon="4.24382">
        <ele>440</ele>
        <time>2018-06-03T07:47:46.000Z</time>
      </trkpt>
      <trkpt lat="44.55833" lon="4.24384">
        <ele>440</ele>
        <time>2018-06-03T07:47:47.000Z</time>
      </trkpt>
      <trkpt lat="44.55835" lon="4.24386">
        <ele>431</ele>
        <time>2018-06-03T07:47:48.000Z</time>
      </trkpt>
      <trkpt lat="44.55836" lon="4.24388">
        <ele>432</ele>
        <time>2018-06-03T07:47:49.000Z</time>
      </trkpt>
      <trkpt lat="44.55838" lon="4.2439">
        <ele>432</ele>
        <time>2018-06-03T07:47:50.000Z</time>
      </trkpt>
      <trkpt lat="44.55839" lon="4.24392">
        <ele>432</ele>
        <time>2018-06-03T07:47:51.000Z</time>
      </trkpt>
      <trkpt lat="44.55841" lon="4.24394">
        <ele>433</ele>
        <time>2018-06-03T07:47:52.000Z</time>
      </trkpt>
      <trkpt lat="44.55842" lon="4.24397">
        <ele>433</ele>
        <time>2018-06-03T07:47:53.000Z</time>
      </trkpt>
      <trkpt lat="44.55843" lon="4.24399">
        <ele>434</ele>
        <time>2018-06-03T07:47:54.000Z</time>
      </trkpt>
      <trkpt lat="44.55844" lon="4.24401">
        <ele>434</ele>
        <time>2018-06-03T07:47:55.000Z</time>
      </trkpt>
      <trkpt lat="44.55845" lon="4.24402">
        <ele>434</ele>
        <time>2018-06-03T07:47:56.000Z</time>
      </trkpt>
      <trkpt lat="44.55845" lon="4.24402">
        <ele>434</ele>
        <time>2018-06-03T07:47:57.000Z</time>
      </trkpt>
      <trkpt lat="44.55846" lon="4.24403">
        <ele>434</ele>
        <time>2018-06-03T07:47:58.000Z</time>
      </trkpt>
      <trkpt lat="44.55846" lon="4.24404">
        <ele>434</ele>
        <time>2018-06-03T07:47:59.000Z</time>
      </trkpt>
      <trkpt lat="44.55846" lon="4.24405">
        <ele>434</ele>
        <time>2018-06-03T07:48:00.000Z</time>
      </trkpt>
      <trkpt lat="44.55847" lon="4.24405">
        <ele>434</ele>
        <time>2018-06-03T07:48:01.000Z</time>
      </trkpt>
      <trkpt lat="44.55847" lon="4.24406">
        <ele>434</ele>
        <time>2018-06-03T07:48:02.000Z</time>
      </trkpt>
      <trkpt lat="44.55847" lon="4.24406">
        <ele>434</ele>
        <time>2018-06-03T07:48:03.000Z</time>
      </trkpt>
      <trkpt lat="44.55847" lon="4.24407">
        <ele>435</ele>
        <time>2018-06-03T07:48:04.000Z</time>
      </trkpt>
      <trkpt lat="44.55848" lon="4.24408">
        <ele>434</ele>
        <time>2018-06-03T07:48:05.000Z</time>
      </trkpt>
      <trkpt lat="44.55848" lon="4.24408">
        <ele>434</ele>
        <time>2018-06-03T07:48:06.000Z</time>
      </trkpt>
      <trkpt lat="44.55848" lon="4.24409">
        <ele>435</ele>
        <time>2018-06-03T07:48:07.000Z</time>
      </trkpt>
      <trkpt lat="44.55848" lon="4.24409">
        <ele>435</ele>
        <time>2018-06-03T07:48:08.000Z</time>
      </trkpt>
      <trkpt lat="44.55848" lon="4.2441">
        <ele>435</ele>
        <time>2018-06-03T07:48:09.000Z</time>
      </trkpt>
      <trkpt lat="44.55849" lon="4.24411">
        <ele>435</ele>
        <time>2018-06-03T07:48:10.000Z</time>
      </trkpt>
      <trkpt lat="44.55849" lon="4.24411">
        <ele>435</ele>
        <time>2018-06-03T07:48:11.000Z</time>
      </trkpt>
      <trkpt lat="44.55849" lon="4.24412">
        <ele>435</ele>
        <time>2018-06-03T07:48:12.000Z</time>
      </trkpt>
      <trkpt lat="44.55849" lon="4.24412">
        <ele>435</ele>
        <time>2018-06-03T07:48:13.000Z</time>
      </trkpt>
      <trkpt lat="44.55849" lon="4.24413">
        <ele>435</ele>
        <time>2018-06-03T07:48:14.000Z</time>
      </trkpt>
      <trkpt lat="44.55849" lon="4.24413">
        <ele>435</ele>
        <time>2018-06-03T07:48:15.000Z</time>
      </trkpt>
      <trkpt lat="44.5585" lon="4.24414">
        <ele>435</ele>
        <time>2018-06-03T07:48:16.000Z</time>
      </trkpt>
      <trkpt lat="44.5585" lon="4.24414">
        <ele>435</ele>
        <time>2018-06-03T07:48:17.000Z</time>
      </trkpt>
      <trkpt lat="44.5585" lon="4.24415">
        <ele>435</ele>
        <time>2018-06-03T07:48:18.000Z</time>
      </trkpt>
      <trkpt lat="44.5585" lon="4.24415">
        <ele>435</ele>
        <time>2018-06-03T07:48:19.000Z</time>
      </trkpt>
      <trkpt lat="44.5585" lon="4.24416">
        <ele>435</ele>
        <time>2018-06-03T07:48:20.000Z</time>
      </trkpt>
      <trkpt lat="44.5585" lon="4.24416">
        <ele>435</ele>
        <time>2018-06-03T07:48:21.000Z</time>
      </trkpt>
      <trkpt lat="44.5585" lon="4.24417">
        <ele>440</ele>
        <time>2018-06-03T07:48:22.000Z</time>
      </trkpt>
      <trkpt lat="44.5585" lon="4.24417">
        <ele>440</ele>
        <time>2018-06-03T07:48:23.000Z</time>
      </trkpt>
      <trkpt lat="44.55851" lon="4.24417">
        <ele>440</ele>
        <time>2018-06-03T07:48:24.000Z</time>
      </trkpt>
      <trkpt lat="44.55851" lon="4.24418">
        <ele>440</ele>
        <time>2018-06-03T07:48:25.000Z</time>
      </trkpt>
      <trkpt lat="44.5585" lon="4.24418">
        <ele>440</ele>
        <time>2018-06-03T07:48:26.000Z</time>
      </trkpt>
      <trkpt lat="44.5585" lon="4.24419">
        <ele>440</ele>
        <time>2018-06-03T07:48:27.000Z</time>
      </trkpt>
      <trkpt lat="44.55851" lon="4.24419">
        <ele>440</ele>
        <time>2018-06-03T07:48:28.000Z</time>
      </trkpt>
      <trkpt lat="44.55851" lon="4.24419">
        <ele>440</ele>
        <time>2018-06-03T07:48:29.000Z</time>
      </trkpt>
      <trkpt lat="44.55851" lon="4.24419">
        <ele>440</ele>
        <time>2018-06-03T07:48:30.000Z</time>
      </trkpt>
      <trkpt lat="44.55851" lon="4.2442">
        <ele>440</ele>
        <time>2018-06-03T07:48:31.000Z</time>
      </trkpt>
      <trkpt lat="44.55851" lon="4.24421">
        <ele>440</ele>
        <time>2018-06-03T07:48:32.000Z</time>
      </trkpt>
      <trkpt lat="44.55852" lon="4.24422">
        <ele>440</ele>
        <time>2018-06-03T07:48:33.000Z</time>
      </trkpt>
      <trkpt lat="44.55852" lon="4.24424">
        <ele>440</ele>
        <time>2018-06-03T07:48:34.000Z</time>
      </trkpt>
      <trkpt lat="44.55853" lon="4.24426">
        <ele>440</ele>
        <time>2018-06-03T07:48:35.000Z</time>
      </trkpt>
      <trkpt lat="44.55855" lon="4.24429">
        <ele>440</ele>
        <time>2018-06-03T07:48:36.000Z</time>
      </trkpt>
      <trkpt lat="44.55855" lon="4.24432">
        <ele>440</ele>
        <time>2018-06-03T07:48:37.000Z</time>
      </trkpt>
      <trkpt lat="44.55856" lon="4.24434">
        <ele>440</ele>
        <time>2018-06-03T07:48:38.000Z</time>
      </trkpt>
      <trkpt lat="44.55857" lon="4.24437">
        <ele>440</ele>
        <time>2018-06-03T07:48:39.000Z</time>
      </trkpt>
      <trkpt lat="44.55857" lon="4.24441">
        <ele>440</ele>
        <time>2018-06-03T07:48:40.000Z</time>
      </trkpt>
      <trkpt lat="44.55856" lon="4.24445">
        <ele>440</ele>
        <time>2018-06-03T07:48:41.000Z</time>
      </trkpt>
      <trkpt lat="44.55856" lon="4.2445">
        <ele>440</ele>
        <time>2018-06-03T07:48:42.000Z</time>
      </trkpt>
      <trkpt lat="44.55856" lon="4.24455">
        <ele>441</ele>
        <time>2018-06-03T07:48:43.000Z</time>
      </trkpt>
      <trkpt lat="44.55855" lon="4.2446">
        <ele>441</ele>
        <time>2018-06-03T07:48:44.000Z</time>
      </trkpt>
      <trkpt lat="44.55855" lon="4.24465">
        <ele>442</ele>
        <time>2018-06-03T07:48:45.000Z</time>
      </trkpt>
      <trkpt lat="44.55854" lon="4.2447">
        <ele>443</ele>
        <time>2018-06-03T07:48:46.000Z</time>
      </trkpt>
      <trkpt lat="44.55854" lon="4.24475">
        <ele>443</ele>
        <time>2018-06-03T07:48:47.000Z</time>
      </trkpt>
      <trkpt lat="44.55853" lon="4.2448">
        <ele>445</ele>
        <time>2018-06-03T07:48:48.000Z</time>
      </trkpt>
      <trkpt lat="44.55853" lon="4.24485">
        <ele>445</ele>
        <time>2018-06-03T07:48:49.000Z</time>
      </trkpt>
      <trkpt lat="44.55852" lon="4.2449">
        <ele>447</ele>
        <time>2018-06-03T07:48:50.000Z</time>
      </trkpt>
      <trkpt lat="44.55852" lon="4.24495">
        <ele>447</ele>
        <time>2018-06-03T07:48:51.000Z</time>
      </trkpt>
      <trkpt lat="44.55851" lon="4.24499">
        <ele>448</ele>
        <time>2018-06-03T07:48:52.000Z</time>
      </trkpt>
      <trkpt lat="44.5585" lon="4.24504">
        <ele>454</ele>
        <time>2018-06-03T07:48:53.000Z</time>
      </trkpt>
      <trkpt lat="44.5585" lon="4.24508">
        <ele>454</ele>
        <time>2018-06-03T07:48:54.000Z</time>
      </trkpt>
      <trkpt lat="44.5585" lon="4.24513">
        <ele>454</ele>
        <time>2018-06-03T07:48:55.000Z</time>
      </trkpt>
      <trkpt lat="44.5585" lon="4.24519">
        <ele>454</ele>
        <time>2018-06-03T07:48:56.000Z</time>
      </trkpt>
      <trkpt lat="44.55851" lon="4.24524">
        <ele>454</ele>
        <time>2018-06-03T07:48:57.000Z</time>
      </trkpt>
      <trkpt lat="44.55852" lon="4.24528">
        <ele>454</ele>
        <time>2018-06-03T07:48:58.000Z</time>
      </trkpt>
      <trkpt lat="44.55854" lon="4.24531">
        <ele>454</ele>
        <time>2018-06-03T07:48:59.000Z</time>
      </trkpt>
      <trkpt lat="44.55857" lon="4.24534">
        <ele>454</ele>
        <time>2018-06-03T07:49:00.000Z</time>
      </trkpt>
      <trkpt lat="44.55859" lon="4.24536">
        <ele>454</ele>
        <time>2018-06-03T07:49:01.000Z</time>
      </trkpt>
      <trkpt lat="44.55861" lon="4.24538">
        <ele>454</ele>
        <time>2018-06-03T07:49:02.000Z</time>
      </trkpt>
      <trkpt lat="44.55864" lon="4.2454">
        <ele>453</ele>
        <time>2018-06-03T07:49:03.000Z</time>
      </trkpt>
      <trkpt lat="44.55866" lon="4.24541">
        <ele>453</ele>
        <time>2018-06-03T07:49:04.000Z</time>
      </trkpt>
      <trkpt lat="44.55868" lon="4.24543">
        <ele>453</ele>
        <time>2018-06-03T07:49:05.000Z</time>
      </trkpt>
      <trkpt lat="44.5587" lon="4.24545">
        <ele>453</ele>
        <time>2018-06-03T07:49:06.000Z</time>
      </trkpt>
      <trkpt lat="44.55872" lon="4.24546">
        <ele>453</ele>
        <time>2018-06-03T07:49:07.000Z</time>
      </trkpt>
      <trkpt lat="44.55874" lon="4.24547">
        <ele>453</ele>
        <time>2018-06-03T07:49:08.000Z</time>
      </trkpt>
      <trkpt lat="44.55876" lon="4.24548">
        <ele>452</ele>
        <time>2018-06-03T07:49:09.000Z</time>
      </trkpt>
      <trkpt lat="44.55878" lon="4.24548">
        <ele>452</ele>
        <time>2018-06-03T07:49:10.000Z</time>
      </trkpt>
      <trkpt lat="44.5588" lon="4.24549">
        <ele>452</ele>
        <time>2018-06-03T07:49:11.000Z</time>
      </trkpt>
      <trkpt lat="44.55882" lon="4.2455">
        <ele>452</ele>
        <time>2018-06-03T07:49:12.000Z</time>
      </trkpt>
      <trkpt lat="44.55884" lon="4.24551">
        <ele>452</ele>
        <time>2018-06-03T07:49:13.000Z</time>
      </trkpt>
      <trkpt lat="44.55886" lon="4.24551">
        <ele>451</ele>
        <time>2018-06-03T07:49:14.000Z</time>
      </trkpt>
      <trkpt lat="44.55887" lon="4.24552">
        <ele>451</ele>
        <time>2018-06-03T07:49:15.000Z</time>
      </trkpt>
      <trkpt lat="44.55889" lon="4.24554">
        <ele>451</ele>
        <time>2018-06-03T07:49:16.000Z</time>
      </trkpt>
      <trkpt lat="44.55891" lon="4.24555">
        <ele>451</ele>
        <time>2018-06-03T07:49:17.000Z</time>
      </trkpt>
      <trkpt lat="44.55893" lon="4.24556">
        <ele>451</ele>
        <time>2018-06-03T07:49:18.000Z</time>
      </trkpt>
      <trkpt lat="44.55895" lon="4.24557">
        <ele>451</ele>
        <time>2018-06-03T07:49:19.000Z</time>
      </trkpt>
      <trkpt lat="44.55896" lon="4.24558">
        <ele>451</ele>
        <time>2018-06-03T07:49:20.000Z</time>
      </trkpt>
      <trkpt lat="44.55897" lon="4.2456">
        <ele>451</ele>
        <time>2018-06-03T07:49:21.000Z</time>
      </trkpt>
      <trkpt lat="44.55899" lon="4.24561">
        <ele>451</ele>
        <time>2018-06-03T07:49:22.000Z</time>
      </trkpt>
      <trkpt lat="44.559" lon="4.24563">
        <ele>451</ele>
        <time>2018-06-03T07:49:23.000Z</time>
      </trkpt>
      <trkpt lat="44.55902" lon="4.24565">
        <ele>451</ele>
        <time>2018-06-03T07:49:24.000Z</time>
      </trkpt>
      <trkpt lat="44.55904" lon="4.24566">
        <ele>451</ele>
        <time>2018-06-03T07:49:25.000Z</time>
      </trkpt>
      <trkpt lat="44.55905" lon="4.24568">
        <ele>451</ele>
        <time>2018-06-03T07:49:26.000Z</time>
      </trkpt>
      <trkpt lat="44.55907" lon="4.24571">
        <ele>451</ele>
        <time>2018-06-03T07:49:27.000Z</time>
      </trkpt>
      <trkpt lat="44.55909" lon="4.24573">
        <ele>451</ele>
        <time>2018-06-03T07:49:28.000Z</time>
      </trkpt>
      <trkpt lat="44.5591" lon="4.24576">
        <ele>451</ele>
        <time>2018-06-03T07:49:29.000Z</time>
      </trkpt>
      <trkpt lat="44.55912" lon="4.24579">
        <ele>450</ele>
        <time>2018-06-03T07:49:30.000Z</time>
      </trkpt>
      <trkpt lat="44.55913" lon="4.24582">
        <ele>450</ele>
        <time>2018-06-03T07:49:31.000Z</time>
      </trkpt>
      <trkpt lat="44.55914" lon="4.24585">
        <ele>452</ele>
        <time>2018-06-03T07:49:32.000Z</time>
      </trkpt>
      <trkpt lat="44.55915" lon="4.24587">
        <ele>453</ele>
        <time>2018-06-03T07:49:33.000Z</time>
      </trkpt>
      <trkpt lat="44.55917" lon="4.2459">
        <ele>449</ele>
        <time>2018-06-03T07:49:34.000Z</time>
      </trkpt>
      <trkpt lat="44.55917" lon="4.24593">
        <ele>448</ele>
        <time>2018-06-03T07:49:35.000Z</time>
      </trkpt>
      <trkpt lat="44.55918" lon="4.24595">
        <ele>448</ele>
        <time>2018-06-03T07:49:36.000Z</time>
      </trkpt>
      <trkpt lat="44.55919" lon="4.24598">
        <ele>448</ele>
        <time>2018-06-03T07:49:37.000Z</time>
      </trkpt>
      <trkpt lat="44.5592" lon="4.24601">
        <ele>447</ele>
        <time>2018-06-03T07:49:38.000Z</time>
      </trkpt>
      <trkpt lat="44.55921" lon="4.24603">
        <ele>447</ele>
        <time>2018-06-03T07:49:39.000Z</time>
      </trkpt>
      <trkpt lat="44.55923" lon="4.24606">
        <ele>447</ele>
        <time>2018-06-03T07:49:40.000Z</time>
      </trkpt>
      <trkpt lat="44.55925" lon="4.2461">
        <ele>447</ele>
        <time>2018-06-03T07:49:41.000Z</time>
      </trkpt>
      <trkpt lat="44.55926" lon="4.24613">
        <ele>447</ele>
        <time>2018-06-03T07:49:42.000Z</time>
      </trkpt>
      <trkpt lat="44.55927" lon="4.24615">
        <ele>447</ele>
        <time>2018-06-03T07:49:43.000Z</time>
      </trkpt>
      <trkpt lat="44.55929" lon="4.24618">
        <ele>447</ele>
        <time>2018-06-03T07:49:44.000Z</time>
      </trkpt>
      <trkpt lat="44.5593" lon="4.24621">
        <ele>447</ele>
        <time>2018-06-03T07:49:45.000Z</time>
      </trkpt>
      <trkpt lat="44.55931" lon="4.24624">
        <ele>447</ele>
        <time>2018-06-03T07:49:46.000Z</time>
      </trkpt>
      <trkpt lat="44.55932" lon="4.24628">
        <ele>447</ele>
        <time>2018-06-03T07:49:47.000Z</time>
      </trkpt>
      <trkpt lat="44.55933" lon="4.24632">
        <ele>448</ele>
        <time>2018-06-03T07:49:48.000Z</time>
      </trkpt>
      <trkpt lat="44.55934" lon="4.24635">
        <ele>448</ele>
        <time>2018-06-03T07:49:49.000Z</time>
      </trkpt>
      <trkpt lat="44.55934" lon="4.24639">
        <ele>448</ele>
        <time>2018-06-03T07:49:50.000Z</time>
      </trkpt>
      <trkpt lat="44.55935" lon="4.24642">
        <ele>449</ele>
        <time>2018-06-03T07:49:51.000Z</time>
      </trkpt>
      <trkpt lat="44.55935" lon="4.24646">
        <ele>449</ele>
        <time>2018-06-03T07:49:52.000Z</time>
      </trkpt>
      <trkpt lat="44.55936" lon="4.2465">
        <ele>450</ele>
        <time>2018-06-03T07:49:53.000Z</time>
      </trkpt>
      <trkpt lat="44.55937" lon="4.24655">
        <ele>450</ele>
        <time>2018-06-03T07:49:54.000Z</time>
      </trkpt>
      <trkpt lat="44.55938" lon="4.2466">
        <ele>451</ele>
        <time>2018-06-03T07:49:55.000Z</time>
      </trkpt>
      <trkpt lat="44.55939" lon="4.24665">
        <ele>451</ele>
        <time>2018-06-03T07:49:56.000Z</time>
      </trkpt>
      <trkpt lat="44.55939" lon="4.24671">
        <ele>455</ele>
        <time>2018-06-03T07:49:57.000Z</time>
      </trkpt>
      <trkpt lat="44.55939" lon="4.24677">
        <ele>455</ele>
        <time>2018-06-03T07:49:58.000Z</time>
      </trkpt>
      <trkpt lat="44.55938" lon="4.24684">
        <ele>455</ele>
        <time>2018-06-03T07:49:59.000Z</time>
      </trkpt>
      <trkpt lat="44.55936" lon="4.24691">
        <ele>455</ele>
        <time>2018-06-03T07:50:00.000Z</time>
      </trkpt>
      <trkpt lat="44.55934" lon="4.24697">
        <ele>455</ele>
        <time>2018-06-03T07:50:01.000Z</time>
      </trkpt>
      <trkpt lat="44.55933" lon="4.24704">
        <ele>456</ele>
        <time>2018-06-03T07:50:02.000Z</time>
      </trkpt>
      <trkpt lat="44.55933" lon="4.2471">
        <ele>456</ele>
        <time>2018-06-03T07:50:03.000Z</time>
      </trkpt>
      <trkpt lat="44.55935" lon="4.24715">
        <ele>456</ele>
        <time>2018-06-03T07:50:04.000Z</time>
      </trkpt>
      <trkpt lat="44.55938" lon="4.24718">
        <ele>456</ele>
        <time>2018-06-03T07:50:05.000Z</time>
      </trkpt>
      <trkpt lat="44.55941" lon="4.24721">
        <ele>456</ele>
        <time>2018-06-03T07:50:06.000Z</time>
      </trkpt>
      <trkpt lat="44.55944" lon="4.24722">
        <ele>455</ele>
        <time>2018-06-03T07:50:07.000Z</time>
      </trkpt>
      <trkpt lat="44.55948" lon="4.24723">
        <ele>455</ele>
        <time>2018-06-03T07:50:08.000Z</time>
      </trkpt>
      <trkpt lat="44.55952" lon="4.24724">
        <ele>454</ele>
        <time>2018-06-03T07:50:09.000Z</time>
      </trkpt>
      <trkpt lat="44.55956" lon="4.24726">
        <ele>454</ele>
        <time>2018-06-03T07:50:10.000Z</time>
      </trkpt>
      <trkpt lat="44.5596" lon="4.24727">
        <ele>453</ele>
        <time>2018-06-03T07:50:11.000Z</time>
      </trkpt>
      <trkpt lat="44.55963" lon="4.24729">
        <ele>453</ele>
        <time>2018-06-03T07:50:12.000Z</time>
      </trkpt>
      <trkpt lat="44.55967" lon="4.24733">
        <ele>452</ele>
        <time>2018-06-03T07:50:13.000Z</time>
      </trkpt>
      <trkpt lat="44.55969" lon="4.24738">
        <ele>452</ele>
        <time>2018-06-03T07:50:14.000Z</time>
      </trkpt>
      <trkpt lat="44.55972" lon="4.24742">
        <ele>452</ele>
        <time>2018-06-03T07:50:15.000Z</time>
      </trkpt>
      <trkpt lat="44.55975" lon="4.24747">
        <ele>451</ele>
        <time>2018-06-03T07:50:16.000Z</time>
      </trkpt>
      <trkpt lat="44.55977" lon="4.24752">
        <ele>453</ele>
        <time>2018-06-03T07:50:17.000Z</time>
      </trkpt>
      <trkpt lat="44.5598" lon="4.24756">
        <ele>453</ele>
        <time>2018-06-03T07:50:18.000Z</time>
      </trkpt>
      <trkpt lat="44.55983" lon="4.2476">
        <ele>453</ele>
        <time>2018-06-03T07:50:19.000Z</time>
      </trkpt>
      <trkpt lat="44.55985" lon="4.24764">
        <ele>453</ele>
        <time>2018-06-03T07:50:20.000Z</time>
      </trkpt>
      <trkpt lat="44.55988" lon="4.24768">
        <ele>453</ele>
        <time>2018-06-03T07:50:21.000Z</time>
      </trkpt>
      <trkpt lat="44.55991" lon="4.24772">
        <ele>453</ele>
        <time>2018-06-03T07:50:22.000Z</time>
      </trkpt>
      <trkpt lat="44.55994" lon="4.24775">
        <ele>453</ele>
        <time>2018-06-03T07:50:23.000Z</time>
      </trkpt>
      <trkpt lat="44.55998" lon="4.24777">
        <ele>453</ele>
        <time>2018-06-03T07:50:24.000Z</time>
      </trkpt>
      <trkpt lat="44.56001" lon="4.24779">
        <ele>448</ele>
        <time>2018-06-03T07:50:25.000Z</time>
      </trkpt>
      <trkpt lat="44.56004" lon="4.24783">
        <ele>448</ele>
        <time>2018-06-03T07:50:26.000Z</time>
      </trkpt>
      <trkpt lat="44.56007" lon="4.24786">
        <ele>448</ele>
        <time>2018-06-03T07:50:27.000Z</time>
      </trkpt>
      <trkpt lat="44.56011" lon="4.2479">
        <ele>448</ele>
        <time>2018-06-03T07:50:28.000Z</time>
      </trkpt>
      <trkpt lat="44.56015" lon="4.24793">
        <ele>448</ele>
        <time>2018-06-03T07:50:29.000Z</time>
      </trkpt>
      <trkpt lat="44.56019" lon="4.24796">
        <ele>448</ele>
        <time>2018-06-03T07:50:30.000Z</time>
      </trkpt>
      <trkpt lat="44.56023" lon="4.24798">
        <ele>448</ele>
        <time>2018-06-03T07:50:31.000Z</time>
      </trkpt>
      <trkpt lat="44.56028" lon="4.248">
        <ele>448</ele>
        <time>2018-06-03T07:50:32.000Z</time>
      </trkpt>
      <trkpt lat="44.56033" lon="4.24802">
        <ele>448</ele>
        <time>2018-06-03T07:50:33.000Z</time>
      </trkpt>
      <trkpt lat="44.56039" lon="4.24803">
        <ele>448</ele>
        <time>2018-06-03T07:50:34.000Z</time>
      </trkpt>
      <trkpt lat="44.56044" lon="4.24803">
        <ele>448</ele>
        <time>2018-06-03T07:50:35.000Z</time>
      </trkpt>
      <trkpt lat="44.5605" lon="4.24803">
        <ele>448</ele>
        <time>2018-06-03T07:50:36.000Z</time>
      </trkpt>
      <trkpt lat="44.56056" lon="4.24803">
        <ele>448</ele>
        <time>2018-06-03T07:50:37.000Z</time>
      </trkpt>
      <trkpt lat="44.56062" lon="4.24802">
        <ele>448</ele>
        <time>2018-06-03T07:50:38.000Z</time>
      </trkpt>
      <trkpt lat="44.56069" lon="4.24802">
        <ele>448</ele>
        <time>2018-06-03T07:50:39.000Z</time>
      </trkpt>
      <trkpt lat="44.56075" lon="4.24801">
        <ele>448</ele>
        <time>2018-06-03T07:50:40.000Z</time>
      </trkpt>
      <trkpt lat="44.56081" lon="4.24801">
        <ele>448</ele>
        <time>2018-06-03T07:50:41.000Z</time>
      </trkpt>
      <trkpt lat="44.56086" lon="4.248">
        <ele>447</ele>
        <time>2018-06-03T07:50:42.000Z</time>
      </trkpt>
      <trkpt lat="44.56092" lon="4.24798">
        <ele>447</ele>
        <time>2018-06-03T07:50:43.000Z</time>
      </trkpt>
      <trkpt lat="44.56099" lon="4.24797">
        <ele>447</ele>
        <time>2018-06-03T07:50:44.000Z</time>
      </trkpt>
      <trkpt lat="44.56105" lon="4.24795">
        <ele>447</ele>
        <time>2018-06-03T07:50:45.000Z</time>
      </trkpt>
      <trkpt lat="44.56111" lon="4.24795">
        <ele>447</ele>
        <time>2018-06-03T07:50:46.000Z</time>
      </trkpt>
      <trkpt lat="44.56118" lon="4.24795">
        <ele>446</ele>
        <time>2018-06-03T07:50:47.000Z</time>
      </trkpt>
      <trkpt lat="44.56124" lon="4.24796">
        <ele>446</ele>
        <time>2018-06-03T07:50:48.000Z</time>
      </trkpt>
      <trkpt lat="44.5613" lon="4.24796">
        <ele>446</ele>
        <time>2018-06-03T07:50:49.000Z</time>
      </trkpt>
      <trkpt lat="44.56136" lon="4.24795">
        <ele>446</ele>
        <time>2018-06-03T07:50:50.000Z</time>
      </trkpt>
      <trkpt lat="44.56142" lon="4.24793">
        <ele>446</ele>
        <time>2018-06-03T07:50:51.000Z</time>
      </trkpt>
      <trkpt lat="44.56148" lon="4.24791">
        <ele>446</ele>
        <time>2018-06-03T07:50:52.000Z</time>
      </trkpt>
      <trkpt lat="44.56155" lon="4.24789">
        <ele>446</ele>
        <time>2018-06-03T07:50:53.000Z</time>
      </trkpt>
      <trkpt lat="44.56163" lon="4.24787">
        <ele>446</ele>
        <time>2018-06-03T07:50:54.000Z</time>
      </trkpt>
      <trkpt lat="44.5617" lon="4.24785">
        <ele>446</ele>
        <time>2018-06-03T07:50:55.000Z</time>
      </trkpt>
      <trkpt lat="44.56178" lon="4.24783">
        <ele>446</ele>
        <time>2018-06-03T07:50:56.000Z</time>
      </trkpt>
      <trkpt lat="44.56185" lon="4.24782">
        <ele>446</ele>
        <time>2018-06-03T07:50:57.000Z</time>
      </trkpt>
      <trkpt lat="44.56192" lon="4.24781">
        <ele>446</ele>
        <time>2018-06-03T07:50:58.000Z</time>
      </trkpt>
      <trkpt lat="44.56198" lon="4.24782">
        <ele>446</ele>
        <time>2018-06-03T07:50:59.000Z</time>
      </trkpt>
      <trkpt lat="44.56203" lon="4.24786">
        <ele>446</ele>
        <time>2018-06-03T07:51:00.000Z</time>
      </trkpt>
      <trkpt lat="44.56207" lon="4.24791">
        <ele>446</ele>
        <time>2018-06-03T07:51:01.000Z</time>
      </trkpt>
      <trkpt lat="44.56209" lon="4.24798">
        <ele>445</ele>
        <time>2018-06-03T07:51:02.000Z</time>
      </trkpt>
      <trkpt lat="44.56211" lon="4.24804">
        <ele>445</ele>
        <time>2018-06-03T07:51:03.000Z</time>
      </trkpt>
      <trkpt lat="44.56212" lon="4.2481">
        <ele>445</ele>
        <time>2018-06-03T07:51:04.000Z</time>
      </trkpt>
      <trkpt lat="44.56214" lon="4.24815">
        <ele>445</ele>
        <time>2018-06-03T07:51:05.000Z</time>
      </trkpt>
      <trkpt lat="44.56215" lon="4.24821">
        <ele>445</ele>
        <time>2018-06-03T07:51:06.000Z</time>
      </trkpt>
      <trkpt lat="44.56217" lon="4.24827">
        <ele>445</ele>
        <time>2018-06-03T07:51:07.000Z</time>
      </trkpt>
      <trkpt lat="44.56218" lon="4.24832">
        <ele>445</ele>
        <time>2018-06-03T07:51:08.000Z</time>
      </trkpt>
      <trkpt lat="44.56221" lon="4.24836">
        <ele>440</ele>
        <time>2018-06-03T07:51:09.000Z</time>
      </trkpt>
      <trkpt lat="44.56223" lon="4.24839">
        <ele>440</ele>
        <time>2018-06-03T07:51:10.000Z</time>
      </trkpt>
      <trkpt lat="44.56226" lon="4.24842">
        <ele>441</ele>
        <time>2018-06-03T07:51:11.000Z</time>
      </trkpt>
      <trkpt lat="44.56229" lon="4.24844">
        <ele>441</ele>
        <time>2018-06-03T07:51:12.000Z</time>
      </trkpt>
      <trkpt lat="44.56232" lon="4.24845">
        <ele>441</ele>
        <time>2018-06-03T07:51:13.000Z</time>
      </trkpt>
      <trkpt lat="44.56235" lon="4.24846">
        <ele>442</ele>
        <time>2018-06-03T07:51:14.000Z</time>
      </trkpt>
      <trkpt lat="44.56238" lon="4.24847">
        <ele>442</ele>
        <time>2018-06-03T07:51:15.000Z</time>
      </trkpt>
      <trkpt lat="44.5624" lon="4.24847">
        <ele>442</ele>
        <time>2018-06-03T07:51:16.000Z</time>
      </trkpt>
      <trkpt lat="44.56242" lon="4.24847">
        <ele>442</ele>
        <time>2018-06-03T07:51:17.000Z</time>
      </trkpt>
      <trkpt lat="44.56242" lon="4.24846">
        <ele>442</ele>
        <time>2018-06-03T07:51:18.000Z</time>
      </trkpt>
      <trkpt lat="44.56241" lon="4.24844">
        <ele>443</ele>
        <time>2018-06-03T07:51:19.000Z</time>
      </trkpt>
      <trkpt lat="44.5624" lon="4.24845">
        <ele>442</ele>
        <time>2018-06-03T07:51:20.000Z</time>
      </trkpt>
      <trkpt lat="44.56237" lon="4.24845">
        <ele>442</ele>
        <time>2018-06-03T07:51:21.000Z</time>
      </trkpt>
      <trkpt lat="44.56234" lon="4.24845">
        <ele>441</ele>
        <time>2018-06-03T07:51:22.000Z</time>
      </trkpt>
      <trkpt lat="44.56231" lon="4.24845">
        <ele>441</ele>
        <time>2018-06-03T07:51:23.000Z</time>
      </trkpt>
      <trkpt lat="44.56227" lon="4.24844">
        <ele>441</ele>
        <time>2018-06-03T07:51:24.000Z</time>
      </trkpt>
      <trkpt lat="44.56224" lon="4.24841">
        <ele>440</ele>
        <time>2018-06-03T07:51:25.000Z</time>
      </trkpt>
      <trkpt lat="44.56221" lon="4.24837">
        <ele>440</ele>
        <time>2018-06-03T07:51:26.000Z</time>
      </trkpt>
      <trkpt lat="44.56219" lon="4.24832">
        <ele>445</ele>
        <time>2018-06-03T07:51:27.000Z</time>
      </trkpt>
      <trkpt lat="44.56217" lon="4.24826">
        <ele>445</ele>
        <time>2018-06-03T07:51:28.000Z</time>
      </trkpt>
      <trkpt lat="44.56215" lon="4.2482">
        <ele>445</ele>
        <time>2018-06-03T07:51:29.000Z</time>
      </trkpt>
      <trkpt lat="44.56214" lon="4.24814">
        <ele>445</ele>
        <time>2018-06-03T07:51:30.000Z</time>
      </trkpt>
      <trkpt lat="44.56212" lon="4.24807">
        <ele>445</ele>
        <time>2018-06-03T07:51:31.000Z</time>
      </trkpt>
      <trkpt lat="44.5621" lon="4.24801">
        <ele>445</ele>
        <time>2018-06-03T07:51:32.000Z</time>
      </trkpt>
      <trkpt lat="44.56208" lon="4.24794">
        <ele>446</ele>
        <time>2018-06-03T07:51:33.000Z</time>
      </trkpt>
      <trkpt lat="44.56205" lon="4.24789">
        <ele>446</ele>
        <time>2018-06-03T07:51:34.000Z</time>
      </trkpt>
      <trkpt lat="44.56203" lon="4.24784">
        <ele>446</ele>
        <time>2018-06-03T07:51:35.000Z</time>
      </trkpt>
      <trkpt lat="44.56201" lon="4.24778">
        <ele>446</ele>
        <time>2018-06-03T07:51:36.000Z</time>
      </trkpt>
      <trkpt lat="44.562" lon="4.24773">
        <ele>447</ele>
        <time>2018-06-03T07:51:37.000Z</time>
      </trkpt>
      <trkpt lat="44.562" lon="4.24768">
        <ele>447</ele>
        <time>2018-06-03T07:51:38.000Z</time>
      </trkpt>
      <trkpt lat="44.56199" lon="4.24763">
        <ele>447</ele>
        <time>2018-06-03T07:51:39.000Z</time>
      </trkpt>
      <trkpt lat="44.56199" lon="4.24759">
        <ele>447</ele>
        <time>2018-06-03T07:51:40.000Z</time>
      </trkpt>
      <trkpt lat="44.56199" lon="4.24753">
        <ele>447</ele>
        <time>2018-06-03T07:51:41.000Z</time>
      </trkpt>
      <trkpt lat="44.562" lon="4.24747">
        <ele>450</ele>
        <time>2018-06-03T07:51:42.000Z</time>
      </trkpt>
      <trkpt lat="44.56201" lon="4.24741">
        <ele>450</ele>
        <time>2018-06-03T07:51:43.000Z</time>
      </trkpt>
      <trkpt lat="44.56202" lon="4.24735">
        <ele>450</ele>
        <time>2018-06-03T07:51:44.000Z</time>
      </trkpt>
      <trkpt lat="44.56204" lon="4.24729">
        <ele>450</ele>
        <time>2018-06-03T07:51:45.000Z</time>
      </trkpt>
      <trkpt lat="44.56206" lon="4.24722">
        <ele>450</ele>
        <time>2018-06-03T07:51:46.000Z</time>
      </trkpt>
      <trkpt lat="44.56206" lon="4.24715">
        <ele>450</ele>
        <time>2018-06-03T07:51:47.000Z</time>
      </trkpt>
      <trkpt lat="44.56208" lon="4.24708">
        <ele>450</ele>
        <time>2018-06-03T07:51:48.000Z</time>
      </trkpt>
      <trkpt lat="44.56209" lon="4.24702">
        <ele>449</ele>
        <time>2018-06-03T07:51:49.000Z</time>
      </trkpt>
      <trkpt lat="44.56211" lon="4.24695">
        <ele>449</ele>
        <time>2018-06-03T07:51:50.000Z</time>
      </trkpt>
      <trkpt lat="44.56214" lon="4.24686">
        <ele>449</ele>
        <time>2018-06-03T07:51:51.000Z</time>
      </trkpt>
      <trkpt lat="44.56216" lon="4.24677">
        <ele>449</ele>
        <time>2018-06-03T07:51:52.000Z</time>
      </trkpt>
      <trkpt lat="44.56218" lon="4.24668">
        <ele>448</ele>
        <time>2018-06-03T07:51:53.000Z</time>
      </trkpt>
      <trkpt lat="44.56219" lon="4.24659">
        <ele>447</ele>
        <time>2018-06-03T07:51:54.000Z</time>
      </trkpt>
      <trkpt lat="44.5622" lon="4.24649">
        <ele>446</ele>
        <time>2018-06-03T07:51:55.000Z</time>
      </trkpt>
      <trkpt lat="44.56221" lon="4.24641">
        <ele>446</ele>
        <time>2018-06-03T07:51:56.000Z</time>
      </trkpt>
      <trkpt lat="44.56223" lon="4.24633">
        <ele>446</ele>
        <time>2018-06-03T07:51:57.000Z</time>
      </trkpt>
      <trkpt lat="44.56225" lon="4.24623">
        <ele>445</ele>
        <time>2018-06-03T07:51:58.000Z</time>
      </trkpt>
      <trkpt lat="44.56226" lon="4.24612">
        <ele>445</ele>
        <time>2018-06-03T07:51:59.000Z</time>
      </trkpt>
      <trkpt lat="44.56227" lon="4.246">
        <ele>444</ele>
        <time>2018-06-03T07:52:00.000Z</time>
      </trkpt>
      <trkpt lat="44.56226" lon="4.24588">
        <ele>443</ele>
        <time>2018-06-03T07:52:01.000Z</time>
      </trkpt>
      <trkpt lat="44.56225" lon="4.24577">
        <ele>440</ele>
        <time>2018-06-03T07:52:02.000Z</time>
      </trkpt>
      <trkpt lat="44.56226" lon="4.24567">
        <ele>440</ele>
        <time>2018-06-03T07:52:03.000Z</time>
      </trkpt>
      <trkpt lat="44.56226" lon="4.24557">
        <ele>440</ele>
        <time>2018-06-03T07:52:04.000Z</time>
      </trkpt>
      <trkpt lat="44.56226" lon="4.24548">
        <ele>439</ele>
        <time>2018-06-03T07:52:05.000Z</time>
      </trkpt>
      <trkpt lat="44.56226" lon="4.24539">
        <ele>439</ele>
        <time>2018-06-03T07:52:06.000Z</time>
      </trkpt>
      <trkpt lat="44.56225" lon="4.24531">
        <ele>439</ele>
        <time>2018-06-03T07:52:07.000Z</time>
      </trkpt>
      <trkpt lat="44.56225" lon="4.24523">
        <ele>438</ele>
        <time>2018-06-03T07:52:08.000Z</time>
      </trkpt>
      <trkpt lat="44.56225" lon="4.24514">
        <ele>437</ele>
        <time>2018-06-03T07:52:09.000Z</time>
      </trkpt>
      <trkpt lat="44.56226" lon="4.24504">
        <ele>436</ele>
        <time>2018-06-03T07:52:10.000Z</time>
      </trkpt>
      <trkpt lat="44.56226" lon="4.24496">
        <ele>432</ele>
        <time>2018-06-03T07:52:11.000Z</time>
      </trkpt>
      <trkpt lat="44.56225" lon="4.24488">
        <ele>432</ele>
        <time>2018-06-03T07:52:12.000Z</time>
      </trkpt>
      <trkpt lat="44.56224" lon="4.2448">
        <ele>433</ele>
        <time>2018-06-03T07:52:13.000Z</time>
      </trkpt>
      <trkpt lat="44.56225" lon="4.24471">
        <ele>433</ele>
        <time>2018-06-03T07:52:14.000Z</time>
      </trkpt>
      <trkpt lat="44.56226" lon="4.24462">
        <ele>432</ele>
        <time>2018-06-03T07:52:15.000Z</time>
      </trkpt>
      <trkpt lat="44.56227" lon="4.24453">
        <ele>432</ele>
        <time>2018-06-03T07:52:16.000Z</time>
      </trkpt>
      <trkpt lat="44.56228" lon="4.24443">
        <ele>431</ele>
        <time>2018-06-03T07:52:17.000Z</time>
      </trkpt>
      <trkpt lat="44.56228" lon="4.24433">
        <ele>430</ele>
        <time>2018-06-03T07:52:18.000Z</time>
      </trkpt>
      <trkpt lat="44.56228" lon="4.24423">
        <ele>429</ele>
        <time>2018-06-03T07:52:19.000Z</time>
      </trkpt>
      <trkpt lat="44.56228" lon="4.24413">
        <ele>427</ele>
        <time>2018-06-03T07:52:20.000Z</time>
      </trkpt>
      <trkpt lat="44.56226" lon="4.24404">
        <ele>428</ele>
        <time>2018-06-03T07:52:21.000Z</time>
      </trkpt>
      <trkpt lat="44.56223" lon="4.24396">
        <ele>429</ele>
        <time>2018-06-03T07:52:22.000Z</time>
      </trkpt>
      <trkpt lat="44.56222" lon="4.24388">
        <ele>429</ele>
        <time>2018-06-03T07:52:23.000Z</time>
      </trkpt>
      <trkpt lat="44.56222" lon="4.24381">
        <ele>430</ele>
        <time>2018-06-03T07:52:24.000Z</time>
      </trkpt>
      <trkpt lat="44.56223" lon="4.24376">
        <ele>429</ele>
        <time>2018-06-03T07:52:25.000Z</time>
      </trkpt>
      <trkpt lat="44.56227" lon="4.24371">
        <ele>429</ele>
        <time>2018-06-03T07:52:26.000Z</time>
      </trkpt>
      <trkpt lat="44.5623" lon="4.24366">
        <ele>428</ele>
        <time>2018-06-03T07:52:27.000Z</time>
      </trkpt>
      <trkpt lat="44.56234" lon="4.24358">
        <ele>427</ele>
        <time>2018-06-03T07:52:28.000Z</time>
      </trkpt>
      <trkpt lat="44.56236" lon="4.2435">
        <ele>426</ele>
        <time>2018-06-03T07:52:29.000Z</time>
      </trkpt>
      <trkpt lat="44.5624" lon="4.24341">
        <ele>424</ele>
        <time>2018-06-03T07:52:30.000Z</time>
      </trkpt>
      <trkpt lat="44.56243" lon="4.24332">
        <ele>422</ele>
        <time>2018-06-03T07:52:31.000Z</time>
      </trkpt>
      <trkpt lat="44.56247" lon="4.24325">
        <ele>423</ele>
        <time>2018-06-03T07:52:32.000Z</time>
      </trkpt>
      <trkpt lat="44.56252" lon="4.24318">
        <ele>417</ele>
        <time>2018-06-03T07:52:33.000Z</time>
      </trkpt>
      <trkpt lat="44.56257" lon="4.24312">
        <ele>417</ele>
        <time>2018-06-03T07:52:34.000Z</time>
      </trkpt>
      <trkpt lat="44.56261" lon="4.24307">
        <ele>417</ele>
        <time>2018-06-03T07:52:35.000Z</time>
      </trkpt>
      <trkpt lat="44.56266" lon="4.24302">
        <ele>417</ele>
        <time>2018-06-03T07:52:36.000Z</time>
      </trkpt>
      <trkpt lat="44.5627" lon="4.24297">
        <ele>416</ele>
        <time>2018-06-03T07:52:37.000Z</time>
      </trkpt>
      <trkpt lat="44.56274" lon="4.24292">
        <ele>416</ele>
        <time>2018-06-03T07:52:38.000Z</time>
      </trkpt>
      <trkpt lat="44.56279" lon="4.24287">
        <ele>416</ele>
        <time>2018-06-03T07:52:39.000Z</time>
      </trkpt>
      <trkpt lat="44.56283" lon="4.24281">
        <ele>416</ele>
        <time>2018-06-03T07:52:40.000Z</time>
      </trkpt>
      <trkpt lat="44.56287" lon="4.24275">
        <ele>416</ele>
        <time>2018-06-03T07:52:41.000Z</time>
      </trkpt>
      <trkpt lat="44.56291" lon="4.24269">
        <ele>415</ele>
        <time>2018-06-03T07:52:42.000Z</time>
      </trkpt>
      <trkpt lat="44.56295" lon="4.24264">
        <ele>415</ele>
        <time>2018-06-03T07:52:43.000Z</time>
      </trkpt>
      <trkpt lat="44.56297" lon="4.24258">
        <ele>414</ele>
        <time>2018-06-03T07:52:44.000Z</time>
      </trkpt>
      <trkpt lat="44.56298" lon="4.24252">
        <ele>414</ele>
        <time>2018-06-03T07:52:45.000Z</time>
      </trkpt>
      <trkpt lat="44.56301" lon="4.24246">
        <ele>411</ele>
        <time>2018-06-03T07:52:46.000Z</time>
      </trkpt>
      <trkpt lat="44.56304" lon="4.24239">
        <ele>411</ele>
        <time>2018-06-03T07:52:47.000Z</time>
      </trkpt>
      <trkpt lat="44.56307" lon="4.24232">
        <ele>411</ele>
        <time>2018-06-03T07:52:48.000Z</time>
      </trkpt>
      <trkpt lat="44.5631" lon="4.24223">
        <ele>410</ele>
        <time>2018-06-03T07:52:49.000Z</time>
      </trkpt>
      <trkpt lat="44.56313" lon="4.24215">
        <ele>410</ele>
        <time>2018-06-03T07:52:50.000Z</time>
      </trkpt>
      <trkpt lat="44.56316" lon="4.24206">
        <ele>409</ele>
        <time>2018-06-03T07:52:51.000Z</time>
      </trkpt>
      <trkpt lat="44.56318" lon="4.24198">
        <ele>409</ele>
        <time>2018-06-03T07:52:52.000Z</time>
      </trkpt>
      <trkpt lat="44.56319" lon="4.2419">
        <ele>408</ele>
        <time>2018-06-03T07:52:53.000Z</time>
      </trkpt>
      <trkpt lat="44.5632" lon="4.24183">
        <ele>407</ele>
        <time>2018-06-03T07:52:54.000Z</time>
      </trkpt>
      <trkpt lat="44.5632" lon="4.24176">
        <ele>406</ele>
        <time>2018-06-03T07:52:55.000Z</time>
      </trkpt>
      <trkpt lat="44.56319" lon="4.2417">
        <ele>405</ele>
        <time>2018-06-03T07:52:56.000Z</time>
      </trkpt>
      <trkpt lat="44.56318" lon="4.24164">
        <ele>401</ele>
        <time>2018-06-03T07:52:57.000Z</time>
      </trkpt>
      <trkpt lat="44.56316" lon="4.24158">
        <ele>401</ele>
        <time>2018-06-03T07:52:58.000Z</time>
      </trkpt>
      <trkpt lat="44.56315" lon="4.2415">
        <ele>401</ele>
        <time>2018-06-03T07:52:59.000Z</time>
      </trkpt>
      <trkpt lat="44.56314" lon="4.24143">
        <ele>401</ele>
        <time>2018-06-03T07:53:00.000Z</time>
      </trkpt>
      <trkpt lat="44.56313" lon="4.24134">
        <ele>400</ele>
        <time>2018-06-03T07:53:01.000Z</time>
      </trkpt>
      <trkpt lat="44.56311" lon="4.24127">
        <ele>400</ele>
        <time>2018-06-03T07:53:02.000Z</time>
      </trkpt>
      <trkpt lat="44.56309" lon="4.24121">
        <ele>399</ele>
        <time>2018-06-03T07:53:03.000Z</time>
      </trkpt>
      <trkpt lat="44.56305" lon="4.24116">
        <ele>399</ele>
        <time>2018-06-03T07:53:04.000Z</time>
      </trkpt>
      <trkpt lat="44.56301" lon="4.24111">
        <ele>399</ele>
        <time>2018-06-03T07:53:05.000Z</time>
      </trkpt>
      <trkpt lat="44.56296" lon="4.24107">
        <ele>399</ele>
        <time>2018-06-03T07:53:06.000Z</time>
      </trkpt>
      <trkpt lat="44.56293" lon="4.24103">
        <ele>399</ele>
        <time>2018-06-03T07:53:07.000Z</time>
      </trkpt>
      <trkpt lat="44.56289" lon="4.24099">
        <ele>399</ele>
        <time>2018-06-03T07:53:08.000Z</time>
      </trkpt>
      <trkpt lat="44.56286" lon="4.24094">
        <ele>399</ele>
        <time>2018-06-03T07:53:09.000Z</time>
      </trkpt>
      <trkpt lat="44.56282" lon="4.2409">
        <ele>399</ele>
        <time>2018-06-03T07:53:10.000Z</time>
      </trkpt>
      <trkpt lat="44.5628" lon="4.24085">
        <ele>398</ele>
        <time>2018-06-03T07:53:11.000Z</time>
      </trkpt>
      <trkpt lat="44.56278" lon="4.2408">
        <ele>393</ele>
        <time>2018-06-03T07:53:12.000Z</time>
      </trkpt>
      <trkpt lat="44.56276" lon="4.24075">
        <ele>393</ele>
        <time>2018-06-03T07:53:13.000Z</time>
      </trkpt>
      <trkpt lat="44.56275" lon="4.2407">
        <ele>393</ele>
        <time>2018-06-03T07:53:14.000Z</time>
      </trkpt>
      <trkpt lat="44.56273" lon="4.24064">
        <ele>393</ele>
        <time>2018-06-03T07:53:15.000Z</time>
      </trkpt>
      <trkpt lat="44.56273" lon="4.24057">
        <ele>392</ele>
        <time>2018-06-03T07:53:16.000Z</time>
      </trkpt>
      <trkpt lat="44.56273" lon="4.24052">
        <ele>392</ele>
        <time>2018-06-03T07:53:17.000Z</time>
      </trkpt>
      <trkpt lat="44.56273" lon="4.24048">
        <ele>392</ele>
        <time>2018-06-03T07:53:18.000Z</time>
      </trkpt>
      <trkpt lat="44.56274" lon="4.24044">
        <ele>392</ele>
        <time>2018-06-03T07:53:19.000Z</time>
      </trkpt>
      <trkpt lat="44.56274" lon="4.2404">
        <ele>392</ele>
        <time>2018-06-03T07:53:20.000Z</time>
      </trkpt>
      <trkpt lat="44.56274" lon="4.24036">
        <ele>392</ele>
        <time>2018-06-03T07:53:21.000Z</time>
      </trkpt>
      <trkpt lat="44.56275" lon="4.24033">
        <ele>391</ele>
        <time>2018-06-03T07:53:22.000Z</time>
      </trkpt>
      <trkpt lat="44.56274" lon="4.2403">
        <ele>391</ele>
        <time>2018-06-03T07:53:23.000Z</time>
      </trkpt>
      <trkpt lat="44.56274" lon="4.24027">
        <ele>391</ele>
        <time>2018-06-03T07:53:24.000Z</time>
      </trkpt>
      <trkpt lat="44.56274" lon="4.24024">
        <ele>391</ele>
        <time>2018-06-03T07:53:25.000Z</time>
      </trkpt>
      <trkpt lat="44.56274" lon="4.24021">
        <ele>391</ele>
        <time>2018-06-03T07:53:26.000Z</time>
      </trkpt>
      <trkpt lat="44.56274" lon="4.24017">
        <ele>391</ele>
        <time>2018-06-03T07:53:27.000Z</time>
      </trkpt>
      <trkpt lat="44.56274" lon="4.24014">
        <ele>391</ele>
        <time>2018-06-03T07:53:28.000Z</time>
      </trkpt>
      <trkpt lat="44.56274" lon="4.24011">
        <ele>391</ele>
        <time>2018-06-03T07:53:29.000Z</time>
      </trkpt>
      <trkpt lat="44.56273" lon="4.24008">
        <ele>391</ele>
        <time>2018-06-03T07:53:30.000Z</time>
      </trkpt>
      <trkpt lat="44.56273" lon="4.24005">
        <ele>390</ele>
        <time>2018-06-03T07:53:31.000Z</time>
      </trkpt>
      <trkpt lat="44.56272" lon="4.24002">
        <ele>390</ele>
        <time>2018-06-03T07:53:32.000Z</time>
      </trkpt>
      <trkpt lat="44.56272" lon="4.23999">
        <ele>391</ele>
        <time>2018-06-03T07:53:33.000Z</time>
      </trkpt>
      <trkpt lat="44.56271" lon="4.23996">
        <ele>391</ele>
        <time>2018-06-03T07:53:34.000Z</time>
      </trkpt>
      <trkpt lat="44.56271" lon="4.23993">
        <ele>391</ele>
        <time>2018-06-03T07:53:35.000Z</time>
      </trkpt>
      <trkpt lat="44.5627" lon="4.2399">
        <ele>391</ele>
        <time>2018-06-03T07:53:36.000Z</time>
      </trkpt>
      <trkpt lat="44.5627" lon="4.23987">
        <ele>391</ele>
        <time>2018-06-03T07:53:37.000Z</time>
      </trkpt>
      <trkpt lat="44.56269" lon="4.23985">
        <ele>391</ele>
        <time>2018-06-03T07:53:38.000Z</time>
      </trkpt>
      <trkpt lat="44.56269" lon="4.23982">
        <ele>391</ele>
        <time>2018-06-03T07:53:39.000Z</time>
      </trkpt>
      <trkpt lat="44.56268" lon="4.2398">
        <ele>391</ele>
        <time>2018-06-03T07:53:40.000Z</time>
      </trkpt>
      <trkpt lat="44.56268" lon="4.23977">
        <ele>392</ele>
        <time>2018-06-03T07:53:41.000Z</time>
      </trkpt>
      <trkpt lat="44.56267" lon="4.23974">
        <ele>392</ele>
        <time>2018-06-03T07:53:42.000Z</time>
      </trkpt>
      <trkpt lat="44.56266" lon="4.23971">
        <ele>392</ele>
        <time>2018-06-03T07:53:43.000Z</time>
      </trkpt>
      <trkpt lat="44.56266" lon="4.23968">
        <ele>392</ele>
        <time>2018-06-03T07:53:44.000Z</time>
      </trkpt>
      <trkpt lat="44.56265" lon="4.23965">
        <ele>392</ele>
        <time>2018-06-03T07:53:45.000Z</time>
      </trkpt>
      <trkpt lat="44.56265" lon="4.23962">
        <ele>392</ele>
        <time>2018-06-03T07:53:46.000Z</time>
      </trkpt>
      <trkpt lat="44.56264" lon="4.2396">
        <ele>392</ele>
        <time>2018-06-03T07:53:47.000Z</time>
      </trkpt>
      <trkpt lat="44.56263" lon="4.23957">
        <ele>392</ele>
        <time>2018-06-03T07:53:48.000Z</time>
      </trkpt>
      <trkpt lat="44.56263" lon="4.23953">
        <ele>392</ele>
        <time>2018-06-03T07:53:49.000Z</time>
      </trkpt>
      <trkpt lat="44.56262" lon="4.2395">
        <ele>392</ele>
        <time>2018-06-03T07:53:50.000Z</time>
      </trkpt>
      <trkpt lat="44.56262" lon="4.23947">
        <ele>392</ele>
        <time>2018-06-03T07:53:51.000Z</time>
      </trkpt>
      <trkpt lat="44.56262" lon="4.23943">
        <ele>392</ele>
        <time>2018-06-03T07:53:52.000Z</time>
      </trkpt>
      <trkpt lat="44.56262" lon="4.2394">
        <ele>392</ele>
        <time>2018-06-03T07:53:53.000Z</time>
      </trkpt>
      <trkpt lat="44.56261" lon="4.23937">
        <ele>392</ele>
        <time>2018-06-03T07:53:54.000Z</time>
      </trkpt>
      <trkpt lat="44.56261" lon="4.23934">
        <ele>392</ele>
        <time>2018-06-03T07:53:55.000Z</time>
      </trkpt>
      <trkpt lat="44.5626" lon="4.23931">
        <ele>392</ele>
        <time>2018-06-03T07:53:56.000Z</time>
      </trkpt>
      <trkpt lat="44.56259" lon="4.23928">
        <ele>392</ele>
        <time>2018-06-03T07:53:57.000Z</time>
      </trkpt>
      <trkpt lat="44.56259" lon="4.23925">
        <ele>392</ele>
        <time>2018-06-03T07:53:58.000Z</time>
      </trkpt>
      <trkpt lat="44.56258" lon="4.23923">
        <ele>392</ele>
        <time>2018-06-03T07:53:59.000Z</time>
      </trkpt>
      <trkpt lat="44.56257" lon="4.2392">
        <ele>392</ele>
        <time>2018-06-03T07:54:00.000Z</time>
      </trkpt>
      <trkpt lat="44.56257" lon="4.23917">
        <ele>392</ele>
        <time>2018-06-03T07:54:01.000Z</time>
      </trkpt>
      <trkpt lat="44.56256" lon="4.23914">
        <ele>393</ele>
        <time>2018-06-03T07:54:02.000Z</time>
      </trkpt>
      <trkpt lat="44.56255" lon="4.23912">
        <ele>393</ele>
        <time>2018-06-03T07:54:03.000Z</time>
      </trkpt>
      <trkpt lat="44.56255" lon="4.23909">
        <ele>393</ele>
        <time>2018-06-03T07:54:04.000Z</time>
      </trkpt>
      <trkpt lat="44.56254" lon="4.23907">
        <ele>393</ele>
        <time>2018-06-03T07:54:05.000Z</time>
      </trkpt>
      <trkpt lat="44.56253" lon="4.23905">
        <ele>394</ele>
        <time>2018-06-03T07:54:06.000Z</time>
      </trkpt>
      <trkpt lat="44.56253" lon="4.23903">
        <ele>394</ele>
        <time>2018-06-03T07:54:07.000Z</time>
      </trkpt>
      <trkpt lat="44.56252" lon="4.23901">
        <ele>394</ele>
        <time>2018-06-03T07:54:08.000Z</time>
      </trkpt>
      <trkpt lat="44.56251" lon="4.23899">
        <ele>394</ele>
        <time>2018-06-03T07:54:09.000Z</time>
      </trkpt>
      <trkpt lat="44.56251" lon="4.23897">
        <ele>395</ele>
        <time>2018-06-03T07:54:10.000Z</time>
      </trkpt>
      <trkpt lat="44.5625" lon="4.23895">
        <ele>392</ele>
        <time>2018-06-03T07:54:11.000Z</time>
      </trkpt>
      <trkpt lat="44.56249" lon="4.23894">
        <ele>390</ele>
        <time>2018-06-03T07:54:12.000Z</time>
      </trkpt>
      <trkpt lat="44.56249" lon="4.23892">
        <ele>390</ele>
        <time>2018-06-03T07:54:13.000Z</time>
      </trkpt>
      <trkpt lat="44.56249" lon="4.2389">
        <ele>390</ele>
        <time>2018-06-03T07:54:14.000Z</time>
      </trkpt>
      <trkpt lat="44.56248" lon="4.23888">
        <ele>390</ele>
        <time>2018-06-03T07:54:15.000Z</time>
      </trkpt>
      <trkpt lat="44.56247" lon="4.23887">
        <ele>390</ele>
        <time>2018-06-03T07:54:16.000Z</time>
      </trkpt>
      <trkpt lat="44.56247" lon="4.23885">
        <ele>390</ele>
        <time>2018-06-03T07:54:17.000Z</time>
      </trkpt>
      <trkpt lat="44.56246" lon="4.23883">
        <ele>391</ele>
        <time>2018-06-03T07:54:18.000Z</time>
      </trkpt>
      <trkpt lat="44.56246" lon="4.23881">
        <ele>391</ele>
        <time>2018-06-03T07:54:19.000Z</time>
      </trkpt>
      <trkpt lat="44.56245" lon="4.2388">
        <ele>391</ele>
        <time>2018-06-03T07:54:20.000Z</time>
      </trkpt>
      <trkpt lat="44.56245" lon="4.23878">
        <ele>391</ele>
        <time>2018-06-03T07:54:21.000Z</time>
      </trkpt>
      <trkpt lat="44.56244" lon="4.23876">
        <ele>391</ele>
        <time>2018-06-03T07:54:22.000Z</time>
      </trkpt>
      <trkpt lat="44.56243" lon="4.23874">
        <ele>391</ele>
        <time>2018-06-03T07:54:23.000Z</time>
      </trkpt>
      <trkpt lat="44.56243" lon="4.23872">
        <ele>391</ele>
        <time>2018-06-03T07:54:24.000Z</time>
      </trkpt>
      <trkpt lat="44.56242" lon="4.2387">
        <ele>391</ele>
        <time>2018-06-03T07:54:25.000Z</time>
      </trkpt>
      <trkpt lat="44.56242" lon="4.23868">
        <ele>391</ele>
        <time>2018-06-03T07:54:26.000Z</time>
      </trkpt>
      <trkpt lat="44.56242" lon="4.23867">
        <ele>391</ele>
        <time>2018-06-03T07:54:27.000Z</time>
      </trkpt>
      <trkpt lat="44.56241" lon="4.23865">
        <ele>391</ele>
        <time>2018-06-03T07:54:28.000Z</time>
      </trkpt>
      <trkpt lat="44.5624" lon="4.23863">
        <ele>391</ele>
        <time>2018-06-03T07:54:29.000Z</time>
      </trkpt>
      <trkpt lat="44.5624" lon="4.23861">
        <ele>391</ele>
        <time>2018-06-03T07:54:30.000Z</time>
      </trkpt>
      <trkpt lat="44.56239" lon="4.23859">
        <ele>391</ele>
        <time>2018-06-03T07:54:31.000Z</time>
      </trkpt>
      <trkpt lat="44.56238" lon="4.23857">
        <ele>392</ele>
        <time>2018-06-03T07:54:32.000Z</time>
      </trkpt>
      <trkpt lat="44.56237" lon="4.23855">
        <ele>392</ele>
        <time>2018-06-03T07:54:33.000Z</time>
      </trkpt>
      <trkpt lat="44.56237" lon="4.23854">
        <ele>392</ele>
        <time>2018-06-03T07:54:34.000Z</time>
      </trkpt>
      <trkpt lat="44.56237" lon="4.23852">
        <ele>392</ele>
        <time>2018-06-03T07:54:35.000Z</time>
      </trkpt>
      <trkpt lat="44.56237" lon="4.2385">
        <ele>392</ele>
        <time>2018-06-03T07:54:36.000Z</time>
      </trkpt>
      <trkpt lat="44.56238" lon="4.2385">
        <ele>392</ele>
        <time>2018-06-03T07:54:37.000Z</time>
      </trkpt>
      <trkpt lat="44.56239" lon="4.23849">
        <ele>392</ele>
        <time>2018-06-03T07:54:38.000Z</time>
      </trkpt>
      <trkpt lat="44.56241" lon="4.23849">
        <ele>393</ele>
        <time>2018-06-03T07:54:39.000Z</time>
      </trkpt>
      <trkpt lat="44.56242" lon="4.2385">
        <ele>392</ele>
        <time>2018-06-03T07:54:40.000Z</time>
      </trkpt>
      <trkpt lat="44.56243" lon="4.23851">
        <ele>392</ele>
        <time>2018-06-03T07:54:41.000Z</time>
      </trkpt>
      <trkpt lat="44.56245" lon="4.23852">
        <ele>392</ele>
        <time>2018-06-03T07:54:42.000Z</time>
      </trkpt>
      <trkpt lat="44.56246" lon="4.23853">
        <ele>392</ele>
        <time>2018-06-03T07:54:43.000Z</time>
      </trkpt>
      <trkpt lat="44.56248" lon="4.23854">
        <ele>392</ele>
        <time>2018-06-03T07:54:44.000Z</time>
      </trkpt>
      <trkpt lat="44.56249" lon="4.23855">
        <ele>392</ele>
        <time>2018-06-03T07:54:45.000Z</time>
      </trkpt>
      <trkpt lat="44.56251" lon="4.23855">
        <ele>397</ele>
        <time>2018-06-03T07:54:46.000Z</time>
      </trkpt>
      <trkpt lat="44.56252" lon="4.23856">
        <ele>397</ele>
        <time>2018-06-03T07:54:47.000Z</time>
      </trkpt>
      <trkpt lat="44.56254" lon="4.23857">
        <ele>397</ele>
        <time>2018-06-03T07:54:48.000Z</time>
      </trkpt>
      <trkpt lat="44.56255" lon="4.23858">
        <ele>397</ele>
        <time>2018-06-03T07:54:49.000Z</time>
      </trkpt>
      <trkpt lat="44.56256" lon="4.23859">
        <ele>397</ele>
        <time>2018-06-03T07:54:50.000Z</time>
      </trkpt>
      <trkpt lat="44.56258" lon="4.23861">
        <ele>397</ele>
        <time>2018-06-03T07:54:51.000Z</time>
      </trkpt>
      <trkpt lat="44.5626" lon="4.23862">
        <ele>397</ele>
        <time>2018-06-03T07:54:52.000Z</time>
      </trkpt>
      <trkpt lat="44.56261" lon="4.23863">
        <ele>397</ele>
        <time>2018-06-03T07:54:53.000Z</time>
      </trkpt>
      <trkpt lat="44.56262" lon="4.23864">
        <ele>397</ele>
        <time>2018-06-03T07:54:54.000Z</time>
      </trkpt>
      <trkpt lat="44.56264" lon="4.23865">
        <ele>397</ele>
        <time>2018-06-03T07:54:55.000Z</time>
      </trkpt>
      <trkpt lat="44.56266" lon="4.23866">
        <ele>397</ele>
        <time>2018-06-03T07:54:56.000Z</time>
      </trkpt>
      <trkpt lat="44.56267" lon="4.23867">
        <ele>397</ele>
        <time>2018-06-03T07:54:57.000Z</time>
      </trkpt>
      <trkpt lat="44.56269" lon="4.23867">
        <ele>397</ele>
        <time>2018-06-03T07:54:58.000Z</time>
      </trkpt>
      <trkpt lat="44.56271" lon="4.23868">
        <ele>397</ele>
        <time>2018-06-03T07:54:59.000Z</time>
      </trkpt>
      <trkpt lat="44.56273" lon="4.23869">
        <ele>397</ele>
        <time>2018-06-03T07:55:00.000Z</time>
      </trkpt>
      <trkpt lat="44.56275" lon="4.23869">
        <ele>397</ele>
        <time>2018-06-03T07:55:01.000Z</time>
      </trkpt>
      <trkpt lat="44.56277" lon="4.23869">
        <ele>397</ele>
        <time>2018-06-03T07:55:02.000Z</time>
      </trkpt>
      <trkpt lat="44.56279" lon="4.2387">
        <ele>397</ele>
        <time>2018-06-03T07:55:03.000Z</time>
      </trkpt>
      <trkpt lat="44.56282" lon="4.23871">
        <ele>397</ele>
        <time>2018-06-03T07:55:04.000Z</time>
      </trkpt>
      <trkpt lat="44.56284" lon="4.23872">
        <ele>397</ele>
        <time>2018-06-03T07:55:05.000Z</time>
      </trkpt>
      <trkpt lat="44.56287" lon="4.23873">
        <ele>398</ele>
        <time>2018-06-03T07:55:06.000Z</time>
      </trkpt>
      <trkpt lat="44.56291" lon="4.23874">
        <ele>398</ele>
        <time>2018-06-03T07:55:07.000Z</time>
      </trkpt>
      <trkpt lat="44.56294" lon="4.23875">
        <ele>398</ele>
        <time>2018-06-03T07:55:08.000Z</time>
      </trkpt>
      <trkpt lat="44.56297" lon="4.23877">
        <ele>398</ele>
        <time>2018-06-03T07:55:09.000Z</time>
      </trkpt>
      <trkpt lat="44.563" lon="4.23878">
        <ele>398</ele>
        <time>2018-06-03T07:55:10.000Z</time>
      </trkpt>
      <trkpt lat="44.56303" lon="4.23879">
        <ele>398</ele>
        <time>2018-06-03T07:55:11.000Z</time>
      </trkpt>
      <trkpt lat="44.56306" lon="4.23881">
        <ele>398</ele>
        <time>2018-06-03T07:55:12.000Z</time>
      </trkpt>
      <trkpt lat="44.5631" lon="4.23882">
        <ele>399</ele>
        <time>2018-06-03T07:55:13.000Z</time>
      </trkpt>
      <trkpt lat="44.56314" lon="4.23884">
        <ele>399</ele>
        <time>2018-06-03T07:55:14.000Z</time>
      </trkpt>
      <trkpt lat="44.56317" lon="4.23886">
        <ele>399</ele>
        <time>2018-06-03T07:55:15.000Z</time>
      </trkpt>
      <trkpt lat="44.56321" lon="4.23887">
        <ele>399</ele>
        <time>2018-06-03T07:55:16.000Z</time>
      </trkpt>
      <trkpt lat="44.56324" lon="4.23889">
        <ele>399</ele>
        <time>2018-06-03T07:55:17.000Z</time>
      </trkpt>
      <trkpt lat="44.56328" lon="4.23891">
        <ele>399</ele>
        <time>2018-06-03T07:55:18.000Z</time>
      </trkpt>
      <trkpt lat="44.56331" lon="4.23893">
        <ele>399</ele>
        <time>2018-06-03T07:55:19.000Z</time>
      </trkpt>
      <trkpt lat="44.56335" lon="4.23896">
        <ele>404</ele>
        <time>2018-06-03T07:55:20.000Z</time>
      </trkpt>
      <trkpt lat="44.56338" lon="4.23898">
        <ele>404</ele>
        <time>2018-06-03T07:55:21.000Z</time>
      </trkpt>
      <trkpt lat="44.56342" lon="4.23901">
        <ele>404</ele>
        <time>2018-06-03T07:55:22.000Z</time>
      </trkpt>
      <trkpt lat="44.56346" lon="4.23903">
        <ele>404</ele>
        <time>2018-06-03T07:55:23.000Z</time>
      </trkpt>
      <trkpt lat="44.56349" lon="4.23906">
        <ele>404</ele>
        <time>2018-06-03T07:55:24.000Z</time>
      </trkpt>
      <trkpt lat="44.56352" lon="4.23909">
        <ele>405</ele>
        <time>2018-06-03T07:55:25.000Z</time>
      </trkpt>
      <trkpt lat="44.56355" lon="4.23912">
        <ele>405</ele>
        <time>2018-06-03T07:55:26.000Z</time>
      </trkpt>
      <trkpt lat="44.56357" lon="4.23915">
        <ele>405</ele>
        <time>2018-06-03T07:55:27.000Z</time>
      </trkpt>
      <trkpt lat="44.56359" lon="4.23916">
        <ele>405</ele>
        <time>2018-06-03T07:55:28.000Z</time>
      </trkpt>
      <trkpt lat="44.5636" lon="4.23917">
        <ele>402</ele>
        <time>2018-06-03T07:55:29.000Z</time>
      </trkpt>
      <trkpt lat="44.56361" lon="4.23918">
        <ele>403</ele>
        <time>2018-06-03T07:55:30.000Z</time>
      </trkpt>
      <trkpt lat="44.56363" lon="4.23919">
        <ele>403</ele>
        <time>2018-06-03T07:55:31.000Z</time>
      </trkpt>
      <trkpt lat="44.56364" lon="4.23917">
        <ele>403</ele>
        <time>2018-06-03T07:55:32.000Z</time>
      </trkpt>
      <trkpt lat="44.56364" lon="4.23915">
        <ele>406</ele>
        <time>2018-06-03T07:55:33.000Z</time>
      </trkpt>
      <trkpt lat="44.56362" lon="4.23914">
        <ele>406</ele>
        <time>2018-06-03T07:55:34.000Z</time>
      </trkpt>
      <trkpt lat="44.5636" lon="4.23914">
        <ele>405</ele>
        <time>2018-06-03T07:55:35.000Z</time>
      </trkpt>
      <trkpt lat="44.56359" lon="4.23916">
        <ele>405</ele>
        <time>2018-06-03T07:55:36.000Z</time>
      </trkpt>
      <trkpt lat="44.56359" lon="4.23918">
        <ele>402</ele>
        <time>2018-06-03T07:55:37.000Z</time>
      </trkpt>
      <trkpt lat="44.56359" lon="4.23919">
        <ele>402</ele>
        <time>2018-06-03T07:55:38.000Z</time>
      </trkpt>
      <trkpt lat="44.56359" lon="4.23919">
        <ele>402</ele>
        <time>2018-06-03T07:55:39.000Z</time>
      </trkpt>
      <trkpt lat="44.56359" lon="4.23919">
        <ele>402</ele>
        <time>2018-06-03T07:55:40.000Z</time>
      </trkpt>
      <trkpt lat="44.56359" lon="4.23919">
        <ele>402</ele>
        <time>2018-06-03T07:55:41.000Z</time>
      </trkpt>
      <trkpt lat="44.56359" lon="4.23919">
        <ele>402</ele>
        <time>2018-06-03T07:55:42.000Z</time>
      </trkpt>
      <trkpt lat="44.56359" lon="4.2392">
        <ele>402</ele>
        <time>2018-06-03T07:55:43.000Z</time>
      </trkpt>
      <trkpt lat="44.56359" lon="4.2392">
        <ele>402</ele>
        <time>2018-06-03T07:55:44.000Z</time>
      </trkpt>
      <trkpt lat="44.56359" lon="4.2392">
        <ele>402</ele>
        <time>2018-06-03T07:55:45.000Z</time>
      </trkpt>
      <trkpt lat="44.56359" lon="4.2392">
        <ele>402</ele>
        <time>2018-06-03T07:55:46.000Z</time>
      </trkpt>
      <trkpt lat="44.56359" lon="4.2392">
        <ele>402</ele>
        <time>2018-06-03T07:55:47.000Z</time>
      </trkpt>
      <trkpt lat="44.56358" lon="4.2392">
        <ele>402</ele>
        <time>2018-06-03T07:55:48.000Z</time>
      </trkpt>
      <trkpt lat="44.56358" lon="4.2392">
        <ele>402</ele>
        <time>2018-06-03T07:55:49.000Z</time>
      </trkpt>
      <trkpt lat="44.56358" lon="4.2392">
        <ele>402</ele>
        <time>2018-06-03T07:55:50.000Z</time>
      </trkpt>
      <trkpt lat="44.56359" lon="4.23921">
        <ele>402</ele>
        <time>2018-06-03T07:55:51.000Z</time>
      </trkpt>
      <trkpt lat="44.56359" lon="4.23921">
        <ele>402</ele>
        <time>2018-06-03T07:55:52.000Z</time>
      </trkpt>
      <trkpt lat="44.5636" lon="4.23922">
        <ele>402</ele>
        <time>2018-06-03T07:55:53.000Z</time>
      </trkpt>
      <trkpt lat="44.56361" lon="4.23922">
        <ele>402</ele>
        <time>2018-06-03T07:55:54.000Z</time>
      </trkpt>
      <trkpt lat="44.56362" lon="4.23922">
        <ele>403</ele>
        <time>2018-06-03T07:55:55.000Z</time>
      </trkpt>
      <trkpt lat="44.56363" lon="4.2392">
        <ele>403</ele>
        <time>2018-06-03T07:55:56.000Z</time>
      </trkpt>
      <trkpt lat="44.56364" lon="4.23917">
        <ele>403</ele>
        <time>2018-06-03T07:55:57.000Z</time>
      </trkpt>
      <trkpt lat="44.56365" lon="4.23914">
        <ele>406</ele>
        <time>2018-06-03T07:55:58.000Z</time>
      </trkpt>
      <trkpt lat="44.56364" lon="4.23911">
        <ele>406</ele>
        <time>2018-06-03T07:55:59.000Z</time>
      </trkpt>
      <trkpt lat="44.56363" lon="4.23908">
        <ele>406</ele>
        <time>2018-06-03T07:56:00.000Z</time>
      </trkpt>
      <trkpt lat="44.56361" lon="4.23905">
        <ele>406</ele>
        <time>2018-06-03T07:56:01.000Z</time>
      </trkpt>
      <trkpt lat="44.5636" lon="4.23903">
        <ele>406</ele>
        <time>2018-06-03T07:56:02.000Z</time>
      </trkpt>
      <trkpt lat="44.56358" lon="4.23901">
        <ele>405</ele>
        <time>2018-06-03T07:56:03.000Z</time>
      </trkpt>
      <trkpt lat="44.56357" lon="4.23898">
        <ele>405</ele>
        <time>2018-06-03T07:56:04.000Z</time>
      </trkpt>
      <trkpt lat="44.56355" lon="4.23896">
        <ele>405</ele>
        <time>2018-06-03T07:56:05.000Z</time>
      </trkpt>
      <trkpt lat="44.56354" lon="4.23894">
        <ele>405</ele>
        <time>2018-06-03T07:56:06.000Z</time>
      </trkpt>
      <trkpt lat="44.56352" lon="4.23892">
        <ele>405</ele>
        <time>2018-06-03T07:56:07.000Z</time>
      </trkpt>
      <trkpt lat="44.56351" lon="4.23889">
        <ele>405</ele>
        <time>2018-06-03T07:56:08.000Z</time>
      </trkpt>
      <trkpt lat="44.5635" lon="4.23886">
        <ele>406</ele>
        <time>2018-06-03T07:56:09.000Z</time>
      </trkpt>
      <trkpt lat="44.5635" lon="4.23883">
        <ele>406</ele>
        <time>2018-06-03T07:56:10.000Z</time>
      </trkpt>
      <trkpt lat="44.5635" lon="4.2388">
        <ele>406</ele>
        <time>2018-06-03T07:56:11.000Z</time>
      </trkpt>
      <trkpt lat="44.56351" lon="4.23877">
        <ele>406</ele>
        <time>2018-06-03T07:56:12.000Z</time>
      </trkpt>
      <trkpt lat="44.56352" lon="4.23874">
        <ele>406</ele>
        <time>2018-06-03T07:56:13.000Z</time>
      </trkpt>
      <trkpt lat="44.56353" lon="4.23872">
        <ele>406</ele>
        <time>2018-06-03T07:56:14.000Z</time>
      </trkpt>
      <trkpt lat="44.56355" lon="4.2387">
        <ele>406</ele>
        <time>2018-06-03T07:56:15.000Z</time>
      </trkpt>
      <trkpt lat="44.56357" lon="4.23868">
        <ele>406</ele>
        <time>2018-06-03T07:56:16.000Z</time>
      </trkpt>
      <trkpt lat="44.56359" lon="4.23867">
        <ele>406</ele>
        <time>2018-06-03T07:56:17.000Z</time>
      </trkpt>
      <trkpt lat="44.56361" lon="4.23866">
        <ele>406</ele>
        <time>2018-06-03T07:56:18.000Z</time>
      </trkpt>
      <trkpt lat="44.56363" lon="4.23866">
        <ele>407</ele>
        <time>2018-06-03T07:56:19.000Z</time>
      </trkpt>
      <trkpt lat="44.56366" lon="4.23865">
        <ele>407</ele>
        <time>2018-06-03T07:56:20.000Z</time>
      </trkpt>
      <trkpt lat="44.56368" lon="4.23864">
        <ele>407</ele>
        <time>2018-06-03T07:56:21.000Z</time>
      </trkpt>
      <trkpt lat="44.56371" lon="4.23864">
        <ele>407</ele>
        <time>2018-06-03T07:56:22.000Z</time>
      </trkpt>
      <trkpt lat="44.56373" lon="4.23863">
        <ele>407</ele>
        <time>2018-06-03T07:56:23.000Z</time>
      </trkpt>
      <trkpt lat="44.56375" lon="4.23862">
        <ele>407</ele>
        <time>2018-06-03T07:56:24.000Z</time>
      </trkpt>
      <trkpt lat="44.56378" lon="4.23862">
        <ele>408</ele>
        <time>2018-06-03T07:56:25.000Z</time>
      </trkpt>
      <trkpt lat="44.5638" lon="4.23861">
        <ele>408</ele>
        <time>2018-06-03T07:56:26.000Z</time>
      </trkpt>
      <trkpt lat="44.56382" lon="4.23859">
        <ele>408</ele>
        <time>2018-06-03T07:56:27.000Z</time>
      </trkpt>
      <trkpt lat="44.56384" lon="4.23858">
        <ele>408</ele>
        <time>2018-06-03T07:56:28.000Z</time>
      </trkpt>
      <trkpt lat="44.56387" lon="4.23857">
        <ele>408</ele>
        <time>2018-06-03T07:56:29.000Z</time>
      </trkpt>
      <trkpt lat="44.56389" lon="4.23855">
        <ele>409</ele>
        <time>2018-06-03T07:56:30.000Z</time>
      </trkpt>
      <trkpt lat="44.56391" lon="4.23854">
        <ele>409</ele>
        <time>2018-06-03T07:56:31.000Z</time>
      </trkpt>
      <trkpt lat="44.56393" lon="4.23853">
        <ele>409</ele>
        <time>2018-06-03T07:56:32.000Z</time>
      </trkpt>
      <trkpt lat="44.56395" lon="4.23852">
        <ele>409</ele>
        <time>2018-06-03T07:56:33.000Z</time>
      </trkpt>
      <trkpt lat="44.56397" lon="4.23851">
        <ele>410</ele>
        <time>2018-06-03T07:56:34.000Z</time>
      </trkpt>
      <trkpt lat="44.56398" lon="4.23849">
        <ele>410</ele>
        <time>2018-06-03T07:56:35.000Z</time>
      </trkpt>
      <trkpt lat="44.564" lon="4.23848">
        <ele>410</ele>
        <time>2018-06-03T07:56:36.000Z</time>
      </trkpt>
      <trkpt lat="44.56402" lon="4.23846">
        <ele>410</ele>
        <time>2018-06-03T07:56:37.000Z</time>
      </trkpt>
      <trkpt lat="44.56403" lon="4.23845">
        <ele>411</ele>
        <time>2018-06-03T07:56:38.000Z</time>
      </trkpt>
      <trkpt lat="44.56405" lon="4.23843">
        <ele>411</ele>
        <time>2018-06-03T07:56:39.000Z</time>
      </trkpt>
      <trkpt lat="44.56407" lon="4.23841">
        <ele>411</ele>
        <time>2018-06-03T07:56:40.000Z</time>
      </trkpt>
      <trkpt lat="44.56409" lon="4.23839">
        <ele>412</ele>
        <time>2018-06-03T07:56:41.000Z</time>
      </trkpt>
      <trkpt lat="44.56411" lon="4.23837">
        <ele>412</ele>
        <time>2018-06-03T07:56:42.000Z</time>
      </trkpt>
      <trkpt lat="44.56413" lon="4.23836">
        <ele>413</ele>
        <time>2018-06-03T07:56:43.000Z</time>
      </trkpt>
      <trkpt lat="44.56415" lon="4.23834">
        <ele>414</ele>
        <time>2018-06-03T07:56:44.000Z</time>
      </trkpt>
      <trkpt lat="44.56417" lon="4.23833">
        <ele>414</ele>
        <time>2018-06-03T07:56:45.000Z</time>
      </trkpt>
      <trkpt lat="44.56419" lon="4.23831">
        <ele>415</ele>
        <time>2018-06-03T07:56:46.000Z</time>
      </trkpt>
      <trkpt lat="44.5642" lon="4.2383">
        <ele>415</ele>
        <time>2018-06-03T07:56:47.000Z</time>
      </trkpt>
      <trkpt lat="44.56422" lon="4.23829">
        <ele>415</ele>
        <time>2018-06-03T07:56:48.000Z</time>
      </trkpt>
      <trkpt lat="44.56423" lon="4.23828">
        <ele>415</ele>
        <time>2018-06-03T07:56:49.000Z</time>
      </trkpt>
      <trkpt lat="44.56425" lon="4.23827">
        <ele>416</ele>
        <time>2018-06-03T07:56:50.000Z</time>
      </trkpt>
      <trkpt lat="44.56427" lon="4.23826">
        <ele>416</ele>
        <time>2018-06-03T07:56:51.000Z</time>
      </trkpt>
      <trkpt lat="44.56429" lon="4.23825">
        <ele>416</ele>
        <time>2018-06-03T07:56:52.000Z</time>
      </trkpt>
      <trkpt lat="44.56431" lon="4.23824">
        <ele>416</ele>
        <time>2018-06-03T07:56:53.000Z</time>
      </trkpt>
      <trkpt lat="44.56433" lon="4.23824">
        <ele>417</ele>
        <time>2018-06-03T07:56:54.000Z</time>
      </trkpt>
      <trkpt lat="44.56435" lon="4.23823">
        <ele>417</ele>
        <time>2018-06-03T07:56:55.000Z</time>
      </trkpt>
      <trkpt lat="44.56437" lon="4.23822">
        <ele>417</ele>
        <time>2018-06-03T07:56:56.000Z</time>
      </trkpt>
      <trkpt lat="44.56439" lon="4.23821">
        <ele>417</ele>
        <time>2018-06-03T07:56:57.000Z</time>
      </trkpt>
      <trkpt lat="44.56441" lon="4.2382">
        <ele>418</ele>
        <time>2018-06-03T07:56:58.000Z</time>
      </trkpt>
      <trkpt lat="44.56444" lon="4.2382">
        <ele>418</ele>
        <time>2018-06-03T07:56:59.000Z</time>
      </trkpt>
      <trkpt lat="44.56446" lon="4.23819">
        <ele>418</ele>
        <time>2018-06-03T07:57:00.000Z</time>
      </trkpt>
      <trkpt lat="44.56448" lon="4.23819">
        <ele>418</ele>
        <time>2018-06-03T07:57:01.000Z</time>
      </trkpt>
      <trkpt lat="44.5645" lon="4.23818">
        <ele>418</ele>
        <time>2018-06-03T07:57:02.000Z</time>
      </trkpt>
      <trkpt lat="44.56452" lon="4.23817">
        <ele>419</ele>
        <time>2018-06-03T07:57:03.000Z</time>
      </trkpt>
      <trkpt lat="44.56454" lon="4.23815">
        <ele>419</ele>
        <time>2018-06-03T07:57:04.000Z</time>
      </trkpt>
      <trkpt lat="44.56456" lon="4.23814">
        <ele>419</ele>
        <time>2018-06-03T07:57:05.000Z</time>
      </trkpt>
      <trkpt lat="44.56459" lon="4.23813">
        <ele>419</ele>
        <time>2018-06-03T07:57:06.000Z</time>
      </trkpt>
      <trkpt lat="44.56461" lon="4.23812">
        <ele>419</ele>
        <time>2018-06-03T07:57:07.000Z</time>
      </trkpt>
      <trkpt lat="44.56464" lon="4.2381">
        <ele>420</ele>
        <time>2018-06-03T07:57:08.000Z</time>
      </trkpt>
      <trkpt lat="44.56466" lon="4.23809">
        <ele>420</ele>
        <time>2018-06-03T07:57:09.000Z</time>
      </trkpt>
      <trkpt lat="44.56468" lon="4.23808">
        <ele>420</ele>
        <time>2018-06-03T07:57:10.000Z</time>
      </trkpt>
      <trkpt lat="44.5647" lon="4.23806">
        <ele>420</ele>
        <time>2018-06-03T07:57:11.000Z</time>
      </trkpt>
      <trkpt lat="44.56472" lon="4.23805">
        <ele>420</ele>
        <time>2018-06-03T07:57:12.000Z</time>
      </trkpt>
      <trkpt lat="44.56474" lon="4.23804">
        <ele>420</ele>
        <time>2018-06-03T07:57:13.000Z</time>
      </trkpt>
      <trkpt lat="44.56476" lon="4.23802">
        <ele>420</ele>
        <time>2018-06-03T07:57:14.000Z</time>
      </trkpt>
      <trkpt lat="44.56479" lon="4.23801">
        <ele>420</ele>
        <time>2018-06-03T07:57:15.000Z</time>
      </trkpt>
      <trkpt lat="44.56481" lon="4.23799">
        <ele>420</ele>
        <time>2018-06-03T07:57:16.000Z</time>
      </trkpt>
      <trkpt lat="44.56483" lon="4.23798">
        <ele>421</ele>
        <time>2018-06-03T07:57:17.000Z</time>
      </trkpt>
      <trkpt lat="44.56486" lon="4.23797">
        <ele>421</ele>
        <time>2018-06-03T07:57:18.000Z</time>
      </trkpt>
      <trkpt lat="44.56488" lon="4.23796">
        <ele>421</ele>
        <time>2018-06-03T07:57:19.000Z</time>
      </trkpt>
      <trkpt lat="44.56491" lon="4.23795">
        <ele>421</ele>
        <time>2018-06-03T07:57:20.000Z</time>
      </trkpt>
      <trkpt lat="44.56493" lon="4.23795">
        <ele>421</ele>
        <time>2018-06-03T07:57:21.000Z</time>
      </trkpt>
      <trkpt lat="44.56496" lon="4.23794">
        <ele>421</ele>
        <time>2018-06-03T07:57:22.000Z</time>
      </trkpt>
      <trkpt lat="44.56499" lon="4.23795">
        <ele>421</ele>
        <time>2018-06-03T07:57:23.000Z</time>
      </trkpt>
      <trkpt lat="44.56502" lon="4.23795">
        <ele>429</ele>
        <time>2018-06-03T07:57:24.000Z</time>
      </trkpt>
      <trkpt lat="44.56505" lon="4.23796">
        <ele>429</ele>
        <time>2018-06-03T07:57:25.000Z</time>
      </trkpt>
      <trkpt lat="44.56508" lon="4.23796">
        <ele>429</ele>
        <time>2018-06-03T07:57:26.000Z</time>
      </trkpt>
      <trkpt lat="44.56511" lon="4.23796">
        <ele>429</ele>
        <time>2018-06-03T07:57:27.000Z</time>
      </trkpt>
      <trkpt lat="44.56514" lon="4.23797">
        <ele>429</ele>
        <time>2018-06-03T07:57:28.000Z</time>
      </trkpt>
      <trkpt lat="44.56518" lon="4.23796">
        <ele>429</ele>
        <time>2018-06-03T07:57:29.000Z</time>
      </trkpt>
      <trkpt lat="44.56522" lon="4.23795">
        <ele>430</ele>
        <time>2018-06-03T07:57:30.000Z</time>
      </trkpt>
      <trkpt lat="44.56525" lon="4.23793">
        <ele>430</ele>
        <time>2018-06-03T07:57:31.000Z</time>
      </trkpt>
      <trkpt lat="44.56528" lon="4.2379">
        <ele>430</ele>
        <time>2018-06-03T07:57:32.000Z</time>
      </trkpt>
      <trkpt lat="44.56531" lon="4.23787">
        <ele>430</ele>
        <time>2018-06-03T07:57:33.000Z</time>
      </trkpt>
      <trkpt lat="44.56533" lon="4.23783">
        <ele>430</ele>
        <time>2018-06-03T07:57:34.000Z</time>
      </trkpt>
      <trkpt lat="44.56534" lon="4.2378">
        <ele>430</ele>
        <time>2018-06-03T07:57:35.000Z</time>
      </trkpt>
      <trkpt lat="44.56535" lon="4.23777">
        <ele>430</ele>
        <time>2018-06-03T07:57:36.000Z</time>
      </trkpt>
      <trkpt lat="44.56537" lon="4.23773">
        <ele>430</ele>
        <time>2018-06-03T07:57:37.000Z</time>
      </trkpt>
      <trkpt lat="44.56538" lon="4.2377">
        <ele>430</ele>
        <time>2018-06-03T07:57:38.000Z</time>
      </trkpt>
      <trkpt lat="44.56539" lon="4.23768">
        <ele>430</ele>
        <time>2018-06-03T07:57:39.000Z</time>
      </trkpt>
      <trkpt lat="44.5654" lon="4.23765">
        <ele>430</ele>
        <time>2018-06-03T07:57:40.000Z</time>
      </trkpt>
      <trkpt lat="44.5654" lon="4.23761">
        <ele>430</ele>
        <time>2018-06-03T07:57:41.000Z</time>
      </trkpt>
      <trkpt lat="44.56541" lon="4.23758">
        <ele>430</ele>
        <time>2018-06-03T07:57:42.000Z</time>
      </trkpt>
      <trkpt lat="44.56542" lon="4.23754">
        <ele>430</ele>
        <time>2018-06-03T07:57:43.000Z</time>
      </trkpt>
      <trkpt lat="44.56542" lon="4.2375">
        <ele>428</ele>
        <time>2018-06-03T07:57:44.000Z</time>
      </trkpt>
      <trkpt lat="44.56542" lon="4.23746">
        <ele>428</ele>
        <time>2018-06-03T07:57:45.000Z</time>
      </trkpt>
      <trkpt lat="44.56542" lon="4.23742">
        <ele>428</ele>
        <time>2018-06-03T07:57:46.000Z</time>
      </trkpt>
      <trkpt lat="44.56542" lon="4.23738">
        <ele>428</ele>
        <time>2018-06-03T07:57:47.000Z</time>
      </trkpt>
      <trkpt lat="44.56541" lon="4.23734">
        <ele>428</ele>
        <time>2018-06-03T07:57:48.000Z</time>
      </trkpt>
      <trkpt lat="44.56541" lon="4.2373">
        <ele>428</ele>
        <time>2018-06-03T07:57:49.000Z</time>
      </trkpt>
      <trkpt lat="44.5654" lon="4.23726">
        <ele>428</ele>
        <time>2018-06-03T07:57:50.000Z</time>
      </trkpt>
      <trkpt lat="44.56539" lon="4.23723">
        <ele>428</ele>
        <time>2018-06-03T07:57:51.000Z</time>
      </trkpt>
      <trkpt lat="44.56538" lon="4.23719">
        <ele>428</ele>
        <time>2018-06-03T07:57:52.000Z</time>
      </trkpt>
      <trkpt lat="44.56538" lon="4.23715">
        <ele>428</ele>
        <time>2018-06-03T07:57:53.000Z</time>
      </trkpt>
      <trkpt lat="44.56539" lon="4.23711">
        <ele>428</ele>
        <time>2018-06-03T07:57:54.000Z</time>
      </trkpt>
      <trkpt lat="44.5654" lon="4.23708">
        <ele>428</ele>
        <time>2018-06-03T07:57:55.000Z</time>
      </trkpt>
      <trkpt lat="44.56542" lon="4.23705">
        <ele>428</ele>
        <time>2018-06-03T07:57:56.000Z</time>
      </trkpt>
      <trkpt lat="44.56544" lon="4.23704">
        <ele>428</ele>
        <time>2018-06-03T07:57:57.000Z</time>
      </trkpt>
      <trkpt lat="44.56546" lon="4.23702">
        <ele>428</ele>
        <time>2018-06-03T07:57:58.000Z</time>
      </trkpt>
      <trkpt lat="44.56548" lon="4.23701">
        <ele>428</ele>
        <time>2018-06-03T07:57:59.000Z</time>
      </trkpt>
      <trkpt lat="44.5655" lon="4.237">
        <ele>429</ele>
        <time>2018-06-03T07:58:00.000Z</time>
      </trkpt>
      <trkpt lat="44.56553" lon="4.23699">
        <ele>429</ele>
        <time>2018-06-03T07:58:01.000Z</time>
      </trkpt>
      <trkpt lat="44.56555" lon="4.23699">
        <ele>429</ele>
        <time>2018-06-03T07:58:02.000Z</time>
      </trkpt>
      <trkpt lat="44.56558" lon="4.23701">
        <ele>429</ele>
        <time>2018-06-03T07:58:03.000Z</time>
      </trkpt>
      <trkpt lat="44.5656" lon="4.23702">
        <ele>429</ele>
        <time>2018-06-03T07:58:04.000Z</time>
      </trkpt>
      <trkpt lat="44.56562" lon="4.23705">
        <ele>430</ele>
        <time>2018-06-03T07:58:05.000Z</time>
      </trkpt>
      <trkpt lat="44.56564" lon="4.23708">
        <ele>430</ele>
        <time>2018-06-03T07:58:06.000Z</time>
      </trkpt>
      <trkpt lat="44.56567" lon="4.23711">
        <ele>430</ele>
        <time>2018-06-03T07:58:07.000Z</time>
      </trkpt>
      <trkpt lat="44.56569" lon="4.23714">
        <ele>430</ele>
        <time>2018-06-03T07:58:08.000Z</time>
      </trkpt>
      <trkpt lat="44.56571" lon="4.23718">
        <ele>430</ele>
        <time>2018-06-03T07:58:09.000Z</time>
      </trkpt>
      <trkpt lat="44.56573" lon="4.23722">
        <ele>431</ele>
        <time>2018-06-03T07:58:10.000Z</time>
      </trkpt>
      <trkpt lat="44.56576" lon="4.23726">
        <ele>431</ele>
        <time>2018-06-03T07:58:11.000Z</time>
      </trkpt>
      <trkpt lat="44.56578" lon="4.2373">
        <ele>432</ele>
        <time>2018-06-03T07:58:12.000Z</time>
      </trkpt>
      <trkpt lat="44.56581" lon="4.23733">
        <ele>432</ele>
        <time>2018-06-03T07:58:13.000Z</time>
      </trkpt>
      <trkpt lat="44.56583" lon="4.23737">
        <ele>433</ele>
        <time>2018-06-03T07:58:14.000Z</time>
      </trkpt>
      <trkpt lat="44.56586" lon="4.23741">
        <ele>436</ele>
        <time>2018-06-03T07:58:15.000Z</time>
      </trkpt>
      <trkpt lat="44.56588" lon="4.23745">
        <ele>436</ele>
        <time>2018-06-03T07:58:16.000Z</time>
      </trkpt>
      <trkpt lat="44.56591" lon="4.23749">
        <ele>436</ele>
        <time>2018-06-03T07:58:17.000Z</time>
      </trkpt>
      <trkpt lat="44.56593" lon="4.23753">
        <ele>437</ele>
        <time>2018-06-03T07:58:18.000Z</time>
      </trkpt>
      <trkpt lat="44.56595" lon="4.23757">
        <ele>438</ele>
        <time>2018-06-03T07:58:19.000Z</time>
      </trkpt>
      <trkpt lat="44.56597" lon="4.23761">
        <ele>438</ele>
        <time>2018-06-03T07:58:20.000Z</time>
      </trkpt>
      <trkpt lat="44.56599" lon="4.23765">
        <ele>439</ele>
        <time>2018-06-03T07:58:21.000Z</time>
      </trkpt>
      <trkpt lat="44.56601" lon="4.23769">
        <ele>439</ele>
        <time>2018-06-03T07:58:22.000Z</time>
      </trkpt>
      <trkpt lat="44.56603" lon="4.23773">
        <ele>439</ele>
        <time>2018-06-03T07:58:23.000Z</time>
      </trkpt>
      <trkpt lat="44.56605" lon="4.23778">
        <ele>439</ele>
        <time>2018-06-03T07:58:24.000Z</time>
      </trkpt>
      <trkpt lat="44.56607" lon="4.23782">
        <ele>440</ele>
        <time>2018-06-03T07:58:25.000Z</time>
      </trkpt>
      <trkpt lat="44.56609" lon="4.23787">
        <ele>440</ele>
        <time>2018-06-03T07:58:26.000Z</time>
      </trkpt>
      <trkpt lat="44.56611" lon="4.23791">
        <ele>440</ele>
        <time>2018-06-03T07:58:27.000Z</time>
      </trkpt>
      <trkpt lat="44.56613" lon="4.23796">
        <ele>440</ele>
        <time>2018-06-03T07:58:28.000Z</time>
      </trkpt>
      <trkpt lat="44.56615" lon="4.238">
        <ele>440</ele>
        <time>2018-06-03T07:58:29.000Z</time>
      </trkpt>
      <trkpt lat="44.56618" lon="4.23805">
        <ele>441</ele>
        <time>2018-06-03T07:58:30.000Z</time>
      </trkpt>
      <trkpt lat="44.5662" lon="4.23809">
        <ele>441</ele>
        <time>2018-06-03T07:58:31.000Z</time>
      </trkpt>
      <trkpt lat="44.56623" lon="4.23813">
        <ele>441</ele>
        <time>2018-06-03T07:58:32.000Z</time>
      </trkpt>
      <trkpt lat="44.56626" lon="4.23817">
        <ele>441</ele>
        <time>2018-06-03T07:58:33.000Z</time>
      </trkpt>
      <trkpt lat="44.56629" lon="4.2382">
        <ele>441</ele>
        <time>2018-06-03T07:58:34.000Z</time>
      </trkpt>
      <trkpt lat="44.56632" lon="4.23823">
        <ele>442</ele>
        <time>2018-06-03T07:58:35.000Z</time>
      </trkpt>
      <trkpt lat="44.56635" lon="4.23825">
        <ele>442</ele>
        <time>2018-06-03T07:58:36.000Z</time>
      </trkpt>
      <trkpt lat="44.56638" lon="4.23828">
        <ele>442</ele>
        <time>2018-06-03T07:58:37.000Z</time>
      </trkpt>
      <trkpt lat="44.56641" lon="4.2383">
        <ele>442</ele>
        <time>2018-06-03T07:58:38.000Z</time>
      </trkpt>
      <trkpt lat="44.56644" lon="4.23832">
        <ele>443</ele>
        <time>2018-06-03T07:58:39.000Z</time>
      </trkpt>
      <trkpt lat="44.56647" lon="4.23833">
        <ele>443</ele>
        <time>2018-06-03T07:58:40.000Z</time>
      </trkpt>
      <trkpt lat="44.5665" lon="4.23835">
        <ele>445</ele>
        <time>2018-06-03T07:58:41.000Z</time>
      </trkpt>
      <trkpt lat="44.56653" lon="4.23836">
        <ele>445</ele>
        <time>2018-06-03T07:58:42.000Z</time>
      </trkpt>
      <trkpt lat="44.56655" lon="4.23838">
        <ele>445</ele>
        <time>2018-06-03T07:58:43.000Z</time>
      </trkpt>
      <trkpt lat="44.56658" lon="4.23839">
        <ele>445</ele>
        <time>2018-06-03T07:58:44.000Z</time>
      </trkpt>
      <trkpt lat="44.5666" lon="4.2384">
        <ele>445</ele>
        <time>2018-06-03T07:58:45.000Z</time>
      </trkpt>
      <trkpt lat="44.56663" lon="4.23841">
        <ele>445</ele>
        <time>2018-06-03T07:58:46.000Z</time>
      </trkpt>
      <trkpt lat="44.56665" lon="4.23842">
        <ele>445</ele>
        <time>2018-06-03T07:58:47.000Z</time>
      </trkpt>
      <trkpt lat="44.56668" lon="4.23844">
        <ele>448</ele>
        <time>2018-06-03T07:58:48.000Z</time>
      </trkpt>
      <trkpt lat="44.5667" lon="4.23845">
        <ele>448</ele>
        <time>2018-06-03T07:58:49.000Z</time>
      </trkpt>
      <trkpt lat="44.56672" lon="4.23846">
        <ele>448</ele>
        <time>2018-06-03T07:58:50.000Z</time>
      </trkpt>
      <trkpt lat="44.56675" lon="4.23846">
        <ele>449</ele>
        <time>2018-06-03T07:58:51.000Z</time>
      </trkpt>
      <trkpt lat="44.56677" lon="4.23846">
        <ele>449</ele>
        <time>2018-06-03T07:58:52.000Z</time>
      </trkpt>
      <trkpt lat="44.5668" lon="4.23847">
        <ele>449</ele>
        <time>2018-06-03T07:58:53.000Z</time>
      </trkpt>
      <trkpt lat="44.56682" lon="4.23846">
        <ele>449</ele>
        <time>2018-06-03T07:58:54.000Z</time>
      </trkpt>
      <trkpt lat="44.56685" lon="4.23846">
        <ele>449</ele>
        <time>2018-06-03T07:58:55.000Z</time>
      </trkpt>
      <trkpt lat="44.56688" lon="4.23845">
        <ele>450</ele>
        <time>2018-06-03T07:58:56.000Z</time>
      </trkpt>
      <trkpt lat="44.56691" lon="4.23844">
        <ele>450</ele>
        <time>2018-06-03T07:58:57.000Z</time>
      </trkpt>
      <trkpt lat="44.56693" lon="4.23844">
        <ele>450</ele>
        <time>2018-06-03T07:58:58.000Z</time>
      </trkpt>
      <trkpt lat="44.56696" lon="4.23843">
        <ele>450</ele>
        <time>2018-06-03T07:58:59.000Z</time>
      </trkpt>
      <trkpt lat="44.56698" lon="4.23843">
        <ele>451</ele>
        <time>2018-06-03T07:59:00.000Z</time>
      </trkpt>
      <trkpt lat="44.56701" lon="4.23842">
        <ele>451</ele>
        <time>2018-06-03T07:59:01.000Z</time>
      </trkpt>
      <trkpt lat="44.56703" lon="4.23841">
        <ele>451</ele>
        <time>2018-06-03T07:59:02.000Z</time>
      </trkpt>
      <trkpt lat="44.56706" lon="4.2384">
        <ele>451</ele>
        <time>2018-06-03T07:59:03.000Z</time>
      </trkpt>
      <trkpt lat="44.56708" lon="4.23839">
        <ele>451</ele>
        <time>2018-06-03T07:59:04.000Z</time>
      </trkpt>
      <trkpt lat="44.56711" lon="4.23838">
        <ele>451</ele>
        <time>2018-06-03T07:59:05.000Z</time>
      </trkpt>
      <trkpt lat="44.56713" lon="4.23837">
        <ele>452</ele>
        <time>2018-06-03T07:59:06.000Z</time>
      </trkpt>
      <trkpt lat="44.56716" lon="4.23835">
        <ele>452</ele>
        <time>2018-06-03T07:59:07.000Z</time>
      </trkpt>
      <trkpt lat="44.56719" lon="4.23834">
        <ele>452</ele>
        <time>2018-06-03T07:59:08.000Z</time>
      </trkpt>
      <trkpt lat="44.56721" lon="4.23832">
        <ele>448</ele>
        <time>2018-06-03T07:59:09.000Z</time>
      </trkpt>
      <trkpt lat="44.56724" lon="4.23831">
        <ele>448</ele>
        <time>2018-06-03T07:59:10.000Z</time>
      </trkpt>
      <trkpt lat="44.56726" lon="4.2383">
        <ele>448</ele>
        <time>2018-06-03T07:59:11.000Z</time>
      </trkpt>
      <trkpt lat="44.56729" lon="4.23829">
        <ele>449</ele>
        <time>2018-06-03T07:59:12.000Z</time>
      </trkpt>
      <trkpt lat="44.56732" lon="4.23828">
        <ele>449</ele>
        <time>2018-06-03T07:59:13.000Z</time>
      </trkpt>
      <trkpt lat="44.56734" lon="4.23827">
        <ele>449</ele>
        <time>2018-06-03T07:59:14.000Z</time>
      </trkpt>
      <trkpt lat="44.56737" lon="4.23826">
        <ele>450</ele>
        <time>2018-06-03T07:59:15.000Z</time>
      </trkpt>
      <trkpt lat="44.5674" lon="4.23826">
        <ele>450</ele>
        <time>2018-06-03T07:59:16.000Z</time>
      </trkpt>
      <trkpt lat="44.56743" lon="4.23826">
        <ele>451</ele>
        <time>2018-06-03T07:59:17.000Z</time>
      </trkpt>
      <trkpt lat="44.56745" lon="4.23827">
        <ele>451</ele>
        <time>2018-06-03T07:59:18.000Z</time>
      </trkpt>
      <trkpt lat="44.56748" lon="4.23829">
        <ele>452</ele>
        <time>2018-06-03T07:59:19.000Z</time>
      </trkpt>
      <trkpt lat="44.5675" lon="4.2383">
        <ele>453</ele>
        <time>2018-06-03T07:59:20.000Z</time>
      </trkpt>
      <trkpt lat="44.56753" lon="4.23831">
        <ele>453</ele>
        <time>2018-06-03T07:59:21.000Z</time>
      </trkpt>
      <trkpt lat="44.56755" lon="4.23832">
        <ele>453</ele>
        <time>2018-06-03T07:59:22.000Z</time>
      </trkpt>
      <trkpt lat="44.56758" lon="4.23834">
        <ele>455</ele>
        <time>2018-06-03T07:59:23.000Z</time>
      </trkpt>
      <trkpt lat="44.5676" lon="4.23836">
        <ele>456</ele>
        <time>2018-06-03T07:59:24.000Z</time>
      </trkpt>
      <trkpt lat="44.56763" lon="4.23838">
        <ele>456</ele>
        <time>2018-06-03T07:59:25.000Z</time>
      </trkpt>
      <trkpt lat="44.56765" lon="4.2384">
        <ele>456</ele>
        <time>2018-06-03T07:59:26.000Z</time>
      </trkpt>
      <trkpt lat="44.56768" lon="4.23841">
        <ele>456</ele>
        <time>2018-06-03T07:59:27.000Z</time>
      </trkpt>
      <trkpt lat="44.5677" lon="4.23841">
        <ele>457</ele>
        <time>2018-06-03T07:59:28.000Z</time>
      </trkpt>
      <trkpt lat="44.56772" lon="4.23843">
        <ele>457</ele>
        <time>2018-06-03T07:59:29.000Z</time>
      </trkpt>
      <trkpt lat="44.56775" lon="4.23844">
        <ele>457</ele>
        <time>2018-06-03T07:59:30.000Z</time>
      </trkpt>
      <trkpt lat="44.56778" lon="4.23845">
        <ele>457</ele>
        <time>2018-06-03T07:59:31.000Z</time>
      </trkpt>
      <trkpt lat="44.56781" lon="4.23845">
        <ele>457</ele>
        <time>2018-06-03T07:59:32.000Z</time>
      </trkpt>
      <trkpt lat="44.56784" lon="4.23845">
        <ele>457</ele>
        <time>2018-06-03T07:59:33.000Z</time>
      </trkpt>
      <trkpt lat="44.56786" lon="4.23846">
        <ele>457</ele>
        <time>2018-06-03T07:59:34.000Z</time>
      </trkpt>
      <trkpt lat="44.56788" lon="4.23846">
        <ele>457</ele>
        <time>2018-06-03T07:59:35.000Z</time>
      </trkpt>
      <trkpt lat="44.56791" lon="4.23846">
        <ele>457</ele>
        <time>2018-06-03T07:59:36.000Z</time>
      </trkpt>
      <trkpt lat="44.56793" lon="4.23846">
        <ele>457</ele>
        <time>2018-06-03T07:59:37.000Z</time>
      </trkpt>
      <trkpt lat="44.56795" lon="4.23846">
        <ele>457</ele>
        <time>2018-06-03T07:59:38.000Z</time>
      </trkpt>
      <trkpt lat="44.56798" lon="4.23847">
        <ele>458</ele>
        <time>2018-06-03T07:59:39.000Z</time>
      </trkpt>
      <trkpt lat="44.568" lon="4.23847">
        <ele>458</ele>
        <time>2018-06-03T07:59:40.000Z</time>
      </trkpt>
      <trkpt lat="44.56802" lon="4.23848">
        <ele>458</ele>
        <time>2018-06-03T07:59:41.000Z</time>
      </trkpt>
      <trkpt lat="44.56805" lon="4.23848">
        <ele>458</ele>
        <time>2018-06-03T07:59:42.000Z</time>
      </trkpt>
      <trkpt lat="44.56807" lon="4.23849">
        <ele>458</ele>
        <time>2018-06-03T07:59:43.000Z</time>
      </trkpt>
      <trkpt lat="44.56809" lon="4.23849">
        <ele>457</ele>
        <time>2018-06-03T07:59:44.000Z</time>
      </trkpt>
      <trkpt lat="44.56811" lon="4.2385">
        <ele>458</ele>
        <time>2018-06-03T07:59:45.000Z</time>
      </trkpt>
      <trkpt lat="44.56813" lon="4.23851">
        <ele>458</ele>
        <time>2018-06-03T07:59:46.000Z</time>
      </trkpt>
      <trkpt lat="44.56815" lon="4.23852">
        <ele>458</ele>
        <time>2018-06-03T07:59:47.000Z</time>
      </trkpt>
      <trkpt lat="44.56817" lon="4.23853">
        <ele>458</ele>
        <time>2018-06-03T07:59:48.000Z</time>
      </trkpt>
      <trkpt lat="44.56819" lon="4.23855">
        <ele>458</ele>
        <time>2018-06-03T07:59:49.000Z</time>
      </trkpt>
      <trkpt lat="44.5682" lon="4.23857">
        <ele>458</ele>
        <time>2018-06-03T07:59:50.000Z</time>
      </trkpt>
      <trkpt lat="44.56822" lon="4.23858">
        <ele>458</ele>
        <time>2018-06-03T07:59:51.000Z</time>
      </trkpt>
      <trkpt lat="44.56824" lon="4.23859">
        <ele>458</ele>
        <time>2018-06-03T07:59:52.000Z</time>
      </trkpt>
      <trkpt lat="44.56826" lon="4.2386">
        <ele>458</ele>
        <time>2018-06-03T07:59:53.000Z</time>
      </trkpt>
      <trkpt lat="44.56828" lon="4.23861">
        <ele>458</ele>
        <time>2018-06-03T07:59:54.000Z</time>
      </trkpt>
      <trkpt lat="44.5683" lon="4.23863">
        <ele>458</ele>
        <time>2018-06-03T07:59:55.000Z</time>
      </trkpt>
      <trkpt lat="44.56832" lon="4.23865">
        <ele>458</ele>
        <time>2018-06-03T07:59:56.000Z</time>
      </trkpt>
      <trkpt lat="44.56833" lon="4.23868">
        <ele>459</ele>
        <time>2018-06-03T07:59:57.000Z</time>
      </trkpt>
      <trkpt lat="44.56835" lon="4.23872">
        <ele>457</ele>
        <time>2018-06-03T07:59:58.000Z</time>
      </trkpt>
      <trkpt lat="44.56836" lon="4.23876">
        <ele>458</ele>
        <time>2018-06-03T07:59:59.000Z</time>
      </trkpt>
      <trkpt lat="44.56837" lon="4.2388">
        <ele>458</ele>
        <time>2018-06-03T08:00:00.000Z</time>
      </trkpt>
      <trkpt lat="44.56838" lon="4.23884">
        <ele>459</ele>
        <time>2018-06-03T08:00:01.000Z</time>
      </trkpt>
      <trkpt lat="44.56839" lon="4.23888">
        <ele>459</ele>
        <time>2018-06-03T08:00:02.000Z</time>
      </trkpt>
      <trkpt lat="44.56839" lon="4.23892">
        <ele>459</ele>
        <time>2018-06-03T08:00:03.000Z</time>
      </trkpt>
      <trkpt lat="44.5684" lon="4.23895">
        <ele>460</ele>
        <time>2018-06-03T08:00:04.000Z</time>
      </trkpt>
      <trkpt lat="44.56841" lon="4.23897">
        <ele>460</ele>
        <time>2018-06-03T08:00:05.000Z</time>
      </trkpt>
      <trkpt lat="44.56842" lon="4.23901">
        <ele>461</ele>
        <time>2018-06-03T08:00:06.000Z</time>
      </trkpt>
      <trkpt lat="44.56844" lon="4.23906">
        <ele>461</ele>
        <time>2018-06-03T08:00:07.000Z</time>
      </trkpt>
      <trkpt lat="44.56845" lon="4.2391">
        <ele>461</ele>
        <time>2018-06-03T08:00:08.000Z</time>
      </trkpt>
      <trkpt lat="44.56847" lon="4.23915">
        <ele>462</ele>
        <time>2018-06-03T08:00:09.000Z</time>
      </trkpt>
      <trkpt lat="44.56848" lon="4.2392">
        <ele>464</ele>
        <time>2018-06-03T08:00:10.000Z</time>
      </trkpt>
      <trkpt lat="44.5685" lon="4.23924">
        <ele>464</ele>
        <time>2018-06-03T08:00:11.000Z</time>
      </trkpt>
      <trkpt lat="44.56852" lon="4.23927">
        <ele>464</ele>
        <time>2018-06-03T08:00:12.000Z</time>
      </trkpt>
      <trkpt lat="44.56855" lon="4.2393">
        <ele>463</ele>
        <time>2018-06-03T08:00:13.000Z</time>
      </trkpt>
      <trkpt lat="44.56857" lon="4.23933">
        <ele>463</ele>
        <time>2018-06-03T08:00:14.000Z</time>
      </trkpt>
      <trkpt lat="44.5686" lon="4.23937">
        <ele>463</ele>
        <time>2018-06-03T08:00:15.000Z</time>
      </trkpt>
      <trkpt lat="44.56862" lon="4.23941">
        <ele>463</ele>
        <time>2018-06-03T08:00:16.000Z</time>
      </trkpt>
      <trkpt lat="44.56864" lon="4.23945">
        <ele>463</ele>
        <time>2018-06-03T08:00:17.000Z</time>
      </trkpt>
      <trkpt lat="44.56867" lon="4.23948">
        <ele>463</ele>
        <time>2018-06-03T08:00:18.000Z</time>
      </trkpt>
      <trkpt lat="44.56869" lon="4.23952">
        <ele>463</ele>
        <time>2018-06-03T08:00:19.000Z</time>
      </trkpt>
      <trkpt lat="44.56872" lon="4.23956">
        <ele>463</ele>
        <time>2018-06-03T08:00:20.000Z</time>
      </trkpt>
      <trkpt lat="44.56874" lon="4.23959">
        <ele>463</ele>
        <time>2018-06-03T08:00:21.000Z</time>
      </trkpt>
      <trkpt lat="44.56876" lon="4.23962">
        <ele>463</ele>
        <time>2018-06-03T08:00:22.000Z</time>
      </trkpt>
      <trkpt lat="44.56878" lon="4.23966">
        <ele>463</ele>
        <time>2018-06-03T08:00:23.000Z</time>
      </trkpt>
      <trkpt lat="44.5688" lon="4.23971">
        <ele>463</ele>
        <time>2018-06-03T08:00:24.000Z</time>
      </trkpt>
      <trkpt lat="44.56883" lon="4.23975">
        <ele>463</ele>
        <time>2018-06-03T08:00:25.000Z</time>
      </trkpt>
      <trkpt lat="44.56885" lon="4.23979">
        <ele>463</ele>
        <time>2018-06-03T08:00:26.000Z</time>
      </trkpt>
      <trkpt lat="44.56888" lon="4.23983">
        <ele>464</ele>
        <time>2018-06-03T08:00:27.000Z</time>
      </trkpt>
      <trkpt lat="44.56891" lon="4.23988">
        <ele>464</ele>
        <time>2018-06-03T08:00:28.000Z</time>
      </trkpt>
      <trkpt lat="44.56894" lon="4.23991">
        <ele>464</ele>
        <time>2018-06-03T08:00:29.000Z</time>
      </trkpt>
      <trkpt lat="44.56897" lon="4.23994">
        <ele>464</ele>
        <time>2018-06-03T08:00:30.000Z</time>
      </trkpt>
      <trkpt lat="44.56901" lon="4.23998">
        <ele>464</ele>
        <time>2018-06-03T08:00:31.000Z</time>
      </trkpt>
      <trkpt lat="44.56904" lon="4.24001">
        <ele>463</ele>
        <time>2018-06-03T08:00:32.000Z</time>
      </trkpt>
      <trkpt lat="44.56908" lon="4.24004">
        <ele>464</ele>
        <time>2018-06-03T08:00:33.000Z</time>
      </trkpt>
      <trkpt lat="44.56912" lon="4.24007">
        <ele>464</ele>
        <time>2018-06-03T08:00:34.000Z</time>
      </trkpt>
      <trkpt lat="44.56916" lon="4.24011">
        <ele>464</ele>
        <time>2018-06-03T08:00:35.000Z</time>
      </trkpt>
      <trkpt lat="44.56919" lon="4.24016">
        <ele>467</ele>
        <time>2018-06-03T08:00:36.000Z</time>
      </trkpt>
      <trkpt lat="44.56922" lon="4.24022">
        <ele>467</ele>
        <time>2018-06-03T08:00:37.000Z</time>
      </trkpt>
      <trkpt lat="44.56925" lon="4.24027">
        <ele>467</ele>
        <time>2018-06-03T08:00:38.000Z</time>
      </trkpt>
      <trkpt lat="44.56929" lon="4.24031">
        <ele>467</ele>
        <time>2018-06-03T08:00:39.000Z</time>
      </trkpt>
      <trkpt lat="44.56933" lon="4.24034">
        <ele>467</ele>
        <time>2018-06-03T08:00:40.000Z</time>
      </trkpt>
      <trkpt lat="44.56937" lon="4.24034">
        <ele>468</ele>
        <time>2018-06-03T08:00:41.000Z</time>
      </trkpt>
      <trkpt lat="44.56942" lon="4.24034">
        <ele>468</ele>
        <time>2018-06-03T08:00:42.000Z</time>
      </trkpt>
      <trkpt lat="44.56946" lon="4.24032">
        <ele>468</ele>
        <time>2018-06-03T08:00:43.000Z</time>
      </trkpt>
      <trkpt lat="44.5695" lon="4.24031">
        <ele>468</ele>
        <time>2018-06-03T08:00:44.000Z</time>
      </trkpt>
      <trkpt lat="44.56955" lon="4.24029">
        <ele>468</ele>
        <time>2018-06-03T08:00:45.000Z</time>
      </trkpt>
      <trkpt lat="44.56959" lon="4.24027">
        <ele>468</ele>
        <time>2018-06-03T08:00:46.000Z</time>
      </trkpt>
      <trkpt lat="44.56963" lon="4.24026">
        <ele>469</ele>
        <time>2018-06-03T08:00:47.000Z</time>
      </trkpt>
      <trkpt lat="44.56967" lon="4.24023">
        <ele>469</ele>
        <time>2018-06-03T08:00:48.000Z</time>
      </trkpt>
      <trkpt lat="44.56971" lon="4.24022">
        <ele>469</ele>
        <time>2018-06-03T08:00:49.000Z</time>
      </trkpt>
      <trkpt lat="44.56975" lon="4.24018">
        <ele>469</ele>
        <time>2018-06-03T08:00:50.000Z</time>
      </trkpt>
      <trkpt lat="44.56979" lon="4.24015">
        <ele>469</ele>
        <time>2018-06-03T08:00:51.000Z</time>
      </trkpt>
      <trkpt lat="44.56983" lon="4.2401">
        <ele>469</ele>
        <time>2018-06-03T08:00:52.000Z</time>
      </trkpt>
      <trkpt lat="44.56987" lon="4.24005">
        <ele>468</ele>
        <time>2018-06-03T08:00:53.000Z</time>
      </trkpt>
      <trkpt lat="44.56991" lon="4.24">
        <ele>468</ele>
        <time>2018-06-03T08:00:54.000Z</time>
      </trkpt>
      <trkpt lat="44.56995" lon="4.23994">
        <ele>467</ele>
        <time>2018-06-03T08:00:55.000Z</time>
      </trkpt>
      <trkpt lat="44.56998" lon="4.23989">
        <ele>466</ele>
        <time>2018-06-03T08:00:56.000Z</time>
      </trkpt>
      <trkpt lat="44.57002" lon="4.23983">
        <ele>468</ele>
        <time>2018-06-03T08:00:57.000Z</time>
      </trkpt>
      <trkpt lat="44.57006" lon="4.23977">
        <ele>468</ele>
        <time>2018-06-03T08:00:58.000Z</time>
      </trkpt>
      <trkpt lat="44.5701" lon="4.23971">
        <ele>468</ele>
        <time>2018-06-03T08:00:59.000Z</time>
      </trkpt>
      <trkpt lat="44.57014" lon="4.23965">
        <ele>467</ele>
        <time>2018-06-03T08:01:00.000Z</time>
      </trkpt>
      <trkpt lat="44.57018" lon="4.23959">
        <ele>467</ele>
        <time>2018-06-03T08:01:01.000Z</time>
      </trkpt>
      <trkpt lat="44.57021" lon="4.23952">
        <ele>467</ele>
        <time>2018-06-03T08:01:02.000Z</time>
      </trkpt>
      <trkpt lat="44.57024" lon="4.23945">
        <ele>466</ele>
        <time>2018-06-03T08:01:03.000Z</time>
      </trkpt>
      <trkpt lat="44.57027" lon="4.23937">
        <ele>466</ele>
        <time>2018-06-03T08:01:04.000Z</time>
      </trkpt>
      <trkpt lat="44.57029" lon="4.23929">
        <ele>465</ele>
        <time>2018-06-03T08:01:05.000Z</time>
      </trkpt>
      <trkpt lat="44.57029" lon="4.23921">
        <ele>465</ele>
        <time>2018-06-03T08:01:06.000Z</time>
      </trkpt>
      <trkpt lat="44.5703" lon="4.23912">
        <ele>459</ele>
        <time>2018-06-03T08:01:07.000Z</time>
      </trkpt>
      <trkpt lat="44.5703" lon="4.23904">
        <ele>459</ele>
        <time>2018-06-03T08:01:08.000Z</time>
      </trkpt>
      <trkpt lat="44.57031" lon="4.23895">
        <ele>459</ele>
        <time>2018-06-03T08:01:09.000Z</time>
      </trkpt>
      <trkpt lat="44.57034" lon="4.23887">
        <ele>459</ele>
        <time>2018-06-03T08:01:10.000Z</time>
      </trkpt>
      <trkpt lat="44.57037" lon="4.2388">
        <ele>459</ele>
        <time>2018-06-03T08:01:11.000Z</time>
      </trkpt>
      <trkpt lat="44.57042" lon="4.23874">
        <ele>459</ele>
        <time>2018-06-03T08:01:12.000Z</time>
      </trkpt>
      <trkpt lat="44.57047" lon="4.23869">
        <ele>459</ele>
        <time>2018-06-03T08:01:13.000Z</time>
      </trkpt>
      <trkpt lat="44.57052" lon="4.23864">
        <ele>459</ele>
        <time>2018-06-03T08:01:14.000Z</time>
      </trkpt>
      <trkpt lat="44.57056" lon="4.23859">
        <ele>459</ele>
        <time>2018-06-03T08:01:15.000Z</time>
      </trkpt>
      <trkpt lat="44.57061" lon="4.23854">
        <ele>459</ele>
        <time>2018-06-03T08:01:16.000Z</time>
      </trkpt>
      <trkpt lat="44.57065" lon="4.23849">
        <ele>459</ele>
        <time>2018-06-03T08:01:17.000Z</time>
      </trkpt>
      <trkpt lat="44.5707" lon="4.23844">
        <ele>459</ele>
        <time>2018-06-03T08:01:18.000Z</time>
      </trkpt>
      <trkpt lat="44.57074" lon="4.23839">
        <ele>459</ele>
        <time>2018-06-03T08:01:19.000Z</time>
      </trkpt>
      <trkpt lat="44.57078" lon="4.23833">
        <ele>457</ele>
        <time>2018-06-03T08:01:20.000Z</time>
      </trkpt>
      <trkpt lat="44.57082" lon="4.23827">
        <ele>457</ele>
        <time>2018-06-03T08:01:21.000Z</time>
      </trkpt>
      <trkpt lat="44.57085" lon="4.2382">
        <ele>457</ele>
        <time>2018-06-03T08:01:22.000Z</time>
      </trkpt>
      <trkpt lat="44.57089" lon="4.23813">
        <ele>457</ele>
        <time>2018-06-03T08:01:23.000Z</time>
      </trkpt>
      <trkpt lat="44.57092" lon="4.23806">
        <ele>456</ele>
        <time>2018-06-03T08:01:24.000Z</time>
      </trkpt>
      <trkpt lat="44.57096" lon="4.23799">
        <ele>455</ele>
        <time>2018-06-03T08:01:25.000Z</time>
      </trkpt>
      <trkpt lat="44.571" lon="4.23793">
        <ele>455</ele>
        <time>2018-06-03T08:01:26.000Z</time>
      </trkpt>
      <trkpt lat="44.57105" lon="4.23787">
        <ele>454</ele>
        <time>2018-06-03T08:01:27.000Z</time>
      </trkpt>
      <trkpt lat="44.5711" lon="4.23782">
        <ele>454</ele>
        <time>2018-06-03T08:01:28.000Z</time>
      </trkpt>
      <trkpt lat="44.57115" lon="4.23778">
        <ele>454</ele>
        <time>2018-06-03T08:01:29.000Z</time>
      </trkpt>
      <trkpt lat="44.57121" lon="4.23775">
        <ele>454</ele>
        <time>2018-06-03T08:01:30.000Z</time>
      </trkpt>
      <trkpt lat="44.57127" lon="4.23772">
        <ele>454</ele>
        <time>2018-06-03T08:01:31.000Z</time>
      </trkpt>
      <trkpt lat="44.57133" lon="4.2377">
        <ele>454</ele>
        <time>2018-06-03T08:01:32.000Z</time>
      </trkpt>
      <trkpt lat="44.5714" lon="4.23768">
        <ele>454</ele>
        <time>2018-06-03T08:01:33.000Z</time>
      </trkpt>
      <trkpt lat="44.57146" lon="4.23767">
        <ele>453</ele>
        <time>2018-06-03T08:01:34.000Z</time>
      </trkpt>
      <trkpt lat="44.57153" lon="4.23768">
        <ele>453</ele>
        <time>2018-06-03T08:01:35.000Z</time>
      </trkpt>
      <trkpt lat="44.5716" lon="4.2377">
        <ele>453</ele>
        <time>2018-06-03T08:01:36.000Z</time>
      </trkpt>
      <trkpt lat="44.57167" lon="4.23773">
        <ele>454</ele>
        <time>2018-06-03T08:01:37.000Z</time>
      </trkpt>
      <trkpt lat="44.57174" lon="4.23778">
        <ele>455</ele>
        <time>2018-06-03T08:01:38.000Z</time>
      </trkpt>
      <trkpt lat="44.57181" lon="4.23783">
        <ele>456</ele>
        <time>2018-06-03T08:01:39.000Z</time>
      </trkpt>
      <trkpt lat="44.57188" lon="4.23789">
        <ele>456</ele>
        <time>2018-06-03T08:01:40.000Z</time>
      </trkpt>
      <trkpt lat="44.57195" lon="4.23794">
        <ele>457</ele>
        <time>2018-06-03T08:01:41.000Z</time>
      </trkpt>
      <trkpt lat="44.57202" lon="4.23799">
        <ele>457</ele>
        <time>2018-06-03T08:01:42.000Z</time>
      </trkpt>
      <trkpt lat="44.5721" lon="4.23803">
        <ele>457</ele>
        <time>2018-06-03T08:01:43.000Z</time>
      </trkpt>
      <trkpt lat="44.57217" lon="4.23806">
        <ele>457</ele>
        <time>2018-06-03T08:01:44.000Z</time>
      </trkpt>
      <trkpt lat="44.57223" lon="4.23807">
        <ele>457</ele>
        <time>2018-06-03T08:01:45.000Z</time>
      </trkpt>
      <trkpt lat="44.57227" lon="4.23806">
        <ele>457</ele>
        <time>2018-06-03T08:01:46.000Z</time>
      </trkpt>
      <trkpt lat="44.5723" lon="4.23803">
        <ele>457</ele>
        <time>2018-06-03T08:01:47.000Z</time>
      </trkpt>
      <trkpt lat="44.57235" lon="4.238">
        <ele>456</ele>
        <time>2018-06-03T08:01:48.000Z</time>
      </trkpt>
      <trkpt lat="44.57239" lon="4.23796">
        <ele>456</ele>
        <time>2018-06-03T08:01:49.000Z</time>
      </trkpt>
      <trkpt lat="44.57242" lon="4.2379">
        <ele>455</ele>
        <time>2018-06-03T08:01:50.000Z</time>
      </trkpt>
      <trkpt lat="44.57243" lon="4.23783">
        <ele>455</ele>
        <time>2018-06-03T08:01:51.000Z</time>
      </trkpt>
      <trkpt lat="44.57243" lon="4.23775">
        <ele>454</ele>
        <time>2018-06-03T08:01:52.000Z</time>
      </trkpt>
      <trkpt lat="44.57242" lon="4.23767">
        <ele>453</ele>
        <time>2018-06-03T08:01:53.000Z</time>
      </trkpt>
      <trkpt lat="44.57241" lon="4.23759">
        <ele>452</ele>
        <time>2018-06-03T08:01:54.000Z</time>
      </trkpt>
      <trkpt lat="44.5724" lon="4.23751">
        <ele>451</ele>
        <time>2018-06-03T08:01:55.000Z</time>
      </trkpt>
      <trkpt lat="44.5724" lon="4.23743">
        <ele>449</ele>
        <time>2018-06-03T08:01:56.000Z</time>
      </trkpt>
      <trkpt lat="44.57239" lon="4.23735">
        <ele>449</ele>
        <time>2018-06-03T08:01:57.000Z</time>
      </trkpt>
      <trkpt lat="44.57239" lon="4.23728">
        <ele>449</ele>
        <time>2018-06-03T08:01:58.000Z</time>
      </trkpt>
      <trkpt lat="44.57238" lon="4.23722">
        <ele>449</ele>
        <time>2018-06-03T08:01:59.000Z</time>
      </trkpt>
      <trkpt lat="44.57238" lon="4.23716">
        <ele>449</ele>
        <time>2018-06-03T08:02:00.000Z</time>
      </trkpt>
      <trkpt lat="44.57237" lon="4.23712">
        <ele>450</ele>
        <time>2018-06-03T08:02:01.000Z</time>
      </trkpt>
      <trkpt lat="44.57237" lon="4.23707">
        <ele>450</ele>
        <time>2018-06-03T08:02:02.000Z</time>
      </trkpt>
      <trkpt lat="44.57236" lon="4.23703">
        <ele>450</ele>
        <time>2018-06-03T08:02:03.000Z</time>
      </trkpt>
      <trkpt lat="44.57236" lon="4.23699">
        <ele>450</ele>
        <time>2018-06-03T08:02:04.000Z</time>
      </trkpt>
      <trkpt lat="44.57236" lon="4.23695">
        <ele>450</ele>
        <time>2018-06-03T08:02:05.000Z</time>
      </trkpt>
      <trkpt lat="44.57236" lon="4.23691">
        <ele>450</ele>
        <time>2018-06-03T08:02:06.000Z</time>
      </trkpt>
      <trkpt lat="44.57236" lon="4.23687">
        <ele>450</ele>
        <time>2018-06-03T08:02:07.000Z</time>
      </trkpt>
      <trkpt lat="44.57236" lon="4.23683">
        <ele>451</ele>
        <time>2018-06-03T08:02:08.000Z</time>
      </trkpt>
      <trkpt lat="44.57237" lon="4.23679">
        <ele>451</ele>
        <time>2018-06-03T08:02:09.000Z</time>
      </trkpt>
      <trkpt lat="44.57237" lon="4.23675">
        <ele>451</ele>
        <time>2018-06-03T08:02:10.000Z</time>
      </trkpt>
      <trkpt lat="44.57237" lon="4.23671">
        <ele>451</ele>
        <time>2018-06-03T08:02:11.000Z</time>
      </trkpt>
      <trkpt lat="44.57237" lon="4.23667">
        <ele>451</ele>
        <time>2018-06-03T08:02:12.000Z</time>
      </trkpt>
      <trkpt lat="44.57237" lon="4.23663">
        <ele>452</ele>
        <time>2018-06-03T08:02:13.000Z</time>
      </trkpt>
      <trkpt lat="44.57238" lon="4.2366">
        <ele>452</ele>
        <time>2018-06-03T08:02:14.000Z</time>
      </trkpt>
      <trkpt lat="44.57238" lon="4.23656">
        <ele>452</ele>
        <time>2018-06-03T08:02:15.000Z</time>
      </trkpt>
      <trkpt lat="44.57238" lon="4.23652">
        <ele>452</ele>
        <time>2018-06-03T08:02:16.000Z</time>
      </trkpt>
      <trkpt lat="44.57239" lon="4.23649">
        <ele>452</ele>
        <time>2018-06-03T08:02:17.000Z</time>
      </trkpt>
      <trkpt lat="44.5724" lon="4.23645">
        <ele>452</ele>
        <time>2018-06-03T08:02:18.000Z</time>
      </trkpt>
      <trkpt lat="44.57241" lon="4.23641">
        <ele>452</ele>
        <time>2018-06-03T08:02:19.000Z</time>
      </trkpt>
      <trkpt lat="44.57241" lon="4.23637">
        <ele>452</ele>
        <time>2018-06-03T08:02:20.000Z</time>
      </trkpt>
      <trkpt lat="44.57241" lon="4.23633">
        <ele>452</ele>
        <time>2018-06-03T08:02:21.000Z</time>
      </trkpt>
      <trkpt lat="44.57242" lon="4.23628">
        <ele>453</ele>
        <time>2018-06-03T08:02:22.000Z</time>
      </trkpt>
      <trkpt lat="44.57242" lon="4.23623">
        <ele>453</ele>
        <time>2018-06-03T08:02:23.000Z</time>
      </trkpt>
      <trkpt lat="44.57241" lon="4.23617">
        <ele>453</ele>
        <time>2018-06-03T08:02:24.000Z</time>
      </trkpt>
      <trkpt lat="44.57241" lon="4.23612">
        <ele>454</ele>
        <time>2018-06-03T08:02:25.000Z</time>
      </trkpt>
      <trkpt lat="44.57241" lon="4.23607">
        <ele>454</ele>
        <time>2018-06-03T08:02:26.000Z</time>
      </trkpt>
      <trkpt lat="44.5724" lon="4.23602">
        <ele>454</ele>
        <time>2018-06-03T08:02:27.000Z</time>
      </trkpt>
      <trkpt lat="44.5724" lon="4.23597">
        <ele>455</ele>
        <time>2018-06-03T08:02:28.000Z</time>
      </trkpt>
      <trkpt lat="44.5724" lon="4.23592">
        <ele>456</ele>
        <time>2018-06-03T08:02:29.000Z</time>
      </trkpt>
      <trkpt lat="44.57239" lon="4.23586">
        <ele>456</ele>
        <time>2018-06-03T08:02:30.000Z</time>
      </trkpt>
      <trkpt lat="44.57239" lon="4.23581">
        <ele>457</ele>
        <time>2018-06-03T08:02:31.000Z</time>
      </trkpt>
      <trkpt lat="44.57239" lon="4.23575">
        <ele>457</ele>
        <time>2018-06-03T08:02:32.000Z</time>
      </trkpt>
      <trkpt lat="44.57238" lon="4.2357">
        <ele>456</ele>
        <time>2018-06-03T08:02:33.000Z</time>
      </trkpt>
      <trkpt lat="44.57238" lon="4.23564">
        <ele>456</ele>
        <time>2018-06-03T08:02:34.000Z</time>
      </trkpt>
      <trkpt lat="44.57238" lon="4.23559">
        <ele>456</ele>
        <time>2018-06-03T08:02:35.000Z</time>
      </trkpt>
      <trkpt lat="44.57238" lon="4.23553">
        <ele>456</ele>
        <time>2018-06-03T08:02:36.000Z</time>
      </trkpt>
      <trkpt lat="44.57237" lon="4.23547">
        <ele>456</ele>
        <time>2018-06-03T08:02:37.000Z</time>
      </trkpt>
      <trkpt lat="44.57237" lon="4.23542">
        <ele>456</ele>
        <time>2018-06-03T08:02:38.000Z</time>
      </trkpt>
      <trkpt lat="44.57237" lon="4.23536">
        <ele>456</ele>
        <time>2018-06-03T08:02:39.000Z</time>
      </trkpt>
      <trkpt lat="44.57236" lon="4.23531">
        <ele>456</ele>
        <time>2018-06-03T08:02:40.000Z</time>
      </trkpt>
      <trkpt lat="44.57236" lon="4.23525">
        <ele>456</ele>
        <time>2018-06-03T08:02:41.000Z</time>
      </trkpt>
      <trkpt lat="44.57236" lon="4.23519">
        <ele>457</ele>
        <time>2018-06-03T08:02:42.000Z</time>
      </trkpt>
      <trkpt lat="44.57236" lon="4.23513">
        <ele>457</ele>
        <time>2018-06-03T08:02:43.000Z</time>
      </trkpt>
      <trkpt lat="44.57236" lon="4.23508">
        <ele>458</ele>
        <time>2018-06-03T08:02:44.000Z</time>
      </trkpt>
      <trkpt lat="44.57237" lon="4.23502">
        <ele>458</ele>
        <time>2018-06-03T08:02:45.000Z</time>
      </trkpt>
      <trkpt lat="44.57237" lon="4.23496">
        <ele>458</ele>
        <time>2018-06-03T08:02:46.000Z</time>
      </trkpt>
      <trkpt lat="44.57237" lon="4.2349">
        <ele>458</ele>
        <time>2018-06-03T08:02:47.000Z</time>
      </trkpt>
      <trkpt lat="44.57238" lon="4.23484">
        <ele>458</ele>
        <time>2018-06-03T08:02:48.000Z</time>
      </trkpt>
      <trkpt lat="44.57239" lon="4.23478">
        <ele>457</ele>
        <time>2018-06-03T08:02:49.000Z</time>
      </trkpt>
      <trkpt lat="44.57239" lon="4.23472">
        <ele>457</ele>
        <time>2018-06-03T08:02:50.000Z</time>
      </trkpt>
      <trkpt lat="44.5724" lon="4.23466">
        <ele>457</ele>
        <time>2018-06-03T08:02:51.000Z</time>
      </trkpt>
      <trkpt lat="44.57241" lon="4.2346">
        <ele>457</ele>
        <time>2018-06-03T08:02:52.000Z</time>
      </trkpt>
      <trkpt lat="44.57243" lon="4.23454">
        <ele>457</ele>
        <time>2018-06-03T08:02:53.000Z</time>
      </trkpt>
      <trkpt lat="44.57244" lon="4.23448">
        <ele>457</ele>
        <time>2018-06-03T08:02:54.000Z</time>
      </trkpt>
      <trkpt lat="44.57245" lon="4.23442">
        <ele>457</ele>
        <time>2018-06-03T08:02:55.000Z</time>
      </trkpt>
      <trkpt lat="44.57246" lon="4.23436">
        <ele>457</ele>
        <time>2018-06-03T08:02:56.000Z</time>
      </trkpt>
      <trkpt lat="44.57248" lon="4.2343">
        <ele>457</ele>
        <time>2018-06-03T08:02:57.000Z</time>
      </trkpt>
      <trkpt lat="44.57249" lon="4.23424">
        <ele>458</ele>
        <time>2018-06-03T08:02:58.000Z</time>
      </trkpt>
      <trkpt lat="44.57251" lon="4.23418">
        <ele>459</ele>
        <time>2018-06-03T08:02:59.000Z</time>
      </trkpt>
      <trkpt lat="44.57252" lon="4.23411">
        <ele>460</ele>
        <time>2018-06-03T08:03:00.000Z</time>
      </trkpt>
      <trkpt lat="44.57254" lon="4.23405">
        <ele>461</ele>
        <time>2018-06-03T08:03:01.000Z</time>
      </trkpt>
      <trkpt lat="44.57256" lon="4.23399">
        <ele>462</ele>
        <time>2018-06-03T08:03:02.000Z</time>
      </trkpt>
      <trkpt lat="44.57257" lon="4.23392">
        <ele>462</ele>
        <time>2018-06-03T08:03:03.000Z</time>
      </trkpt>
      <trkpt lat="44.57259" lon="4.23386">
        <ele>462</ele>
        <time>2018-06-03T08:03:04.000Z</time>
      </trkpt>
      <trkpt lat="44.57261" lon="4.2338">
        <ele>463</ele>
        <time>2018-06-03T08:03:05.000Z</time>
      </trkpt>
      <trkpt lat="44.57262" lon="4.23373">
        <ele>463</ele>
        <time>2018-06-03T08:03:06.000Z</time>
      </trkpt>
      <trkpt lat="44.57264" lon="4.23367">
        <ele>463</ele>
        <time>2018-06-03T08:03:07.000Z</time>
      </trkpt>
      <trkpt lat="44.57266" lon="4.2336">
        <ele>462</ele>
        <time>2018-06-03T08:03:08.000Z</time>
      </trkpt>
      <trkpt lat="44.57268" lon="4.23354">
        <ele>462</ele>
        <time>2018-06-03T08:03:09.000Z</time>
      </trkpt>
      <trkpt lat="44.5727" lon="4.23347">
        <ele>462</ele>
        <time>2018-06-03T08:03:10.000Z</time>
      </trkpt>
      <trkpt lat="44.57271" lon="4.23341">
        <ele>462</ele>
        <time>2018-06-03T08:03:11.000Z</time>
      </trkpt>
      <trkpt lat="44.57273" lon="4.23334">
        <ele>462</ele>
        <time>2018-06-03T08:03:12.000Z</time>
      </trkpt>
      <trkpt lat="44.57274" lon="4.23327">
        <ele>462</ele>
        <time>2018-06-03T08:03:13.000Z</time>
      </trkpt>
      <trkpt lat="44.57275" lon="4.2332">
        <ele>462</ele>
        <time>2018-06-03T08:03:14.000Z</time>
      </trkpt>
      <trkpt lat="44.57276" lon="4.23313">
        <ele>462</ele>
        <time>2018-06-03T08:03:15.000Z</time>
      </trkpt>
      <trkpt lat="44.57277" lon="4.23307">
        <ele>462</ele>
        <time>2018-06-03T08:03:16.000Z</time>
      </trkpt>
      <trkpt lat="44.57277" lon="4.233">
        <ele>462</ele>
        <time>2018-06-03T08:03:17.000Z</time>
      </trkpt>
      <trkpt lat="44.57278" lon="4.23293">
        <ele>462</ele>
        <time>2018-06-03T08:03:18.000Z</time>
      </trkpt>
      <trkpt lat="44.57279" lon="4.23286">
        <ele>462</ele>
        <time>2018-06-03T08:03:19.000Z</time>
      </trkpt>
      <trkpt lat="44.57279" lon="4.2328">
        <ele>462</ele>
        <time>2018-06-03T08:03:20.000Z</time>
      </trkpt>
      <trkpt lat="44.57281" lon="4.23274">
        <ele>462</ele>
        <time>2018-06-03T08:03:21.000Z</time>
      </trkpt>
      <trkpt lat="44.57282" lon="4.23268">
        <ele>462</ele>
        <time>2018-06-03T08:03:22.000Z</time>
      </trkpt>
      <trkpt lat="44.57283" lon="4.23262">
        <ele>462</ele>
        <time>2018-06-03T08:03:23.000Z</time>
      </trkpt>
      <trkpt lat="44.57285" lon="4.23257">
        <ele>463</ele>
        <time>2018-06-03T08:03:24.000Z</time>
      </trkpt>
      <trkpt lat="44.57286" lon="4.23252">
        <ele>463</ele>
        <time>2018-06-03T08:03:25.000Z</time>
      </trkpt>
      <trkpt lat="44.57288" lon="4.23247">
        <ele>463</ele>
        <time>2018-06-03T08:03:26.000Z</time>
      </trkpt>
      <trkpt lat="44.5729" lon="4.23242">
        <ele>463</ele>
        <time>2018-06-03T08:03:27.000Z</time>
      </trkpt>
      <trkpt lat="44.57291" lon="4.23238">
        <ele>464</ele>
        <time>2018-06-03T08:03:28.000Z</time>
      </trkpt>
      <trkpt lat="44.57293" lon="4.23234">
        <ele>464</ele>
        <time>2018-06-03T08:03:29.000Z</time>
      </trkpt>
      <trkpt lat="44.57295" lon="4.2323">
        <ele>464</ele>
        <time>2018-06-03T08:03:30.000Z</time>
      </trkpt>
      <trkpt lat="44.57297" lon="4.23226">
        <ele>464</ele>
        <time>2018-06-03T08:03:31.000Z</time>
      </trkpt>
      <trkpt lat="44.57299" lon="4.23222">
        <ele>464</ele>
        <time>2018-06-03T08:03:32.000Z</time>
      </trkpt>
      <trkpt lat="44.57301" lon="4.23218">
        <ele>465</ele>
        <time>2018-06-03T08:03:33.000Z</time>
      </trkpt>
      <trkpt lat="44.57303" lon="4.23213">
        <ele>465</ele>
        <time>2018-06-03T08:03:34.000Z</time>
      </trkpt>
      <trkpt lat="44.57305" lon="4.23209">
        <ele>465</ele>
        <time>2018-06-03T08:03:35.000Z</time>
      </trkpt>
      <trkpt lat="44.57307" lon="4.23205">
        <ele>465</ele>
        <time>2018-06-03T08:03:36.000Z</time>
      </trkpt>
      <trkpt lat="44.57309" lon="4.23201">
        <ele>465</ele>
        <time>2018-06-03T08:03:37.000Z</time>
      </trkpt>
      <trkpt lat="44.57311" lon="4.23197">
        <ele>465</ele>
        <time>2018-06-03T08:03:38.000Z</time>
      </trkpt>
      <trkpt lat="44.57312" lon="4.23192">
        <ele>466</ele>
        <time>2018-06-03T08:03:39.000Z</time>
      </trkpt>
      <trkpt lat="44.57314" lon="4.23188">
        <ele>466</ele>
        <time>2018-06-03T08:03:40.000Z</time>
      </trkpt>
      <trkpt lat="44.57316" lon="4.23184">
        <ele>466</ele>
        <time>2018-06-03T08:03:41.000Z</time>
      </trkpt>
      <trkpt lat="44.57317" lon="4.23179">
        <ele>467</ele>
        <time>2018-06-03T08:03:42.000Z</time>
      </trkpt>
      <trkpt lat="44.57318" lon="4.23175">
        <ele>467</ele>
        <time>2018-06-03T08:03:43.000Z</time>
      </trkpt>
      <trkpt lat="44.57319" lon="4.2317">
        <ele>467</ele>
        <time>2018-06-03T08:03:44.000Z</time>
      </trkpt>
      <trkpt lat="44.5732" lon="4.23165">
        <ele>469</ele>
        <time>2018-06-03T08:03:45.000Z</time>
      </trkpt>
      <trkpt lat="44.57321" lon="4.2316">
        <ele>469</ele>
        <time>2018-06-03T08:03:46.000Z</time>
      </trkpt>
      <trkpt lat="44.57321" lon="4.23156">
        <ele>469</ele>
        <time>2018-06-03T08:03:47.000Z</time>
      </trkpt>
      <trkpt lat="44.57322" lon="4.23151">
        <ele>469</ele>
        <time>2018-06-03T08:03:48.000Z</time>
      </trkpt>
      <trkpt lat="44.57323" lon="4.23146">
        <ele>469</ele>
        <time>2018-06-03T08:03:49.000Z</time>
      </trkpt>
      <trkpt lat="44.57323" lon="4.23141">
        <ele>469</ele>
        <time>2018-06-03T08:03:50.000Z</time>
      </trkpt>
      <trkpt lat="44.57324" lon="4.23137">
        <ele>469</ele>
        <time>2018-06-03T08:03:51.000Z</time>
      </trkpt>
      <trkpt lat="44.57325" lon="4.23132">
        <ele>469</ele>
        <time>2018-06-03T08:03:52.000Z</time>
      </trkpt>
      <trkpt lat="44.57326" lon="4.23128">
        <ele>469</ele>
        <time>2018-06-03T08:03:53.000Z</time>
      </trkpt>
      <trkpt lat="44.57327" lon="4.23123">
        <ele>470</ele>
        <time>2018-06-03T08:03:54.000Z</time>
      </trkpt>
      <trkpt lat="44.57327" lon="4.23119">
        <ele>470</ele>
        <time>2018-06-03T08:03:55.000Z</time>
      </trkpt>
      <trkpt lat="44.57328" lon="4.23114">
        <ele>470</ele>
        <time>2018-06-03T08:03:56.000Z</time>
      </trkpt>
      <trkpt lat="44.57329" lon="4.2311">
        <ele>471</ele>
        <time>2018-06-03T08:03:57.000Z</time>
      </trkpt>
      <trkpt lat="44.5733" lon="4.23106">
        <ele>471</ele>
        <time>2018-06-03T08:03:58.000Z</time>
      </trkpt>
      <trkpt lat="44.57331" lon="4.23102">
        <ele>472</ele>
        <time>2018-06-03T08:03:59.000Z</time>
      </trkpt>
      <trkpt lat="44.57331" lon="4.23098">
        <ele>473</ele>
        <time>2018-06-03T08:04:00.000Z</time>
      </trkpt>
      <trkpt lat="44.57332" lon="4.23094">
        <ele>474</ele>
        <time>2018-06-03T08:04:01.000Z</time>
      </trkpt>
      <trkpt lat="44.57333" lon="4.2309">
        <ele>475</ele>
        <time>2018-06-03T08:04:02.000Z</time>
      </trkpt>
      <trkpt lat="44.57334" lon="4.23086">
        <ele>478</ele>
        <time>2018-06-03T08:04:03.000Z</time>
      </trkpt>
      <trkpt lat="44.57335" lon="4.23081">
        <ele>478</ele>
        <time>2018-06-03T08:04:04.000Z</time>
      </trkpt>
      <trkpt lat="44.57336" lon="4.23077">
        <ele>480</ele>
        <time>2018-06-03T08:04:05.000Z</time>
      </trkpt>
      <trkpt lat="44.57337" lon="4.23073">
        <ele>481</ele>
        <time>2018-06-03T08:04:06.000Z</time>
      </trkpt>
      <trkpt lat="44.57338" lon="4.23069">
        <ele>483</ele>
        <time>2018-06-03T08:04:07.000Z</time>
      </trkpt>
      <trkpt lat="44.57339" lon="4.23065">
        <ele>483</ele>
        <time>2018-06-03T08:04:08.000Z</time>
      </trkpt>
      <trkpt lat="44.5734" lon="4.2306">
        <ele>484</ele>
        <time>2018-06-03T08:04:09.000Z</time>
      </trkpt>
      <trkpt lat="44.57341" lon="4.23056">
        <ele>485</ele>
        <time>2018-06-03T08:04:10.000Z</time>
      </trkpt>
      <trkpt lat="44.57342" lon="4.23052">
        <ele>485</ele>
        <time>2018-06-03T08:04:11.000Z</time>
      </trkpt>
      <trkpt lat="44.57344" lon="4.23048">
        <ele>486</ele>
        <time>2018-06-03T08:04:12.000Z</time>
      </trkpt>
      <trkpt lat="44.57344" lon="4.23043">
        <ele>486</ele>
        <time>2018-06-03T08:04:13.000Z</time>
      </trkpt>
      <trkpt lat="44.57346" lon="4.23038">
        <ele>486</ele>
        <time>2018-06-03T08:04:14.000Z</time>
      </trkpt>
      <trkpt lat="44.57346" lon="4.23034">
        <ele>486</ele>
        <time>2018-06-03T08:04:15.000Z</time>
      </trkpt>
      <trkpt lat="44.57347" lon="4.23028">
        <ele>486</ele>
        <time>2018-06-03T08:04:16.000Z</time>
      </trkpt>
      <trkpt lat="44.57347" lon="4.23023">
        <ele>486</ele>
        <time>2018-06-03T08:04:17.000Z</time>
      </trkpt>
      <trkpt lat="44.57347" lon="4.23018">
        <ele>485</ele>
        <time>2018-06-03T08:04:18.000Z</time>
      </trkpt>
      <trkpt lat="44.57347" lon="4.23014">
        <ele>485</ele>
        <time>2018-06-03T08:04:19.000Z</time>
      </trkpt>
      <trkpt lat="44.57346" lon="4.23009">
        <ele>484</ele>
        <time>2018-06-03T08:04:20.000Z</time>
      </trkpt>
      <trkpt lat="44.57346" lon="4.23006">
        <ele>484</ele>
        <time>2018-06-03T08:04:21.000Z</time>
      </trkpt>
      <trkpt lat="44.57345" lon="4.23002">
        <ele>483</ele>
        <time>2018-06-03T08:04:22.000Z</time>
      </trkpt>
      <trkpt lat="44.57345" lon="4.22998">
        <ele>484</ele>
        <time>2018-06-03T08:04:23.000Z</time>
      </trkpt>
      <trkpt lat="44.57346" lon="4.22996">
        <ele>485</ele>
        <time>2018-06-03T08:04:24.000Z</time>
      </trkpt>
      <trkpt lat="44.57348" lon="4.22995">
        <ele>485</ele>
        <time>2018-06-03T08:04:25.000Z</time>
      </trkpt>
      <trkpt lat="44.57349" lon="4.22996">
        <ele>486</ele>
        <time>2018-06-03T08:04:26.000Z</time>
      </trkpt>
      <trkpt lat="44.5735" lon="4.22998">
        <ele>486</ele>
        <time>2018-06-03T08:04:27.000Z</time>
      </trkpt>
      <trkpt lat="44.57351" lon="4.23001">
        <ele>485</ele>
        <time>2018-06-03T08:04:28.000Z</time>
      </trkpt>
      <trkpt lat="44.57351" lon="4.23004">
        <ele>485</ele>
        <time>2018-06-03T08:04:29.000Z</time>
      </trkpt>
      <trkpt lat="44.57352" lon="4.23007">
        <ele>485</ele>
        <time>2018-06-03T08:04:30.000Z</time>
      </trkpt>
      <trkpt lat="44.57352" lon="4.2301">
        <ele>485</ele>
        <time>2018-06-03T08:04:31.000Z</time>
      </trkpt>
      <trkpt lat="44.57353" lon="4.23013">
        <ele>486</ele>
        <time>2018-06-03T08:04:32.000Z</time>
      </trkpt>
      <trkpt lat="44.57354" lon="4.23016">
        <ele>486</ele>
        <time>2018-06-03T08:04:33.000Z</time>
      </trkpt>
      <trkpt lat="44.57355" lon="4.23019">
        <ele>486</ele>
        <time>2018-06-03T08:04:34.000Z</time>
      </trkpt>
      <trkpt lat="44.57356" lon="4.23023">
        <ele>487</ele>
        <time>2018-06-03T08:04:35.000Z</time>
      </trkpt>
      <trkpt lat="44.57357" lon="4.23026">
        <ele>487</ele>
        <time>2018-06-03T08:04:36.000Z</time>
      </trkpt>
      <trkpt lat="44.57358" lon="4.2303">
        <ele>487</ele>
        <time>2018-06-03T08:04:37.000Z</time>
      </trkpt>
      <trkpt lat="44.57359" lon="4.23033">
        <ele>488</ele>
        <time>2018-06-03T08:04:38.000Z</time>
      </trkpt>
      <trkpt lat="44.5736" lon="4.23036">
        <ele>488</ele>
        <time>2018-06-03T08:04:39.000Z</time>
      </trkpt>
      <trkpt lat="44.57361" lon="4.23039">
        <ele>488</ele>
        <time>2018-06-03T08:04:40.000Z</time>
      </trkpt>
      <trkpt lat="44.57362" lon="4.23043">
        <ele>488</ele>
        <time>2018-06-03T08:04:41.000Z</time>
      </trkpt>
      <trkpt lat="44.57363" lon="4.23046">
        <ele>488</ele>
        <time>2018-06-03T08:04:42.000Z</time>
      </trkpt>
      <trkpt lat="44.57364" lon="4.23049">
        <ele>488</ele>
        <time>2018-06-03T08:04:43.000Z</time>
      </trkpt>
      <trkpt lat="44.57364" lon="4.23052">
        <ele>488</ele>
        <time>2018-06-03T08:04:44.000Z</time>
      </trkpt>
      <trkpt lat="44.57364" lon="4.23056">
        <ele>488</ele>
        <time>2018-06-03T08:04:45.000Z</time>
      </trkpt>
      <trkpt lat="44.57364" lon="4.23059">
        <ele>488</ele>
        <time>2018-06-03T08:04:46.000Z</time>
      </trkpt>
      <trkpt lat="44.57364" lon="4.23062">
        <ele>488</ele>
        <time>2018-06-03T08:04:47.000Z</time>
      </trkpt>
      <trkpt lat="44.57364" lon="4.23065">
        <ele>488</ele>
        <time>2018-06-03T08:04:48.000Z</time>
      </trkpt>
      <trkpt lat="44.57364" lon="4.23069">
        <ele>487</ele>
        <time>2018-06-03T08:04:49.000Z</time>
      </trkpt>
      <trkpt lat="44.57364" lon="4.23072">
        <ele>487</ele>
        <time>2018-06-03T08:04:50.000Z</time>
      </trkpt>
      <trkpt lat="44.57365" lon="4.23075">
        <ele>488</ele>
        <time>2018-06-03T08:04:51.000Z</time>
      </trkpt>
      <trkpt lat="44.57366" lon="4.23078">
        <ele>488</ele>
        <time>2018-06-03T08:04:52.000Z</time>
      </trkpt>
      <trkpt lat="44.57366" lon="4.23081">
        <ele>488</ele>
        <time>2018-06-03T08:04:53.000Z</time>
      </trkpt>
      <trkpt lat="44.57367" lon="4.23084">
        <ele>485</ele>
        <time>2018-06-03T08:04:54.000Z</time>
      </trkpt>
      <trkpt lat="44.57369" lon="4.23087">
        <ele>485</ele>
        <time>2018-06-03T08:04:55.000Z</time>
      </trkpt>
      <trkpt lat="44.5737" lon="4.2309">
        <ele>486</ele>
        <time>2018-06-03T08:04:56.000Z</time>
      </trkpt>
      <trkpt lat="44.57371" lon="4.23092">
        <ele>486</ele>
        <time>2018-06-03T08:04:57.000Z</time>
      </trkpt>
      <trkpt lat="44.57373" lon="4.23095">
        <ele>486</ele>
        <time>2018-06-03T08:04:58.000Z</time>
      </trkpt>
      <trkpt lat="44.57374" lon="4.23097">
        <ele>486</ele>
        <time>2018-06-03T08:04:59.000Z</time>
      </trkpt>
      <trkpt lat="44.57376" lon="4.23099">
        <ele>486</ele>
        <time>2018-06-03T08:05:00.000Z</time>
      </trkpt>
      <trkpt lat="44.57378" lon="4.231">
        <ele>487</ele>
        <time>2018-06-03T08:05:01.000Z</time>
      </trkpt>
      <trkpt lat="44.5738" lon="4.23102">
        <ele>487</ele>
        <time>2018-06-03T08:05:02.000Z</time>
      </trkpt>
      <trkpt lat="44.57382" lon="4.23104">
        <ele>487</ele>
        <time>2018-06-03T08:05:03.000Z</time>
      </trkpt>
      <trkpt lat="44.57384" lon="4.23106">
        <ele>488</ele>
        <time>2018-06-03T08:05:04.000Z</time>
      </trkpt>
      <trkpt lat="44.57385" lon="4.23109">
        <ele>488</ele>
        <time>2018-06-03T08:05:05.000Z</time>
      </trkpt>
      <trkpt lat="44.57387" lon="4.23111">
        <ele>488</ele>
        <time>2018-06-03T08:05:06.000Z</time>
      </trkpt>
      <trkpt lat="44.57389" lon="4.23113">
        <ele>488</ele>
        <time>2018-06-03T08:05:07.000Z</time>
      </trkpt>
      <trkpt lat="44.57391" lon="4.23115">
        <ele>488</ele>
        <time>2018-06-03T08:05:08.000Z</time>
      </trkpt>
      <trkpt lat="44.57392" lon="4.23118">
        <ele>488</ele>
        <time>2018-06-03T08:05:09.000Z</time>
      </trkpt>
      <trkpt lat="44.57394" lon="4.2312">
        <ele>488</ele>
        <time>2018-06-03T08:05:10.000Z</time>
      </trkpt>
      <trkpt lat="44.57396" lon="4.23122">
        <ele>488</ele>
        <time>2018-06-03T08:05:11.000Z</time>
      </trkpt>
      <trkpt lat="44.57397" lon="4.23124">
        <ele>488</ele>
        <time>2018-06-03T08:05:12.000Z</time>
      </trkpt>
      <trkpt lat="44.57399" lon="4.23127">
        <ele>488</ele>
        <time>2018-06-03T08:05:13.000Z</time>
      </trkpt>
      <trkpt lat="44.57401" lon="4.23129">
        <ele>488</ele>
        <time>2018-06-03T08:05:14.000Z</time>
      </trkpt>
      <trkpt lat="44.57402" lon="4.23131">
        <ele>488</ele>
        <time>2018-06-03T08:05:15.000Z</time>
      </trkpt>
      <trkpt lat="44.57404" lon="4.23134">
        <ele>488</ele>
        <time>2018-06-03T08:05:16.000Z</time>
      </trkpt>
      <trkpt lat="44.57405" lon="4.23136">
        <ele>488</ele>
        <time>2018-06-03T08:05:17.000Z</time>
      </trkpt>
      <trkpt lat="44.57407" lon="4.23138">
        <ele>488</ele>
        <time>2018-06-03T08:05:18.000Z</time>
      </trkpt>
      <trkpt lat="44.57409" lon="4.23139">
        <ele>488</ele>
        <time>2018-06-03T08:05:19.000Z</time>
      </trkpt>
      <trkpt lat="44.57411" lon="4.23141">
        <ele>488</ele>
        <time>2018-06-03T08:05:20.000Z</time>
      </trkpt>
      <trkpt lat="44.57412" lon="4.23143">
        <ele>488</ele>
        <time>2018-06-03T08:05:21.000Z</time>
      </trkpt>
      <trkpt lat="44.57414" lon="4.23144">
        <ele>488</ele>
        <time>2018-06-03T08:05:22.000Z</time>
      </trkpt>
      <trkpt lat="44.57416" lon="4.23146">
        <ele>489</ele>
        <time>2018-06-03T08:05:23.000Z</time>
      </trkpt>
      <trkpt lat="44.57418" lon="4.23148">
        <ele>501</ele>
        <time>2018-06-03T08:05:24.000Z</time>
      </trkpt>
      <trkpt lat="44.5742" lon="4.23149">
        <ele>501</ele>
        <time>2018-06-03T08:05:25.000Z</time>
      </trkpt>
      <trkpt lat="44.57422" lon="4.23151">
        <ele>500</ele>
        <time>2018-06-03T08:05:26.000Z</time>
      </trkpt>
      <trkpt lat="44.57424" lon="4.23153">
        <ele>500</ele>
        <time>2018-06-03T08:05:27.000Z</time>
      </trkpt>
      <trkpt lat="44.57425" lon="4.23155">
        <ele>500</ele>
        <time>2018-06-03T08:05:28.000Z</time>
      </trkpt>
      <trkpt lat="44.57427" lon="4.23157">
        <ele>500</ele>
        <time>2018-06-03T08:05:29.000Z</time>
      </trkpt>
      <trkpt lat="44.57429" lon="4.23159">
        <ele>500</ele>
        <time>2018-06-03T08:05:30.000Z</time>
      </trkpt>
      <trkpt lat="44.57431" lon="4.2316">
        <ele>501</ele>
        <time>2018-06-03T08:05:31.000Z</time>
      </trkpt>
      <trkpt lat="44.57433" lon="4.23161">
        <ele>501</ele>
        <time>2018-06-03T08:05:32.000Z</time>
      </trkpt>
      <trkpt lat="44.57435" lon="4.23162">
        <ele>502</ele>
        <time>2018-06-03T08:05:33.000Z</time>
      </trkpt>
      <trkpt lat="44.57437" lon="4.23163">
        <ele>503</ele>
        <time>2018-06-03T08:05:34.000Z</time>
      </trkpt>
      <trkpt lat="44.57439" lon="4.23165">
        <ele>503</ele>
        <time>2018-06-03T08:05:35.000Z</time>
      </trkpt>
      <trkpt lat="44.57441" lon="4.23167">
        <ele>500</ele>
        <time>2018-06-03T08:05:36.000Z</time>
      </trkpt>
      <trkpt lat="44.57443" lon="4.2317">
        <ele>501</ele>
        <time>2018-06-03T08:05:37.000Z</time>
      </trkpt>
      <trkpt lat="44.57444" lon="4.23173">
        <ele>501</ele>
        <time>2018-06-03T08:05:38.000Z</time>
      </trkpt>
      <trkpt lat="44.57444" lon="4.23177">
        <ele>501</ele>
        <time>2018-06-03T08:05:39.000Z</time>
      </trkpt>
      <trkpt lat="44.57444" lon="4.2318">
        <ele>501</ele>
        <time>2018-06-03T08:05:40.000Z</time>
      </trkpt>
      <trkpt lat="44.57443" lon="4.23182">
        <ele>501</ele>
        <time>2018-06-03T08:05:41.000Z</time>
      </trkpt>
      <trkpt lat="44.57443" lon="4.23184">
        <ele>501</ele>
        <time>2018-06-03T08:05:42.000Z</time>
      </trkpt>
      <trkpt lat="44.57442" lon="4.23186">
        <ele>501</ele>
        <time>2018-06-03T08:05:43.000Z</time>
      </trkpt>
      <trkpt lat="44.57441" lon="4.23188">
        <ele>501</ele>
        <time>2018-06-03T08:05:44.000Z</time>
      </trkpt>
      <trkpt lat="44.5744" lon="4.23189">
        <ele>501</ele>
        <time>2018-06-03T08:05:45.000Z</time>
      </trkpt>
      <trkpt lat="44.57439" lon="4.23192">
        <ele>501</ele>
        <time>2018-06-03T08:05:46.000Z</time>
      </trkpt>
      <trkpt lat="44.57438" lon="4.23195">
        <ele>501</ele>
        <time>2018-06-03T08:05:47.000Z</time>
      </trkpt>
      <trkpt lat="44.57438" lon="4.23199">
        <ele>501</ele>
        <time>2018-06-03T08:05:48.000Z</time>
      </trkpt>
      <trkpt lat="44.57437" lon="4.23202">
        <ele>501</ele>
        <time>2018-06-03T08:05:49.000Z</time>
      </trkpt>
      <trkpt lat="44.57436" lon="4.23205">
        <ele>501</ele>
        <time>2018-06-03T08:05:50.000Z</time>
      </trkpt>
      <trkpt lat="44.57436" lon="4.23208">
        <ele>501</ele>
        <time>2018-06-03T08:05:51.000Z</time>
      </trkpt>
      <trkpt lat="44.57435" lon="4.23212">
        <ele>500</ele>
        <time>2018-06-03T08:05:52.000Z</time>
      </trkpt>
      <trkpt lat="44.57435" lon="4.23215">
        <ele>500</ele>
        <time>2018-06-03T08:05:53.000Z</time>
      </trkpt>
      <trkpt lat="44.57435" lon="4.23218">
        <ele>500</ele>
        <time>2018-06-03T08:05:54.000Z</time>
      </trkpt>
      <trkpt lat="44.57436" lon="4.23221">
        <ele>500</ele>
        <time>2018-06-03T08:05:55.000Z</time>
      </trkpt>
      <trkpt lat="44.57436" lon="4.23225">
        <ele>500</ele>
        <time>2018-06-03T08:05:56.000Z</time>
      </trkpt>
      <trkpt lat="44.57437" lon="4.23228">
        <ele>499</ele>
        <time>2018-06-03T08:05:57.000Z</time>
      </trkpt>
      <trkpt lat="44.57438" lon="4.23231">
        <ele>499</ele>
        <time>2018-06-03T08:05:58.000Z</time>
      </trkpt>
      <trkpt lat="44.57439" lon="4.23235">
        <ele>499</ele>
        <time>2018-06-03T08:05:59.000Z</time>
      </trkpt>
      <trkpt lat="44.5744" lon="4.23237">
        <ele>499</ele>
        <time>2018-06-03T08:06:00.000Z</time>
      </trkpt>
      <trkpt lat="44.57441" lon="4.2324">
        <ele>499</ele>
        <time>2018-06-03T08:06:01.000Z</time>
      </trkpt>
      <trkpt lat="44.57442" lon="4.23242">
        <ele>499</ele>
        <time>2018-06-03T08:06:02.000Z</time>
      </trkpt>
      <trkpt lat="44.57443" lon="4.23244">
        <ele>500</ele>
        <time>2018-06-03T08:06:03.000Z</time>
      </trkpt>
      <trkpt lat="44.57445" lon="4.23246">
        <ele>500</ele>
        <time>2018-06-03T08:06:04.000Z</time>
      </trkpt>
      <trkpt lat="44.57446" lon="4.23249">
        <ele>500</ele>
        <time>2018-06-03T08:06:05.000Z</time>
      </trkpt>
      <trkpt lat="44.57448" lon="4.23252">
        <ele>499</ele>
        <time>2018-06-03T08:06:06.000Z</time>
      </trkpt>
      <trkpt lat="44.57449" lon="4.23255">
        <ele>499</ele>
        <time>2018-06-03T08:06:07.000Z</time>
      </trkpt>
      <trkpt lat="44.5745" lon="4.23257">
        <ele>500</ele>
        <time>2018-06-03T08:06:08.000Z</time>
      </trkpt>
      <trkpt lat="44.57451" lon="4.2326">
        <ele>500</ele>
        <time>2018-06-03T08:06:09.000Z</time>
      </trkpt>
      <trkpt lat="44.57452" lon="4.23264">
        <ele>500</ele>
        <time>2018-06-03T08:06:10.000Z</time>
      </trkpt>
      <trkpt lat="44.57453" lon="4.23267">
        <ele>500</ele>
        <time>2018-06-03T08:06:11.000Z</time>
      </trkpt>
      <trkpt lat="44.57454" lon="4.2327">
        <ele>501</ele>
        <time>2018-06-03T08:06:12.000Z</time>
      </trkpt>
      <trkpt lat="44.57456" lon="4.23273">
        <ele>501</ele>
        <time>2018-06-03T08:06:13.000Z</time>
      </trkpt>
      <trkpt lat="44.57457" lon="4.23275">
        <ele>501</ele>
        <time>2018-06-03T08:06:14.000Z</time>
      </trkpt>
      <trkpt lat="44.57459" lon="4.23277">
        <ele>501</ele>
        <time>2018-06-03T08:06:15.000Z</time>
      </trkpt>
      <trkpt lat="44.5746" lon="4.2328">
        <ele>501</ele>
        <time>2018-06-03T08:06:16.000Z</time>
      </trkpt>
      <trkpt lat="44.57462" lon="4.23282">
        <ele>502</ele>
        <time>2018-06-03T08:06:17.000Z</time>
      </trkpt>
      <trkpt lat="44.57463" lon="4.23284">
        <ele>502</ele>
        <time>2018-06-03T08:06:18.000Z</time>
      </trkpt>
      <trkpt lat="44.57465" lon="4.23287">
        <ele>502</ele>
        <time>2018-06-03T08:06:19.000Z</time>
      </trkpt>
      <trkpt lat="44.57466" lon="4.23289">
        <ele>502</ele>
        <time>2018-06-03T08:06:20.000Z</time>
      </trkpt>
      <trkpt lat="44.57468" lon="4.23292">
        <ele>502</ele>
        <time>2018-06-03T08:06:21.000Z</time>
      </trkpt>
      <trkpt lat="44.5747" lon="4.23295">
        <ele>503</ele>
        <time>2018-06-03T08:06:22.000Z</time>
      </trkpt>
      <trkpt lat="44.57471" lon="4.23298">
        <ele>503</ele>
        <time>2018-06-03T08:06:23.000Z</time>
      </trkpt>
      <trkpt lat="44.57473" lon="4.23301">
        <ele>503</ele>
        <time>2018-06-03T08:06:24.000Z</time>
      </trkpt>
      <trkpt lat="44.57474" lon="4.23304">
        <ele>503</ele>
        <time>2018-06-03T08:06:25.000Z</time>
      </trkpt>
      <trkpt lat="44.57475" lon="4.23308">
        <ele>504</ele>
        <time>2018-06-03T08:06:26.000Z</time>
      </trkpt>
      <trkpt lat="44.57476" lon="4.23311">
        <ele>504</ele>
        <time>2018-06-03T08:06:27.000Z</time>
      </trkpt>
      <trkpt lat="44.57477" lon="4.23314">
        <ele>504</ele>
        <time>2018-06-03T08:06:28.000Z</time>
      </trkpt>
      <trkpt lat="44.57478" lon="4.23317">
        <ele>504</ele>
        <time>2018-06-03T08:06:29.000Z</time>
      </trkpt>
      <trkpt lat="44.5748" lon="4.23319">
        <ele>505</ele>
        <time>2018-06-03T08:06:30.000Z</time>
      </trkpt>
      <trkpt lat="44.57481" lon="4.23322">
        <ele>505</ele>
        <time>2018-06-03T08:06:31.000Z</time>
      </trkpt>
      <trkpt lat="44.57482" lon="4.23324">
        <ele>506</ele>
        <time>2018-06-03T08:06:32.000Z</time>
      </trkpt>
      <trkpt lat="44.57484" lon="4.23327">
        <ele>506</ele>
        <time>2018-06-03T08:06:33.000Z</time>
      </trkpt>
      <trkpt lat="44.57486" lon="4.23329">
        <ele>507</ele>
        <time>2018-06-03T08:06:34.000Z</time>
      </trkpt>
      <trkpt lat="44.57487" lon="4.23332">
        <ele>507</ele>
        <time>2018-06-03T08:06:35.000Z</time>
      </trkpt>
      <trkpt lat="44.57489" lon="4.23334">
        <ele>506</ele>
        <time>2018-06-03T08:06:36.000Z</time>
      </trkpt>
      <trkpt lat="44.5749" lon="4.23336">
        <ele>507</ele>
        <time>2018-06-03T08:06:37.000Z</time>
      </trkpt>
      <trkpt lat="44.57492" lon="4.23339">
        <ele>507</ele>
        <time>2018-06-03T08:06:38.000Z</time>
      </trkpt>
      <trkpt lat="44.57494" lon="4.23341">
        <ele>507</ele>
        <time>2018-06-03T08:06:39.000Z</time>
      </trkpt>
      <trkpt lat="44.57495" lon="4.23344">
        <ele>506</ele>
        <time>2018-06-03T08:06:40.000Z</time>
      </trkpt>
      <trkpt lat="44.57496" lon="4.23347">
        <ele>505</ele>
        <time>2018-06-03T08:06:41.000Z</time>
      </trkpt>
      <trkpt lat="44.57498" lon="4.2335">
        <ele>505</ele>
        <time>2018-06-03T08:06:42.000Z</time>
      </trkpt>
      <trkpt lat="44.57499" lon="4.23353">
        <ele>504</ele>
        <time>2018-06-03T08:06:43.000Z</time>
      </trkpt>
      <trkpt lat="44.575" lon="4.23356">
        <ele>514</ele>
        <time>2018-06-03T08:06:44.000Z</time>
      </trkpt>
      <trkpt lat="44.57502" lon="4.23359">
        <ele>514</ele>
        <time>2018-06-03T08:06:45.000Z</time>
      </trkpt>
      <trkpt lat="44.57503" lon="4.23361">
        <ele>514</ele>
        <time>2018-06-03T08:06:46.000Z</time>
      </trkpt>
      <trkpt lat="44.57504" lon="4.23364">
        <ele>513</ele>
        <time>2018-06-03T08:06:47.000Z</time>
      </trkpt>
      <trkpt lat="44.57505" lon="4.23367">
        <ele>513</ele>
        <time>2018-06-03T08:06:48.000Z</time>
      </trkpt>
      <trkpt lat="44.57506" lon="4.23371">
        <ele>513</ele>
        <time>2018-06-03T08:06:49.000Z</time>
      </trkpt>
      <trkpt lat="44.57508" lon="4.23373">
        <ele>513</ele>
        <time>2018-06-03T08:06:50.000Z</time>
      </trkpt>
      <trkpt lat="44.57509" lon="4.23376">
        <ele>513</ele>
        <time>2018-06-03T08:06:51.000Z</time>
      </trkpt>
      <trkpt lat="44.5751" lon="4.23379">
        <ele>513</ele>
        <time>2018-06-03T08:06:52.000Z</time>
      </trkpt>
      <trkpt lat="44.57511" lon="4.23382">
        <ele>512</ele>
        <time>2018-06-03T08:06:53.000Z</time>
      </trkpt>
      <trkpt lat="44.57512" lon="4.23385">
        <ele>512</ele>
        <time>2018-06-03T08:06:54.000Z</time>
      </trkpt>
      <trkpt lat="44.57513" lon="4.23388">
        <ele>512</ele>
        <time>2018-06-03T08:06:55.000Z</time>
      </trkpt>
      <trkpt lat="44.57515" lon="4.23391">
        <ele>512</ele>
        <time>2018-06-03T08:06:56.000Z</time>
      </trkpt>
      <trkpt lat="44.57516" lon="4.23393">
        <ele>511</ele>
        <time>2018-06-03T08:06:57.000Z</time>
      </trkpt>
      <trkpt lat="44.57518" lon="4.23396">
        <ele>511</ele>
        <time>2018-06-03T08:06:58.000Z</time>
      </trkpt>
      <trkpt lat="44.5752" lon="4.23398">
        <ele>511</ele>
        <time>2018-06-03T08:06:59.000Z</time>
      </trkpt>
      <trkpt lat="44.57522" lon="4.23399">
        <ele>511</ele>
        <time>2018-06-03T08:07:00.000Z</time>
      </trkpt>
      <trkpt lat="44.57524" lon="4.23398">
        <ele>512</ele>
        <time>2018-06-03T08:07:01.000Z</time>
      </trkpt>
      <trkpt lat="44.57525" lon="4.23396">
        <ele>512</ele>
        <time>2018-06-03T08:07:02.000Z</time>
      </trkpt>
      <trkpt lat="44.57526" lon="4.23394">
        <ele>513</ele>
        <time>2018-06-03T08:07:03.000Z</time>
      </trkpt>
      <trkpt lat="44.57525" lon="4.23391">
        <ele>513</ele>
        <time>2018-06-03T08:07:04.000Z</time>
      </trkpt>
      <trkpt lat="44.57524" lon="4.23388">
        <ele>513</ele>
        <time>2018-06-03T08:07:05.000Z</time>
      </trkpt>
      <trkpt lat="44.57523" lon="4.23386">
        <ele>513</ele>
        <time>2018-06-03T08:07:06.000Z</time>
      </trkpt>
      <trkpt lat="44.57522" lon="4.23384">
        <ele>513</ele>
        <time>2018-06-03T08:07:07.000Z</time>
      </trkpt>
      <trkpt lat="44.57521" lon="4.23381">
        <ele>513</ele>
        <time>2018-06-03T08:07:08.000Z</time>
      </trkpt>
      <trkpt lat="44.57521" lon="4.23378">
        <ele>514</ele>
        <time>2018-06-03T08:07:09.000Z</time>
      </trkpt>
      <trkpt lat="44.57521" lon="4.23375">
        <ele>514</ele>
        <time>2018-06-03T08:07:10.000Z</time>
      </trkpt>
      <trkpt lat="44.57521" lon="4.23372">
        <ele>514</ele>
        <time>2018-06-03T08:07:11.000Z</time>
      </trkpt>
      <trkpt lat="44.57521" lon="4.23369">
        <ele>514</ele>
        <time>2018-06-03T08:07:12.000Z</time>
      </trkpt>
      <trkpt lat="44.57522" lon="4.23366">
        <ele>515</ele>
        <time>2018-06-03T08:07:13.000Z</time>
      </trkpt>
      <trkpt lat="44.57522" lon="4.23362">
        <ele>515</ele>
        <time>2018-06-03T08:07:14.000Z</time>
      </trkpt>
      <trkpt lat="44.57522" lon="4.23359">
        <ele>515</ele>
        <time>2018-06-03T08:07:15.000Z</time>
      </trkpt>
      <trkpt lat="44.57522" lon="4.23356">
        <ele>515</ele>
        <time>2018-06-03T08:07:16.000Z</time>
      </trkpt>
      <trkpt lat="44.57522" lon="4.23353">
        <ele>515</ele>
        <time>2018-06-03T08:07:17.000Z</time>
      </trkpt>
      <trkpt lat="44.57522" lon="4.2335">
        <ele>515</ele>
        <time>2018-06-03T08:07:18.000Z</time>
      </trkpt>
      <trkpt lat="44.57521" lon="4.23346">
        <ele>515</ele>
        <time>2018-06-03T08:07:19.000Z</time>
      </trkpt>
      <trkpt lat="44.57521" lon="4.23343">
        <ele>515</ele>
        <time>2018-06-03T08:07:20.000Z</time>
      </trkpt>
      <trkpt lat="44.57521" lon="4.2334">
        <ele>515</ele>
        <time>2018-06-03T08:07:21.000Z</time>
      </trkpt>
      <trkpt lat="44.57521" lon="4.23337">
        <ele>515</ele>
        <time>2018-06-03T08:07:22.000Z</time>
      </trkpt>
      <trkpt lat="44.5752" lon="4.23333">
        <ele>520</ele>
        <time>2018-06-03T08:07:23.000Z</time>
      </trkpt>
      <trkpt lat="44.57519" lon="4.2333">
        <ele>520</ele>
        <time>2018-06-03T08:07:24.000Z</time>
      </trkpt>
      <trkpt lat="44.57519" lon="4.23327">
        <ele>520</ele>
        <time>2018-06-03T08:07:25.000Z</time>
      </trkpt>
      <trkpt lat="44.57518" lon="4.23324">
        <ele>520</ele>
        <time>2018-06-03T08:07:26.000Z</time>
      </trkpt>
      <trkpt lat="44.57517" lon="4.23321">
        <ele>521</ele>
        <time>2018-06-03T08:07:27.000Z</time>
      </trkpt>
      <trkpt lat="44.57517" lon="4.23318">
        <ele>521</ele>
        <time>2018-06-03T08:07:28.000Z</time>
      </trkpt>
      <trkpt lat="44.57516" lon="4.23315">
        <ele>521</ele>
        <time>2018-06-03T08:07:29.000Z</time>
      </trkpt>
      <trkpt lat="44.57516" lon="4.23311">
        <ele>522</ele>
        <time>2018-06-03T08:07:30.000Z</time>
      </trkpt>
      <trkpt lat="44.57516" lon="4.23308">
        <ele>522</ele>
        <time>2018-06-03T08:07:31.000Z</time>
      </trkpt>
      <trkpt lat="44.57516" lon="4.23305">
        <ele>523</ele>
        <time>2018-06-03T08:07:32.000Z</time>
      </trkpt>
      <trkpt lat="44.57516" lon="4.23301">
        <ele>523</ele>
        <time>2018-06-03T08:07:33.000Z</time>
      </trkpt>
      <trkpt lat="44.57516" lon="4.23298">
        <ele>523</ele>
        <time>2018-06-03T08:07:34.000Z</time>
      </trkpt>
      <trkpt lat="44.57516" lon="4.23295">
        <ele>523</ele>
        <time>2018-06-03T08:07:35.000Z</time>
      </trkpt>
      <trkpt lat="44.57515" lon="4.23292">
        <ele>523</ele>
        <time>2018-06-03T08:07:36.000Z</time>
      </trkpt>
      <trkpt lat="44.57515" lon="4.23288">
        <ele>524</ele>
        <time>2018-06-03T08:07:37.000Z</time>
      </trkpt>
      <trkpt lat="44.57515" lon="4.23284">
        <ele>524</ele>
        <time>2018-06-03T08:07:38.000Z</time>
      </trkpt>
      <trkpt lat="44.57514" lon="4.23281">
        <ele>523</ele>
        <time>2018-06-03T08:07:39.000Z</time>
      </trkpt>
      <trkpt lat="44.57514" lon="4.23278">
        <ele>523</ele>
        <time>2018-06-03T08:07:40.000Z</time>
      </trkpt>
      <trkpt lat="44.57513" lon="4.23274">
        <ele>523</ele>
        <time>2018-06-03T08:07:41.000Z</time>
      </trkpt>
      <trkpt lat="44.57513" lon="4.23271">
        <ele>523</ele>
        <time>2018-06-03T08:07:42.000Z</time>
      </trkpt>
      <trkpt lat="44.57512" lon="4.23268">
        <ele>522</ele>
        <time>2018-06-03T08:07:43.000Z</time>
      </trkpt>
      <trkpt lat="44.57512" lon="4.23265">
        <ele>522</ele>
        <time>2018-06-03T08:07:44.000Z</time>
      </trkpt>
      <trkpt lat="44.57512" lon="4.23262">
        <ele>522</ele>
        <time>2018-06-03T08:07:45.000Z</time>
      </trkpt>
      <trkpt lat="44.57511" lon="4.23259">
        <ele>521</ele>
        <time>2018-06-03T08:07:46.000Z</time>
      </trkpt>
      <trkpt lat="44.57512" lon="4.23256">
        <ele>521</ele>
        <time>2018-06-03T08:07:47.000Z</time>
      </trkpt>
      <trkpt lat="44.57512" lon="4.23252">
        <ele>521</ele>
        <time>2018-06-03T08:07:48.000Z</time>
      </trkpt>
      <trkpt lat="44.57513" lon="4.23249">
        <ele>524</ele>
        <time>2018-06-03T08:07:49.000Z</time>
      </trkpt>
      <trkpt lat="44.57513" lon="4.23246">
        <ele>524</ele>
        <time>2018-06-03T08:07:50.000Z</time>
      </trkpt>
      <trkpt lat="44.57514" lon="4.23243">
        <ele>525</ele>
        <time>2018-06-03T08:07:51.000Z</time>
      </trkpt>
      <trkpt lat="44.57514" lon="4.2324">
        <ele>525</ele>
        <time>2018-06-03T08:07:52.000Z</time>
      </trkpt>
      <trkpt lat="44.57515" lon="4.23238">
        <ele>526</ele>
        <time>2018-06-03T08:07:53.000Z</time>
      </trkpt>
      <trkpt lat="44.57516" lon="4.23235">
        <ele>527</ele>
        <time>2018-06-03T08:07:54.000Z</time>
      </trkpt>
      <trkpt lat="44.57517" lon="4.23232">
        <ele>528</ele>
        <time>2018-06-03T08:07:55.000Z</time>
      </trkpt>
      <trkpt lat="44.57518" lon="4.23229">
        <ele>528</ele>
        <time>2018-06-03T08:07:56.000Z</time>
      </trkpt>
      <trkpt lat="44.57519" lon="4.23227">
        <ele>529</ele>
        <time>2018-06-03T08:07:57.000Z</time>
      </trkpt>
      <trkpt lat="44.5752" lon="4.23224">
        <ele>529</ele>
        <time>2018-06-03T08:07:58.000Z</time>
      </trkpt>
      <trkpt lat="44.57521" lon="4.2322">
        <ele>530</ele>
        <time>2018-06-03T08:07:59.000Z</time>
      </trkpt>
      <trkpt lat="44.57522" lon="4.23217">
        <ele>530</ele>
        <time>2018-06-03T08:08:00.000Z</time>
      </trkpt>
      <trkpt lat="44.57523" lon="4.23214">
        <ele>531</ele>
        <time>2018-06-03T08:08:01.000Z</time>
      </trkpt>
      <trkpt lat="44.57524" lon="4.23211">
        <ele>531</ele>
        <time>2018-06-03T08:08:02.000Z</time>
      </trkpt>
      <trkpt lat="44.57525" lon="4.23208">
        <ele>531</ele>
        <time>2018-06-03T08:08:03.000Z</time>
      </trkpt>
      <trkpt lat="44.57526" lon="4.23205">
        <ele>532</ele>
        <time>2018-06-03T08:08:04.000Z</time>
      </trkpt>
      <trkpt lat="44.57527" lon="4.23203">
        <ele>532</ele>
        <time>2018-06-03T08:08:05.000Z</time>
      </trkpt>
      <trkpt lat="44.57528" lon="4.232">
        <ele>532</ele>
        <time>2018-06-03T08:08:06.000Z</time>
      </trkpt>
      <trkpt lat="44.57528" lon="4.23197">
        <ele>532</ele>
        <time>2018-06-03T08:08:07.000Z</time>
      </trkpt>
      <trkpt lat="44.57529" lon="4.23194">
        <ele>532</ele>
        <time>2018-06-03T08:08:08.000Z</time>
      </trkpt>
      <trkpt lat="44.5753" lon="4.23191">
        <ele>532</ele>
        <time>2018-06-03T08:08:09.000Z</time>
      </trkpt>
      <trkpt lat="44.5753" lon="4.23188">
        <ele>532</ele>
        <time>2018-06-03T08:08:10.000Z</time>
      </trkpt>
      <trkpt lat="44.57531" lon="4.23185">
        <ele>532</ele>
        <time>2018-06-03T08:08:11.000Z</time>
      </trkpt>
      <trkpt lat="44.57532" lon="4.23182">
        <ele>533</ele>
        <time>2018-06-03T08:08:12.000Z</time>
      </trkpt>
      <trkpt lat="44.57533" lon="4.23179">
        <ele>533</ele>
        <time>2018-06-03T08:08:13.000Z</time>
      </trkpt>
      <trkpt lat="44.57534" lon="4.23176">
        <ele>533</ele>
        <time>2018-06-03T08:08:14.000Z</time>
      </trkpt>
      <trkpt lat="44.57534" lon="4.23172">
        <ele>533</ele>
        <time>2018-06-03T08:08:15.000Z</time>
      </trkpt>
      <trkpt lat="44.57535" lon="4.23169">
        <ele>533</ele>
        <time>2018-06-03T08:08:16.000Z</time>
      </trkpt>
      <trkpt lat="44.57536" lon="4.23166">
        <ele>538</ele>
        <time>2018-06-03T08:08:17.000Z</time>
      </trkpt>
      <trkpt lat="44.57537" lon="4.23163">
        <ele>539</ele>
        <time>2018-06-03T08:08:18.000Z</time>
      </trkpt>
      <trkpt lat="44.57537" lon="4.23159">
        <ele>539</ele>
        <time>2018-06-03T08:08:19.000Z</time>
      </trkpt>
      <trkpt lat="44.57537" lon="4.23156">
        <ele>539</ele>
        <time>2018-06-03T08:08:20.000Z</time>
      </trkpt>
      <trkpt lat="44.57536" lon="4.23153">
        <ele>539</ele>
        <time>2018-06-03T08:08:21.000Z</time>
      </trkpt>
      <trkpt lat="44.57535" lon="4.23151">
        <ele>539</ele>
        <time>2018-06-03T08:08:22.000Z</time>
      </trkpt>
      <trkpt lat="44.57533" lon="4.23149">
        <ele>538</ele>
        <time>2018-06-03T08:08:23.000Z</time>
      </trkpt>
      <trkpt lat="44.57531" lon="4.23147">
        <ele>538</ele>
        <time>2018-06-03T08:08:24.000Z</time>
      </trkpt>
      <trkpt lat="44.57529" lon="4.23145">
        <ele>538</ele>
        <time>2018-06-03T08:08:25.000Z</time>
      </trkpt>
      <trkpt lat="44.57527" lon="4.23144">
        <ele>537</ele>
        <time>2018-06-03T08:08:26.000Z</time>
      </trkpt>
      <trkpt lat="44.57525" lon="4.23142">
        <ele>537</ele>
        <time>2018-06-03T08:08:27.000Z</time>
      </trkpt>
      <trkpt lat="44.57523" lon="4.2314">
        <ele>537</ele>
        <time>2018-06-03T08:08:28.000Z</time>
      </trkpt>
      <trkpt lat="44.57521" lon="4.23138">
        <ele>537</ele>
        <time>2018-06-03T08:08:29.000Z</time>
      </trkpt>
      <trkpt lat="44.57519" lon="4.23136">
        <ele>537</ele>
        <time>2018-06-03T08:08:30.000Z</time>
      </trkpt>
      <trkpt lat="44.57517" lon="4.23134">
        <ele>536</ele>
        <time>2018-06-03T08:08:31.000Z</time>
      </trkpt>
      <trkpt lat="44.57515" lon="4.23131">
        <ele>537</ele>
        <time>2018-06-03T08:08:32.000Z</time>
      </trkpt>
      <trkpt lat="44.57513" lon="4.23128">
        <ele>537</ele>
        <time>2018-06-03T08:08:33.000Z</time>
      </trkpt>
      <trkpt lat="44.57512" lon="4.23125">
        <ele>537</ele>
        <time>2018-06-03T08:08:34.000Z</time>
      </trkpt>
      <trkpt lat="44.57511" lon="4.23123">
        <ele>537</ele>
        <time>2018-06-03T08:08:35.000Z</time>
      </trkpt>
      <trkpt lat="44.5751" lon="4.2312">
        <ele>537</ele>
        <time>2018-06-03T08:08:36.000Z</time>
      </trkpt>
      <trkpt lat="44.57509" lon="4.23117">
        <ele>537</ele>
        <time>2018-06-03T08:08:37.000Z</time>
      </trkpt>
      <trkpt lat="44.57508" lon="4.23114">
        <ele>537</ele>
        <time>2018-06-03T08:08:38.000Z</time>
      </trkpt>
      <trkpt lat="44.57507" lon="4.23111">
        <ele>537</ele>
        <time>2018-06-03T08:08:39.000Z</time>
      </trkpt>
      <trkpt lat="44.57507" lon="4.23108">
        <ele>537</ele>
        <time>2018-06-03T08:08:40.000Z</time>
      </trkpt>
      <trkpt lat="44.57506" lon="4.23105">
        <ele>537</ele>
        <time>2018-06-03T08:08:41.000Z</time>
      </trkpt>
      <trkpt lat="44.57506" lon="4.23102">
        <ele>536</ele>
        <time>2018-06-03T08:08:42.000Z</time>
      </trkpt>
      <trkpt lat="44.57505" lon="4.23099">
        <ele>536</ele>
        <time>2018-06-03T08:08:43.000Z</time>
      </trkpt>
      <trkpt lat="44.57505" lon="4.23095">
        <ele>536</ele>
        <time>2018-06-03T08:08:44.000Z</time>
      </trkpt>
      <trkpt lat="44.57505" lon="4.23092">
        <ele>535</ele>
        <time>2018-06-03T08:08:45.000Z</time>
      </trkpt>
      <trkpt lat="44.57504" lon="4.23089">
        <ele>534</ele>
        <time>2018-06-03T08:08:46.000Z</time>
      </trkpt>
      <trkpt lat="44.57504" lon="4.23085">
        <ele>534</ele>
        <time>2018-06-03T08:08:47.000Z</time>
      </trkpt>
      <trkpt lat="44.57505" lon="4.23082">
        <ele>535</ele>
        <time>2018-06-03T08:08:48.000Z</time>
      </trkpt>
      <trkpt lat="44.57505" lon="4.23079">
        <ele>536</ele>
        <time>2018-06-03T08:08:49.000Z</time>
      </trkpt>
      <trkpt lat="44.57505" lon="4.23075">
        <ele>537</ele>
        <time>2018-06-03T08:08:50.000Z</time>
      </trkpt>
      <trkpt lat="44.57505" lon="4.23072">
        <ele>538</ele>
        <time>2018-06-03T08:08:51.000Z</time>
      </trkpt>
      <trkpt lat="44.57506" lon="4.23068">
        <ele>540</ele>
        <time>2018-06-03T08:08:52.000Z</time>
      </trkpt>
      <trkpt lat="44.57506" lon="4.23065">
        <ele>541</ele>
        <time>2018-06-03T08:08:53.000Z</time>
      </trkpt>
      <trkpt lat="44.57507" lon="4.23061">
        <ele>542</ele>
        <time>2018-06-03T08:08:54.000Z</time>
      </trkpt>
      <trkpt lat="44.57508" lon="4.23057">
        <ele>542</ele>
        <time>2018-06-03T08:08:55.000Z</time>
      </trkpt>
      <trkpt lat="44.57508" lon="4.23054">
        <ele>543</ele>
        <time>2018-06-03T08:08:56.000Z</time>
      </trkpt>
      <trkpt lat="44.57509" lon="4.2305">
        <ele>543</ele>
        <time>2018-06-03T08:08:57.000Z</time>
      </trkpt>
      <trkpt lat="44.57509" lon="4.23047">
        <ele>544</ele>
        <time>2018-06-03T08:08:58.000Z</time>
      </trkpt>
      <trkpt lat="44.5751" lon="4.23043">
        <ele>544</ele>
        <time>2018-06-03T08:08:59.000Z</time>
      </trkpt>
      <trkpt lat="44.5751" lon="4.23039">
        <ele>544</ele>
        <time>2018-06-03T08:09:00.000Z</time>
      </trkpt>
      <trkpt lat="44.57511" lon="4.23035">
        <ele>544</ele>
        <time>2018-06-03T08:09:01.000Z</time>
      </trkpt>
      <trkpt lat="44.57511" lon="4.23032">
        <ele>544</ele>
        <time>2018-06-03T08:09:02.000Z</time>
      </trkpt>
      <trkpt lat="44.57512" lon="4.23028">
        <ele>544</ele>
        <time>2018-06-03T08:09:03.000Z</time>
      </trkpt>
      <trkpt lat="44.57512" lon="4.23025">
        <ele>543</ele>
        <time>2018-06-03T08:09:04.000Z</time>
      </trkpt>
      <trkpt lat="44.57513" lon="4.23021">
        <ele>543</ele>
        <time>2018-06-03T08:09:05.000Z</time>
      </trkpt>
      <trkpt lat="44.57513" lon="4.23018">
        <ele>543</ele>
        <time>2018-06-03T08:09:06.000Z</time>
      </trkpt>
      <trkpt lat="44.57513" lon="4.23014">
        <ele>542</ele>
        <time>2018-06-03T08:09:07.000Z</time>
      </trkpt>
      <trkpt lat="44.57513" lon="4.23011">
        <ele>541</ele>
        <time>2018-06-03T08:09:08.000Z</time>
      </trkpt>
      <trkpt lat="44.57514" lon="4.23008">
        <ele>541</ele>
        <time>2018-06-03T08:09:09.000Z</time>
      </trkpt>
      <trkpt lat="44.57514" lon="4.23005">
        <ele>541</ele>
        <time>2018-06-03T08:09:10.000Z</time>
      </trkpt>
      <trkpt lat="44.57514" lon="4.23002">
        <ele>541</ele>
        <time>2018-06-03T08:09:11.000Z</time>
      </trkpt>
      <trkpt lat="44.57514" lon="4.22998">
        <ele>542</ele>
        <time>2018-06-03T08:09:12.000Z</time>
      </trkpt>
      <trkpt lat="44.57515" lon="4.22996">
        <ele>542</ele>
        <time>2018-06-03T08:09:13.000Z</time>
      </trkpt>
      <trkpt lat="44.57515" lon="4.22993">
        <ele>543</ele>
        <time>2018-06-03T08:09:14.000Z</time>
      </trkpt>
      <trkpt lat="44.57516" lon="4.2299">
        <ele>543</ele>
        <time>2018-06-03T08:09:15.000Z</time>
      </trkpt>
      <trkpt lat="44.57517" lon="4.22987">
        <ele>544</ele>
        <time>2018-06-03T08:09:16.000Z</time>
      </trkpt>
      <trkpt lat="44.57517" lon="4.22984">
        <ele>545</ele>
        <time>2018-06-03T08:09:17.000Z</time>
      </trkpt>
      <trkpt lat="44.57517" lon="4.22981">
        <ele>545</ele>
        <time>2018-06-03T08:09:18.000Z</time>
      </trkpt>
      <trkpt lat="44.57518" lon="4.22978">
        <ele>546</ele>
        <time>2018-06-03T08:09:19.000Z</time>
      </trkpt>
      <trkpt lat="44.57518" lon="4.22975">
        <ele>546</ele>
        <time>2018-06-03T08:09:20.000Z</time>
      </trkpt>
      <trkpt lat="44.57519" lon="4.22972">
        <ele>547</ele>
        <time>2018-06-03T08:09:21.000Z</time>
      </trkpt>
      <trkpt lat="44.5752" lon="4.22969">
        <ele>547</ele>
        <time>2018-06-03T08:09:22.000Z</time>
      </trkpt>
      <trkpt lat="44.5752" lon="4.22966">
        <ele>547</ele>
        <time>2018-06-03T08:09:23.000Z</time>
      </trkpt>
      <trkpt lat="44.5752" lon="4.22963">
        <ele>548</ele>
        <time>2018-06-03T08:09:24.000Z</time>
      </trkpt>
      <trkpt lat="44.57521" lon="4.22961">
        <ele>548</ele>
        <time>2018-06-03T08:09:25.000Z</time>
      </trkpt>
      <trkpt lat="44.57521" lon="4.22958">
        <ele>548</ele>
        <time>2018-06-03T08:09:26.000Z</time>
      </trkpt>
      <trkpt lat="44.57521" lon="4.22956">
        <ele>548</ele>
        <time>2018-06-03T08:09:27.000Z</time>
      </trkpt>
      <trkpt lat="44.57522" lon="4.22953">
        <ele>548</ele>
        <time>2018-06-03T08:09:28.000Z</time>
      </trkpt>
      <trkpt lat="44.57522" lon="4.2295">
        <ele>548</ele>
        <time>2018-06-03T08:09:29.000Z</time>
      </trkpt>
      <trkpt lat="44.57523" lon="4.22947">
        <ele>548</ele>
        <time>2018-06-03T08:09:30.000Z</time>
      </trkpt>
      <trkpt lat="44.57523" lon="4.22945">
        <ele>548</ele>
        <time>2018-06-03T08:09:31.000Z</time>
      </trkpt>
      <trkpt lat="44.57523" lon="4.22942">
        <ele>548</ele>
        <time>2018-06-03T08:09:32.000Z</time>
      </trkpt>
      <trkpt lat="44.57524" lon="4.22939">
        <ele>548</ele>
        <time>2018-06-03T08:09:33.000Z</time>
      </trkpt>
      <trkpt lat="44.57524" lon="4.22936">
        <ele>547</ele>
        <time>2018-06-03T08:09:34.000Z</time>
      </trkpt>
      <trkpt lat="44.57525" lon="4.22934">
        <ele>547</ele>
        <time>2018-06-03T08:09:35.000Z</time>
      </trkpt>
      <trkpt lat="44.57525" lon="4.22931">
        <ele>547</ele>
        <time>2018-06-03T08:09:36.000Z</time>
      </trkpt>
      <trkpt lat="44.57525" lon="4.22928">
        <ele>547</ele>
        <time>2018-06-03T08:09:37.000Z</time>
      </trkpt>
      <trkpt lat="44.57525" lon="4.22925">
        <ele>547</ele>
        <time>2018-06-03T08:09:38.000Z</time>
      </trkpt>
      <trkpt lat="44.57526" lon="4.22922">
        <ele>547</ele>
        <time>2018-06-03T08:09:39.000Z</time>
      </trkpt>
      <trkpt lat="44.57526" lon="4.22919">
        <ele>547</ele>
        <time>2018-06-03T08:09:40.000Z</time>
      </trkpt>
      <trkpt lat="44.57526" lon="4.22916">
        <ele>545</ele>
        <time>2018-06-03T08:09:41.000Z</time>
      </trkpt>
      <trkpt lat="44.57527" lon="4.22913">
        <ele>545</ele>
        <time>2018-06-03T08:09:42.000Z</time>
      </trkpt>
      <trkpt lat="44.57527" lon="4.22909">
        <ele>545</ele>
        <time>2018-06-03T08:09:43.000Z</time>
      </trkpt>
      <trkpt lat="44.57527" lon="4.22906">
        <ele>545</ele>
        <time>2018-06-03T08:09:44.000Z</time>
      </trkpt>
      <trkpt lat="44.57528" lon="4.22903">
        <ele>545</ele>
        <time>2018-06-03T08:09:45.000Z</time>
      </trkpt>
      <trkpt lat="44.57528" lon="4.22901">
        <ele>545</ele>
        <time>2018-06-03T08:09:46.000Z</time>
      </trkpt>
      <trkpt lat="44.57529" lon="4.22898">
        <ele>546</ele>
        <time>2018-06-03T08:09:47.000Z</time>
      </trkpt>
      <trkpt lat="44.5753" lon="4.22895">
        <ele>546</ele>
        <time>2018-06-03T08:09:48.000Z</time>
      </trkpt>
      <trkpt lat="44.5753" lon="4.22893">
        <ele>546</ele>
        <time>2018-06-03T08:09:49.000Z</time>
      </trkpt>
      <trkpt lat="44.57531" lon="4.2289">
        <ele>546</ele>
        <time>2018-06-03T08:09:50.000Z</time>
      </trkpt>
      <trkpt lat="44.57531" lon="4.22887">
        <ele>546</ele>
        <time>2018-06-03T08:09:51.000Z</time>
      </trkpt>
      <trkpt lat="44.5753" lon="4.22885">
        <ele>546</ele>
        <time>2018-06-03T08:09:52.000Z</time>
      </trkpt>
      <trkpt lat="44.57529" lon="4.22883">
        <ele>546</ele>
        <time>2018-06-03T08:09:53.000Z</time>
      </trkpt>
      <trkpt lat="44.57527" lon="4.22881">
        <ele>545</ele>
        <time>2018-06-03T08:09:54.000Z</time>
      </trkpt>
      <trkpt lat="44.57526" lon="4.22879">
        <ele>545</ele>
        <time>2018-06-03T08:09:55.000Z</time>
      </trkpt>
      <trkpt lat="44.57524" lon="4.22877">
        <ele>545</ele>
        <time>2018-06-03T08:09:56.000Z</time>
      </trkpt>
      <trkpt lat="44.57579" lon="4.23065">
        <ele>556</ele>
      </trkpt>
      <trkpt lat="44.57625" lon="4.23089">
        <ele>576</ele>
      </trkpt>
      <trkpt lat="44.57656" lon="4.23233">
        <ele>567</ele>
      </trkpt>
      <trkpt lat="44.57749" lon="4.23258">
        <ele>573</ele>
      </trkpt>
      <trkpt lat="44.57798" lon="4.23203">
        <ele>585</ele>
      </trkpt>
      <trkpt lat="44.57828" lon="4.23134">
        <ele>597</ele>
      </trkpt>
      <trkpt lat="44.57844" lon="4.231">
        <ele>599</ele>
      </trkpt>
      <trkpt lat="44.57871" lon="4.23089">
        <ele>599</ele>
      </trkpt>
      <trkpt lat="44.57911" lon="4.23095">
        <ele>601</ele>
      </trkpt>
      <trkpt lat="44.57906" lon="4.23177">
        <ele>598</ele>
      </trkpt>
      <trkpt lat="44.57903" lon="4.23226">
        <ele>594</ele>
      </trkpt>
      <trkpt lat="44.57937" lon="4.23216">
        <ele>609</ele>
      </trkpt>
      <trkpt lat="44.57967" lon="4.23149">
        <ele>615</ele>
      </trkpt>
      <trkpt lat="44.58009" lon="4.23108">
        <ele>627</ele>
      </trkpt>
      <trkpt lat="44.58018" lon="4.2317">
        <ele>630</ele>
      </trkpt>
      <trkpt lat="44.58027" lon="4.23226">
        <ele>632</ele>
      </trkpt>
      <trkpt lat="44.58021" lon="4.23299">
        <ele>630</ele>
      </trkpt>
      <trkpt lat="44.58058" lon="4.23331">
        <ele>637</ele>
      </trkpt>
      <trkpt lat="44.58165" lon="4.23404">
        <ele>660</ele>
      </trkpt>
      <trkpt lat="44.58129" lon="4.23333">
        <ele>658</ele>
      </trkpt>
      <trkpt lat="44.58141" lon="4.23275">
        <ele>660</ele>
      </trkpt>
      <trkpt lat="44.58173" lon="4.23363">
        <ele>677</ele>
      </trkpt>
      <trkpt lat="44.58225" lon="4.23425">
        <ele>681</ele>
      </trkpt>
      <trkpt lat="44.5823" lon="4.23575">
        <ele>683</ele>
      </trkpt>
      <trkpt lat="44.58181" lon="4.23672">
        <ele>691</ele>
      </trkpt>
      <trkpt lat="44.58055" lon="4.23781">
        <ele>675</ele>
      </trkpt>
      <trkpt lat="44.58113" lon="4.23886">
        <ele>683</ele>
      </trkpt>
      <trkpt lat="44.58223" lon="4.23951">
        <ele>695</ele>
      </trkpt>
      <trkpt lat="44.58323" lon="4.24069">
        <ele>685</ele>
      </trkpt>
      <trkpt lat="44.58393" lon="4.24054">
        <ele>690</ele>
      </trkpt>
      <trkpt lat="44.58463" lon="4.24004">
        <ele>697</ele>
      </trkpt>
      <trkpt lat="44.58459" lon="4.24122">
        <ele>697</ele>
      </trkpt>
      <trkpt lat="44.58417" lon="4.24228">
        <ele>706</ele>
      </trkpt>
      <trkpt lat="44.58379" lon="4.24348">
        <ele>712</ele>
      </trkpt>
      <trkpt lat="44.58334" lon="4.24468">
        <ele>729</ele>
      </trkpt>
      <trkpt lat="44.58305" lon="4.24552">
        <ele>718</ele>
      </trkpt>
      <trkpt lat="44.58342" lon="4.24644">
        <ele>747</ele>
      </trkpt>
      <trkpt lat="44.58229" lon="4.24749">
        <ele>735</ele>
      </trkpt>
      <trkpt lat="44.58418" lon="4.24813">
        <ele>755</ele>
      </trkpt>
      <trkpt lat="44.58516" lon="4.24843">
        <ele>758</ele>
      </trkpt>
      <trkpt lat="44.5857" lon="4.24867">
        <ele>761</ele>
      </trkpt>
      <trkpt lat="44.58564" lon="4.2503">
        <ele>750</ele>
      </trkpt>
      <trkpt lat="44.58594" lon="4.2512">
        <ele>756</ele>
      </trkpt>
      <trkpt lat="44.58646" lon="4.25067">
        <ele>760</ele>
      </trkpt>
      <trkpt lat="44.5868" lon="4.24923">
        <ele>763</ele>
      </trkpt>
      <trkpt lat="44.58724" lon="4.24863">
        <ele>765</ele>
      </trkpt>
      <trkpt lat="44.58804" lon="4.24773">
        <ele>759</ele>
      </trkpt>
      <trkpt lat="44.58813" lon="4.24605">
        <ele>765</ele>
      </trkpt>
      <trkpt lat="44.58822" lon="4.24479">
        <ele>766</ele>
      </trkpt>
      <trkpt lat="44.58805" lon="4.24404">
        <ele>768</ele>
      </trkpt>
      <trkpt lat="44.58836" lon="4.24313">
        <ele>760</ele>
      </trkpt>
      <trkpt lat="44.58859" lon="4.2426">
        <ele>762</ele>
      </trkpt>
      <trkpt lat="44.58862" lon="4.2417">
        <ele>764</ele>
      </trkpt>
      <trkpt lat="44.58894" lon="4.24037">
        <ele>775</ele>
      </trkpt>
      <trkpt lat="44.58943" lon="4.23998">
        <ele>764</ele>
      </trkpt>
      <trkpt lat="44.58994" lon="4.23885">
        <ele>771</ele>
      </trkpt>
      <trkpt lat="44.59034" lon="4.2383">
        <ele>777</ele>
      </trkpt>
      <trkpt lat="44.59096" lon="4.2386">
        <ele>763</ele>
      </trkpt>
      <trkpt lat="44.59157" lon="4.23826">
        <ele>772</ele>
      </trkpt>
      <trkpt lat="44.59174" lon="4.23843">
        <ele>775</ele>
      </trkpt>
      <trkpt lat="44.59147" lon="4.24047">
        <ele>747</ele>
      </trkpt>
      <trkpt lat="44.59186" lon="4.24107">
        <ele>756</ele>
      </trkpt>
      <trkpt lat="44.59272" lon="4.24159">
        <ele>765</ele>
      </trkpt>
      <trkpt lat="44.59344" lon="4.24176">
        <ele>758</ele>
      </trkpt>
      <trkpt lat="44.59396" lon="4.24146">
        <ele>770</ele>
      </trkpt>
      <trkpt lat="44.59429" lon="4.24144">
        <ele>764</ele>
      </trkpt>
      <trkpt lat="44.59516" lon="4.24094">
        <ele>768</ele>
      </trkpt>
      <trkpt lat="44.59562" lon="4.24109">
        <ele>761</ele>
      </trkpt>
      <trkpt lat="44.59649" lon="4.24069">
        <ele>756</ele>
      </trkpt>
      <trkpt lat="44.59709" lon="4.23978">
        <ele>748</ele>
      </trkpt>
      <trkpt lat="44.59715" lon="4.23892">
        <ele>762</ele>
      </trkpt>
      <trkpt lat="44.59771" lon="4.23899">
        <ele>750</ele>
      </trkpt>
      <trkpt lat="44.5983" lon="4.23894">
        <ele>749</ele>
      </trkpt>
      <trkpt lat="44.59865" lon="4.23892">
        <ele>746</ele>
      </trkpt>
      <trkpt lat="44.59882" lon="4.23849">
        <ele>752</ele>
      </trkpt>
      <trkpt lat="44.59938" lon="4.23821">
        <ele>762</ele>
      </trkpt>
      <trkpt lat="44.59996" lon="4.23772">
        <ele>767</ele>
      </trkpt>
      <trkpt lat="44.60031" lon="4.23727">
        <ele>763</ele>
      </trkpt>
      <trkpt lat="44.60037" lon="4.23663">
        <ele>766</ele>
      </trkpt>
      <trkpt lat="44.60011" lon="4.236">
        <ele>769</ele>
      </trkpt>
      <trkpt lat="44.5997" lon="4.23538">
        <ele>786</ele>
      </trkpt>
      <trkpt lat="44.5997" lon="4.23521">
        <ele>786</ele>
      </trkpt>
      <trkpt lat="44.60005" lon="4.23504">
        <ele>773</ele>
      </trkpt>
      <trkpt lat="44.6003" lon="4.23461">
        <ele>782</ele>
      </trkpt>
      <trkpt lat="44.60059" lon="4.23439">
        <ele>785</ele>
      </trkpt>
      <trkpt lat="44.60121" lon="4.23549">
        <ele>775</ele>
      </trkpt>
      <trkpt lat="44.60218" lon="4.2362">
        <ele>781</ele>
      </trkpt>
      <trkpt lat="44.603" lon="4.23755">
        <ele>774</ele>
      </trkpt>
      <trkpt lat="44.60351" lon="4.23854">
        <ele>777</ele>
      </trkpt>
      <trkpt lat="44.60435" lon="4.23884">
        <ele>787</ele>
      </trkpt>
      <trkpt lat="44.60517" lon="4.2395">
        <ele>781</ele>
      </trkpt>
      <trkpt lat="44.6056" lon="4.2407">
        <ele>769</ele>
      </trkpt>
      <trkpt lat="44.60623" lon="4.24147">
        <ele>770</ele>
      </trkpt>
      <trkpt lat="44.6067" lon="4.24192">
        <ele>770</ele>
      </trkpt>
      <trkpt lat="44.60641" lon="4.24087">
        <ele>773</ele>
      </trkpt>
      <trkpt lat="44.60636" lon="4.23976">
        <ele>778</ele>
      </trkpt>
      <trkpt lat="44.60621" lon="4.2389">
        <ele>781</ele>
      </trkpt>
      <trkpt lat="44.60577" lon="4.23838">
        <ele>792</ele>
      </trkpt>
      <trkpt lat="44.60552" lon="4.23787">
        <ele>798</ele>
      </trkpt>
      <trkpt lat="44.60523" lon="4.23695">
        <ele>802</ele>
      </trkpt>
      <trkpt lat="44.60464" lon="4.23609">
        <ele>818</ele>
      </trkpt>
      <trkpt lat="44.60418" lon="4.23491">
        <ele>824</ele>
      </trkpt>
      <trkpt lat="44.60355" lon="4.23377">
        <ele>834</ele>
      </trkpt>
      <trkpt lat="44.60291" lon="4.23315">
        <ele>850</ele>
      </trkpt>
      <trkpt lat="44.60294" lon="4.23163">
        <ele>855</ele>
      </trkpt>
      <trkpt lat="44.60294" lon="4.23056">
        <ele>867</ele>
      </trkpt>
      <trkpt lat="44.60349" lon="4.22944">
        <ele>856</ele>
      </trkpt>
      <trkpt lat="44.60361" lon="4.2282">
        <ele>880</ele>
      </trkpt>
      <trkpt lat="44.6041" lon="4.22745">
        <ele>887</ele>
      </trkpt>
      <trkpt lat="44.60437" lon="4.22708">
        <ele>885</ele>
      </trkpt>
      <trkpt lat="44.60492" lon="4.22674">
        <ele>881</ele>
      </trkpt>
      <trkpt lat="44.60537" lon="4.22519">
        <ele>883</ele>
      </trkpt>
      <trkpt lat="44.60399" lon="4.22416">
        <ele>903</ele>
      </trkpt>
      <trkpt lat="44.60285" lon="4.22365">
        <ele>917</ele>
      </trkpt>
      <trkpt lat="44.60176" lon="4.22324">
        <ele>932</ele>
      </trkpt>
      <trkpt lat="44.6015" lon="4.22268">
        <ele>942</ele>
      </trkpt>
      <trkpt lat="44.60113" lon="4.22211">
        <ele>937</ele>
      </trkpt>
      <trkpt lat="44.60063" lon="4.22161">
        <ele>957</ele>
      </trkpt>
      <trkpt lat="44.60058" lon="4.22093">
        <ele>962</ele>
      </trkpt>
      <trkpt lat="44.60049" lon="4.2205">
        <ele>977</ele>
      </trkpt>
      <trkpt lat="44.60116" lon="4.22007">
        <ele>952</ele>
      </trkpt>
      <trkpt lat="44.60168" lon="4.21966">
        <ele>939</ele>
      </trkpt>
      <trkpt lat="44.60138" lon="4.21865">
        <ele>976</ele>
      </trkpt>
      <trkpt lat="44.60107" lon="4.21775">
        <ele>994</ele>
      </trkpt>
      <trkpt lat="44.60156" lon="4.21718">
        <ele>997</ele>
      </trkpt>
      <trkpt lat="44.60198" lon="4.21686">
        <ele>978</ele>
      </trkpt>
      <trkpt lat="44.60231" lon="4.21592">
        <ele>986</ele>
      </trkpt>
      <trkpt lat="44.60164" lon="4.21549">
        <ele>1010</ele>
      </trkpt>
      <trkpt lat="44.60109" lon="4.21476">
        <ele>1006</ele>
      </trkpt>
      <trkpt lat="44.60072" lon="4.21407">
        <ele>1024</ele>
      </trkpt>
      <trkpt lat="44.60057" lon="4.21377">
        <ele>1035</ele>
      </trkpt>
      <trkpt lat="44.60066" lon="4.21272">
        <ele>1037</ele>
      </trkpt>
      <trkpt lat="44.60085" lon="4.21156">
        <ele>1026</ele>
      </trkpt>
      <trkpt lat="44.60088" lon="4.21062">
        <ele>1032</ele>
      </trkpt>
      <trkpt lat="44.60123" lon="4.20937">
        <ele>1041</ele>
      </trkpt>
      <trkpt lat="44.60141" lon="4.2086">
        <ele>1050</ele>
      </trkpt>
      <trkpt lat="44.60155" lon="4.20789">
        <ele>1062</ele>
      </trkpt>
      <trkpt lat="44.60208" lon="4.20723">
        <ele>1054</ele>
      </trkpt>
      <trkpt lat="44.60231" lon="4.20611">
        <ele>1062</ele>
      </trkpt>
      <trkpt lat="44.60228" lon="4.20506">
        <ele>1066</ele>
      </trkpt>
      <trkpt lat="44.60225" lon="4.20397">
        <ele>1078</ele>
      </trkpt>
      <trkpt lat="44.60184" lon="4.20555">
        <ele>1078</ele>
      </trkpt>
      <trkpt lat="44.60175" lon="4.20671">
        <ele>1071</ele>
      </trkpt>
      <trkpt lat="44.60129" lon="4.20723">
        <ele>1078</ele>
      </trkpt>
      <trkpt lat="44.60077" lon="4.20843">
        <ele>1073</ele>
      </trkpt>
      <trkpt lat="44.60046" lon="4.20918">
        <ele>1065</ele>
      </trkpt>
      <trkpt lat="44.60007" lon="4.20948">
        <ele>1067</ele>
      </trkpt>
      <trkpt lat="44.59981" lon="4.20982">
        <ele>1061</ele>
      </trkpt>
      <trkpt lat="44.5996" lon="4.21164">
        <ele>1073</ele>
      </trkpt>
      <trkpt lat="44.59935" lon="4.21172">
        <ele>1082</ele>
      </trkpt>
      <trkpt lat="44.59917" lon="4.21293">
        <ele>1101</ele>
      </trkpt>
      <trkpt lat="44.59871" lon="4.21326">
        <ele>1125</ele>
      </trkpt>
      <trkpt lat="44.59853" lon="4.21366">
        <ele>1142</ele>
      </trkpt>
      <trkpt lat="44.59809" lon="4.21366">
        <ele>1147</ele>
      </trkpt>
      <trkpt lat="44.59775" lon="4.21525">
        <ele>1189</ele>
      </trkpt>
      <trkpt lat="44.5972" lon="4.2159">
        <ele>1193</ele>
      </trkpt>
      <trkpt lat="44.59709" lon="4.2165">
        <ele>1193</ele>
      </trkpt>
      <trkpt lat="44.59683" lon="4.21699">
        <ele>1193</ele>
      </trkpt>
      <trkpt lat="44.59569" lon="4.21712">
        <ele>1174</ele>
      </trkpt>
      <trkpt lat="44.59506" lon="4.21718">
        <ele>1171</ele>
      </trkpt>
      <trkpt lat="44.5944" lon="4.21708">
        <ele>1169</ele>
      </trkpt>
      <trkpt lat="44.59364" lon="4.21748">
        <ele>1168</ele>
      </trkpt>
      <trkpt lat="44.59321" lon="4.21748">
        <ele>1166</ele>
      </trkpt>
      <trkpt lat="44.5926" lon="4.21701">
        <ele>1162</ele>
      </trkpt>
      <trkpt lat="44.59187" lon="4.21675">
        <ele>1157</ele>
      </trkpt>
      <trkpt lat="44.59133" lon="4.21742">
        <ele>1140</ele>
      </trkpt>
      <trkpt lat="44.59096" lon="4.21832">
        <ele>1131</ele>
      </trkpt>
      <trkpt lat="44.59046" lon="4.21872">
        <ele>1118</ele>
      </trkpt>
      <trkpt lat="44.58875" lon="4.21904">
        <ele>1091</ele>
      </trkpt>
      <trkpt lat="44.58852" lon="4.21906">
        <ele>1090</ele>
      </trkpt>
      <trkpt lat="44.58818" lon="4.22114">
        <ele>1079</ele>
      </trkpt>
      <trkpt lat="44.58852" lon="4.22232">
        <ele>1058</ele>
      </trkpt>
      <trkpt lat="44.58832" lon="4.22386">
        <ele>1041</ele>
      </trkpt>
      <trkpt lat="44.58782" lon="4.22504">
        <ele>1018</ele>
      </trkpt>
      <trkpt lat="44.58741" lon="4.22616">
        <ele>1007</ele>
      </trkpt>
      <trkpt lat="44.58712" lon="4.22697">
        <ele>998</ele>
      </trkpt>
      <trkpt lat="44.58732" lon="4.22805">
        <ele>985</ele>
      </trkpt>
      <trkpt lat="44.58736" lon="4.22901">
        <ele>959</ele>
      </trkpt>
      <trkpt lat="44.58733" lon="4.22991">
        <ele>941</ele>
      </trkpt>
      <trkpt lat="44.58701" lon="4.22998">
        <ele>937</ele>
      </trkpt>
      <trkpt lat="44.58609" lon="4.2292">
        <ele>913</ele>
      </trkpt>
      <trkpt lat="44.58564" lon="4.22908">
        <ele>893</ele>
      </trkpt>
      <trkpt lat="44.58562" lon="4.22847">
        <ele>896</ele>
      </trkpt>
      <trkpt lat="44.58538" lon="4.22751">
        <ele>891</ele>
      </trkpt>
      <trkpt lat="44.58513" lon="4.22659">
        <ele>887</ele>
      </trkpt>
      <trkpt lat="44.58444" lon="4.22674">
        <ele>843</ele>
      </trkpt>
      <trkpt lat="44.58395" lon="4.22571">
        <ele>832</ele>
      </trkpt>
      <trkpt lat="44.58345" lon="4.22459">
        <ele>836</ele>
      </trkpt>
      <trkpt lat="44.58244" lon="4.2244">
        <ele>808</ele>
      </trkpt>
      <trkpt lat="44.58134" lon="4.22427">
        <ele>790</ele>
      </trkpt>
      <trkpt lat="44.58074" lon="4.22416">
        <ele>787</ele>
      </trkpt>
      <trkpt lat="44.58018" lon="4.22395">
        <ele>775</ele>
      </trkpt>
      <trkpt lat="44.57952" lon="4.2233">
        <ele>751</ele>
      </trkpt>
      <trkpt lat="44.57906" lon="4.22303">
        <ele>730</ele>
      </trkpt>
      <trkpt lat="44.5785" lon="4.22216">
        <ele>716</ele>
      </trkpt>
      <trkpt lat="44.57789" lon="4.22173">
        <ele>696</ele>
      </trkpt>
      <trkpt lat="44.57758" lon="4.22208">
        <ele>692</ele>
      </trkpt>
      <trkpt lat="44.57718" lon="4.22238">
        <ele>670</ele>
      </trkpt>
      <trkpt lat="44.57689" lon="4.22319">
        <ele>654</ele>
      </trkpt>
      <trkpt lat="44.57679" lon="4.22296">
        <ele>656</ele>
      </trkpt>
      <trkpt lat="44.57677" lon="4.22188">
        <ele>662</ele>
      </trkpt>
      <trkpt lat="44.57705" lon="4.22118">
        <ele>664</ele>
      </trkpt>
      <trkpt lat="44.5772" lon="4.22032">
        <ele>661</ele>
      </trkpt>
      <trkpt lat="44.57734" lon="4.21963">
        <ele>657</ele>
      </trkpt>
      <trkpt lat="44.57799" lon="4.21952">
        <ele>661</ele>
      </trkpt>
      <trkpt lat="44.57859" lon="4.21961">
        <ele>666</ele>
      </trkpt>
      <trkpt lat="44.5789" lon="4.21974">
        <ele>670</ele>
      </trkpt>
      <trkpt lat="44.57926" lon="4.21802">
        <ele>663</ele>
      </trkpt>
      <trkpt lat="44.57966" lon="4.21688">
        <ele>651</ele>
      </trkpt>
      <trkpt lat="44.57986" lon="4.21637">
        <ele>639</ele>
      </trkpt>
      <trkpt lat="44.58055" lon="4.21594">
        <ele>657</ele>
      </trkpt>
      <trkpt lat="44.58059" lon="4.21465">
        <ele>644</ele>
      </trkpt>
      <trkpt lat="44.58065" lon="4.21405">
        <ele>641</ele>
      </trkpt>
      <trkpt lat="44.58106" lon="4.21327">
        <ele>644</ele>
      </trkpt>
      <trkpt lat="44.58155" lon="4.21272">
        <ele>649</ele>
      </trkpt>
      <trkpt lat="44.58168" lon="4.21231">
        <ele>661</ele>
      </trkpt>
      <trkpt lat="44.58139" lon="4.2119">
        <ele>639</ele>
      </trkpt>
      <trkpt lat="44.58151" lon="4.21134">
        <ele>639</ele>
      </trkpt>
      <trkpt lat="44.58163" lon="4.21091">
        <ele>642</ele>
      </trkpt>
      <trkpt lat="44.58155" lon="4.21029">
        <ele>640</ele>
      </trkpt>
      <trkpt lat="44.58148" lon="4.20963">
        <ele>648</ele>
      </trkpt>
      <trkpt lat="44.58113" lon="4.20971">
        <ele>647</ele>
      </trkpt>
      <trkpt lat="44.58088" lon="4.21038">
        <ele>637</ele>
      </trkpt>
      <trkpt lat="44.58032" lon="4.21072">
        <ele>636</ele>
      </trkpt>
      <trkpt lat="44.57935" lon="4.21104">
        <ele>619</ele>
      </trkpt>
      <trkpt lat="44.57882" lon="4.21104">
        <ele>606</ele>
      </trkpt>
      <trkpt lat="44.57865" lon="4.20971">
        <ele>622</ele>
      </trkpt>
      <trkpt lat="44.57842" lon="4.20915">
        <ele>612</ele>
      </trkpt>
      <trkpt lat="44.57822" lon="4.20894">
        <ele>595</ele>
      </trkpt>
      <trkpt lat="44.57804" lon="4.20838">
        <ele>592</ele>
      </trkpt>
      <trkpt lat="44.57781" lon="4.20789">
        <ele>583</ele>
      </trkpt>
      <trkpt lat="44.5775" lon="4.20778">
        <ele>578</ele>
      </trkpt>
      <trkpt lat="44.577" lon="4.2077">
        <ele>565</ele>
      </trkpt>
      <trkpt lat="44.57657" lon="4.2083">
        <ele>553</ele>
      </trkpt>
      <trkpt lat="44.57623" lon="4.20879">
        <ele>540</ele>
      </trkpt>
      <trkpt lat="44.57601" lon="4.20911">
        <ele>535</ele>
      </trkpt>
      <trkpt lat="44.57573" lon="4.20896">
        <ele>526</ele>
      </trkpt>
      <trkpt lat="44.57575" lon="4.20984">
        <ele>512</ele>
      </trkpt>
      <trkpt lat="44.57547" lon="4.20963">
        <ele>509</ele>
      </trkpt>
      <trkpt lat="44.57538" lon="4.20997">
        <ele>505</ele>
      </trkpt>
      <trkpt lat="44.5751" lon="4.20969">
        <ele>503</ele>
      </trkpt>
      <trkpt lat="44.5751" lon="4.21027">
        <ele>494</ele>
      </trkpt>
      <trkpt lat="44.57498" lon="4.21016">
        <ele>485</ele>
      </trkpt>
      <trkpt lat="44.5748" lon="4.20965">
        <ele>489</ele>
      </trkpt>
      <trkpt lat="44.57474" lon="4.21051">
        <ele>484</ele>
      </trkpt>
      <trkpt lat="44.57397" lon="4.21037">
        <ele>472</ele>
      </trkpt>
      <trkpt lat="44.57337" lon="4.21042">
        <ele>470</ele>
      </trkpt>
      <trkpt lat="44.57322" lon="4.21078">
        <ele>471</ele>
      </trkpt>
      <trkpt lat="44.57296" lon="4.2107">
        <ele>467</ele>
      </trkpt>
      <trkpt lat="44.57262" lon="4.21033">
        <ele>463</ele>
      </trkpt>
      <trkpt lat="44.57227" lon="4.21048">
        <ele>460</ele>
      </trkpt>
      <trkpt lat="44.57204" lon="4.21033">
        <ele>458</ele>
      </trkpt>
      <trkpt lat="44.57215" lon="4.21162">
        <ele>469</ele>
      </trkpt>
      <trkpt lat="44.57189" lon="4.21181">
        <ele>470</ele>
      </trkpt>
      <trkpt lat="44.57174" lon="4.21148">
        <ele>467</ele>
      </trkpt>
      <trkpt lat="44.5717" lon="4.21189">
        <ele>470</ele>
      </trkpt>
      <trkpt lat="44.57147" lon="4.21147">
        <ele>470</ele>
      </trkpt>
      <trkpt lat="44.57113" lon="4.21209">
        <ele>477</ele>
      </trkpt>
      <trkpt lat="44.5707" lon="4.21286">
        <ele>478</ele>
      </trkpt>
      <trkpt lat="44.57014" lon="4.21378">
        <ele>485</ele>
      </trkpt>
      <trkpt lat="44.56972" lon="4.21405">
        <ele>486</ele>
      </trkpt>
      <trkpt lat="44.56959" lon="4.21341">
        <ele>480</ele>
      </trkpt>
      <trkpt lat="44.56897" lon="4.21322">
        <ele>470</ele>
      </trkpt>
      <trkpt lat="44.5685" lon="4.21328">
        <ele>470</ele>
      </trkpt>
      <trkpt lat="44.56798" lon="4.21343">
        <ele>478</ele>
      </trkpt>
      <trkpt lat="44.56693" lon="4.21472">
        <ele>482</ele>
      </trkpt>
      <trkpt lat="44.56681" lon="4.21535">
        <ele>478</ele>
      </trkpt>
      <trkpt lat="44.56659" lon="4.2158">
        <ele>489</ele>
      </trkpt>
      <trkpt lat="44.56613" lon="4.21606">
        <ele>491</ele>
      </trkpt>
      <trkpt lat="44.56534" lon="4.21664">
        <ele>501</ele>
      </trkpt>
      <trkpt lat="44.56457" lon="4.21677">
        <ele>491</ele>
      </trkpt>
      <trkpt lat="44.56379" lon="4.21657">
        <ele>480</ele>
      </trkpt>
      <trkpt lat="44.56344" lon="4.21565">
        <ele>482</ele>
      </trkpt>
      <trkpt lat="44.56266" lon="4.21535">
        <ele>471</ele>
      </trkpt>
      <trkpt lat="44.56253" lon="4.21559">
        <ele>467</ele>
      </trkpt>
      <trkpt lat="44.56269" lon="4.21595">
        <ele>461</ele>
      </trkpt>
      <trkpt lat="44.56209" lon="4.21695">
        <ele>439</ele>
      </trkpt>
      <trkpt lat="44.56227" lon="4.2172">
        <ele>439</ele>
      </trkpt>
      <trkpt lat="44.56219" lon="4.21811">
        <ele>432</ele>
      </trkpt>
      <trkpt lat="44.56242" lon="4.21899">
        <ele>429</ele>
      </trkpt>
      <trkpt lat="44.56224" lon="4.21992">
        <ele>429</ele>
      </trkpt>
      <trkpt lat="44.56195" lon="4.22053">
        <ele>431</ele>
      </trkpt>
      <trkpt lat="44.56146" lon="4.22097">
        <ele>449</ele>
      </trkpt>
      <trkpt lat="44.56159" lon="4.22182">
        <ele>450</ele>
      </trkpt>
      <trkpt lat="44.56113" lon="4.22226">
        <ele>457</ele>
      </trkpt>
      <trkpt lat="44.56112" lon="4.22251">
        <ele>463</ele>
      </trkpt>
      <trkpt lat="44.56177" lon="4.22289">
        <ele>451</ele>
      </trkpt>
      <trkpt lat="44.56233" lon="4.22365">
        <ele>455</ele>
      </trkpt>
      <trkpt lat="44.56234" lon="4.2239">
        <ele>456</ele>
      </trkpt>
      <trkpt lat="44.56209" lon="4.22379">
        <ele>459</ele>
      </trkpt>
      <trkpt lat="44.56139" lon="4.22327">
        <ele>467</ele>
      </trkpt>
      <trkpt lat="44.56104" lon="4.22329">
        <ele>472</ele>
      </trkpt>
      <trkpt lat="44.56058" lon="4.2231">
        <ele>477</ele>
      </trkpt>
      <trkpt lat="44.56043" lon="4.22308">
        <ele>478</ele>
      </trkpt>
      <trkpt lat="44.56066" lon="4.22362">
        <ele>491</ele>
      </trkpt>
      <trkpt lat="44.56118" lon="4.2239">
        <ele>482</ele>
      </trkpt>
      <trkpt lat="44.56147" lon="4.2243">
        <ele>483</ele>
      </trkpt>
      <trkpt lat="44.56131" lon="4.22486">
        <ele>486</ele>
      </trkpt>
      <trkpt lat="44.56115" lon="4.22415">
        <ele>485</ele>
      </trkpt>
      <trkpt lat="44.5605" lon="4.22413">
        <ele>498</ele>
      </trkpt>
      <trkpt lat="44.56089" lon="4.2246">
        <ele>492</ele>
      </trkpt>
      <trkpt lat="44.56055" lon="4.22634">
        <ele>504</ele>
      </trkpt>
      <trkpt lat="44.55997" lon="4.22611">
        <ele>505</ele>
      </trkpt>
      <trkpt lat="44.55931" lon="4.22525">
        <ele>515</ele>
      </trkpt>
      <trkpt lat="44.55885" lon="4.22484">
        <ele>522</ele>
      </trkpt>
      <trkpt lat="44.55859" lon="4.22512">
        <ele>519</ele>
      </trkpt>
      <trkpt lat="44.55841" lon="4.2257">
        <ele>514</ele>
      </trkpt>
      <trkpt lat="44.5579" lon="4.22619">
        <ele>521</ele>
      </trkpt>
      <trkpt lat="44.55772" lon="4.22701">
        <ele>510</ele>
      </trkpt>
      <trkpt lat="44.55741" lon="4.22827">
        <ele>505</ele>
      </trkpt>
      <trkpt lat="44.55708" lon="4.22915">
        <ele>502</ele>
      </trkpt>
      <trkpt lat="44.55666" lon="4.23041">
        <ele>495</ele>
      </trkpt>
      <trkpt lat="44.55627" lon="4.23009">
        <ele>495</ele>
      </trkpt>
      <trkpt lat="44.55602" lon="4.22944">
        <ele>500</ele>
      </trkpt>
      <trkpt lat="44.55567" lon="4.22901">
        <ele>488</ele>
      </trkpt>
      <trkpt lat="44.55551" lon="4.22915">
        <ele>483</ele>
      </trkpt>
      <trkpt lat="44.55542" lon="4.22887">
        <ele>481</ele>
      </trkpt>
      <trkpt lat="44.55524" lon="4.22889">
        <ele>476</ele>
      </trkpt>
      <trkpt lat="44.55509" lon="4.22851">
        <ele>472</ele>
      </trkpt>
      <trkpt lat="44.55507" lon="4.2284">
        <ele>469</ele>
      </trkpt>
      <trkpt lat="44.55494" lon="4.22846">
        <ele>455</ele>
      </trkpt>
      <trkpt lat="44.55469" lon="4.22793">
        <ele>453</ele>
      </trkpt>
      <trkpt lat="44.55447" lon="4.22718">
        <ele>462</ele>
      </trkpt>
      <trkpt lat="44.55419" lon="4.22725">
        <ele>455</ele>
      </trkpt>
      <trkpt lat="44.55407" lon="4.22733">
        <ele>439</ele>
      </trkpt>
      <trkpt lat="44.55428" lon="4.22746">
        <ele>449</ele>
      </trkpt>
      <trkpt lat="44.55441" lon="4.2281">
        <ele>445</ele>
      </trkpt>
      <trkpt lat="44.55456" lon="4.22841">
        <ele>443</ele>
      </trkpt>
      <trkpt lat="44.55432" lon="4.22896">
        <ele>436</ele>
      </trkpt>
      <trkpt lat="44.55421" lon="4.22947">
        <ele>433</ele>
      </trkpt>
      <trkpt lat="44.55428" lon="4.23019">
        <ele>429</ele>
      </trkpt>
      <trkpt lat="44.55427" lon="4.23071">
        <ele>426</ele>
      </trkpt>
      <trkpt lat="44.55437" lon="4.23114">
        <ele>429</ele>
      </trkpt>
      <trkpt lat="44.55413" lon="4.23126">
        <ele>413</ele>
      </trkpt>
      <trkpt lat="44.55369" lon="4.23174">
        <ele>410</ele>
      </trkpt>
      <trkpt lat="44.55368" lon="4.23284">
        <ele>412</ele>
      </trkpt>
      <trkpt lat="44.55331" lon="4.2335">
        <ele>401</ele>
      </trkpt>
      <trkpt lat="44.55314" lon="4.23434">
        <ele>401</ele>
      </trkpt>
      <trkpt lat="44.55286" lon="4.23534">
        <ele>398</ele>
      </trkpt>
      <trkpt lat="44.55269" lon="4.23665">
        <ele>391</ele>
      </trkpt>
      <trkpt lat="44.55243" lon="4.23773">
        <ele>380</ele>
      </trkpt>
      <trkpt lat="44.55251" lon="4.23917">
        <ele>374</ele>
      </trkpt>
      <trkpt lat="44.55315" lon="4.24029">
        <ele>381</ele>
      </trkpt>
      <trkpt lat="44.55341" lon="4.24123">
        <ele>376</ele>
      </trkpt>
      <trkpt lat="44.55301" lon="4.24204">
        <ele>366</ele>
      </trkpt>
      <trkpt lat="44.55273" lon="4.24235">
        <ele>362</ele>
      </trkpt>
      <trkpt lat="44.55269" lon="4.24273">
        <ele>358</ele>
      </trkpt>
      <trkpt lat="44.55313" lon="4.24288">
        <ele>361</ele>
      </trkpt>
      <trkpt lat="44.55313" lon="4.2431">
        <ele>361</ele>
      </trkpt>
      <trkpt lat="44.55258" lon="4.24335">
        <ele>360</ele>
      </trkpt>
      <trkpt lat="44.55223" lon="4.24344">
        <ele>362</ele>
      </trkpt>
      <trkpt lat="44.552" lon="4.24395">
        <ele>364</ele>
      </trkpt>
      <trkpt lat="44.55161" lon="4.24437">
        <ele>357</ele>
      </trkpt>
      <trkpt lat="44.55122" lon="4.24448">
        <ele>354</ele>
      </trkpt>
      <trkpt lat="44.55133" lon="4.24502">
        <ele>357</ele>
      </trkpt>
      <trkpt lat="44.55153" lon="4.24539">
        <ele>359</ele>
      </trkpt>
      <trkpt lat="44.55132" lon="4.2461">
        <ele>359</ele>
      </trkpt>
      <trkpt lat="44.55138" lon="4.24683">
        <ele>363</ele>
      </trkpt>
      <trkpt lat="44.55129" lon="4.24761">
        <ele>359</ele>
      </trkpt>
      <trkpt lat="44.55168" lon="4.24852">
        <ele>371</ele>
      </trkpt>
      <trkpt lat="44.55175" lon="4.24946">
        <ele>365</ele>
      </trkpt>
      <trkpt lat="44.55145" lon="4.25067">
        <ele>348</ele>
      </trkpt>
      <trkpt lat="44.55155" lon="4.25158">
        <ele>340</ele>
      </trkpt>
      <trkpt lat="44.55197" lon="4.25171">
        <ele>346</ele>
      </trkpt>
      <trkpt lat="44.55217" lon="4.25179">
        <ele>348</ele>
      </trkpt>
      <trkpt lat="44.55262" lon="4.25157">
        <ele>351</ele>
      </trkpt>
      <trkpt lat="44.55306" lon="4.25166">
        <ele>356</ele>
      </trkpt>
      <trkpt lat="44.55324" lon="4.25187">
        <ele>358</ele>
      </trkpt>
      <trkpt lat="44.55376" lon="4.25141">
        <ele>363</ele>
      </trkpt>
      <trkpt lat="44.55426" lon="4.25127">
        <ele>369</ele>
      </trkpt>
      <trkpt lat="44.55428" lon="4.25103">
        <ele>366</ele>
      </trkpt>
      <trkpt lat="44.55376" lon="4.25091">
        <ele>362</ele>
      </trkpt>
      <trkpt lat="44.55319" lon="4.25082">
        <ele>366</ele>
      </trkpt>
      <trkpt lat="44.55283" lon="4.25074">
        <ele>368</ele>
      </trkpt>
      <trkpt lat="44.55419" lon="4.25021">
        <ele>375</ele>
      </trkpt>
      <trkpt lat="44.55488" lon="4.24962">
        <ele>392</ele>
      </trkpt>
      <trkpt lat="44.55519" lon="4.25002">
        <ele>380</ele>
      </trkpt>
      <trkpt lat="44.55591" lon="4.24991">
        <ele>399</ele>
      </trkpt>
      <trkpt lat="44.55625" lon="4.25018">
        <ele>395</ele>
      </trkpt>
      <trkpt lat="44.55644" lon="4.25077">
        <ele>392</ele>
      </trkpt>
      <trkpt lat="44.55784" lon="4.25156">
        <ele>406</ele>
      </trkpt>
      <trkpt lat="44.55913" lon="4.25134">
        <ele>414</ele>
      </trkpt>
      <trkpt lat="44.55971" lon="4.25033">
        <ele>421</ele>
      </trkpt>
      <trkpt lat="44.56023" lon="4.25025">
        <ele>415</ele>
      </trkpt>
      <trkpt lat="44.56027" lon="4.25051">
        <ele>414</ele>
      </trkpt>
      <trkpt lat="44.55976" lon="4.25112">
        <ele>417</ele>
      </trkpt>
      <trkpt lat="44.55953" lon="4.25182">
        <ele>428</ele>
      </trkpt>
      <trkpt lat="44.55873" lon="4.25194">
        <ele>419</ele>
      </trkpt>
      <trkpt lat="44.55767" lon="4.25244">
        <ele>406</ele>
      </trkpt>
      <trkpt lat="44.55765" lon="4.25385">
        <ele>432</ele>
      </trkpt>
      <trkpt lat="44.55629" lon="4.25289">
        <ele>419</ele>
      </trkpt>
      <trkpt lat="44.55539" lon="4.25352">
        <ele>430</ele>
      </trkpt>
      <trkpt lat="44.5553" lon="4.25428">
        <ele>430</ele>
      </trkpt>
      <trkpt lat="44.55571" lon="4.25561">
        <ele>445</ele>
      </trkpt>
      <trkpt lat="44.55542" lon="4.25621">
        <ele>450</ele>
      </trkpt>
      <trkpt lat="44.55537" lon="4.25669">
        <ele>462</ele>
      </trkpt>
      <trkpt lat="44.55408" lon="4.25791">
        <ele>454</ele>
      </trkpt>
      <trkpt lat="44.55346" lon="4.25929">
        <ele>455</ele>
      </trkpt>
      <trkpt lat="44.55327" lon="4.26156">
        <ele>452</ele>
      </trkpt>
      <trkpt lat="44.55251" lon="4.25935">
        <ele>446</ele>
      </trkpt>
      <trkpt lat="44.55197" lon="4.25888">
        <ele>435</ele>
      </trkpt>
      <trkpt lat="44.55243" lon="4.25828">
        <ele>438</ele>
      </trkpt>
      <trkpt lat="44.55275" lon="4.25753">
        <ele>438</ele>
      </trkpt>
      <trkpt lat="44.55266" lon="4.25686">
        <ele>423</ele>
      </trkpt>
      <trkpt lat="44.55367" lon="4.25648">
        <ele>420</ele>
      </trkpt>
      <trkpt lat="44.55372" lon="4.25525">
        <ele>401</ele>
      </trkpt>
      <trkpt lat="44.55337" lon="4.2548">
        <ele>395</ele>
      </trkpt>
      <trkpt lat="44.55314" lon="4.25412">
        <ele>386</ele>
      </trkpt>
      <trkpt lat="44.55281" lon="4.25343">
        <ele>382</ele>
      </trkpt>
      <trkpt lat="44.55269" lon="4.25311">
        <ele>375</ele>
      </trkpt>
      <trkpt lat="44.55239" lon="4.25352">
        <ele>375</ele>
      </trkpt>
      <trkpt lat="44.55252" lon="4.25416">
        <ele>381</ele>
      </trkpt>
      <trkpt lat="44.55219" lon="4.25365">
        <ele>372</ele>
      </trkpt>
      <trkpt lat="44.55199" lon="4.25395">
        <ele>368</ele>
      </trkpt>
      <trkpt lat="44.55177" lon="4.25328">
        <ele>361</ele>
      </trkpt>
      <trkpt lat="44.55151" lon="4.25292">
        <ele>346</ele>
      </trkpt>
      <trkpt lat="44.55136" lon="4.25255">
        <ele>344</ele>
      </trkpt>
      <trkpt lat="44.55116" lon="4.25313">
        <ele>343</ele>
      </trkpt>
      <trkpt lat="44.55104" lon="4.25354">
        <ele>344</ele>
      </trkpt>
      <trkpt lat="44.55135" lon="4.25414">
        <ele>350</ele>
      </trkpt>
      <trkpt lat="44.55089" lon="4.25435">
        <ele>345</ele>
      </trkpt>
      <trkpt lat="44.55051" lon="4.25523">
        <ele>339</ele>
      </trkpt>
      <trkpt lat="44.55061" lon="4.2557">
        <ele>342</ele>
      </trkpt>
      <trkpt lat="44.55038" lon="4.25594">
        <ele>344</ele>
      </trkpt>
      <trkpt lat="44.54864" lon="4.25817">
        <ele>342</ele>
      </trkpt>
      <trkpt lat="44.54844" lon="4.25922">
        <ele>346</ele>
      </trkpt>
      <trkpt lat="44.54893" lon="4.25987">
        <ele>357</ele>
      </trkpt>
      <trkpt lat="44.5483" lon="4.26034">
        <ele>339</ele>
      </trkpt>
      <trkpt lat="44.54829" lon="4.26165">
        <ele>358</ele>
      </trkpt>
      <trkpt lat="44.54769" lon="4.26248">
        <ele>360</ele>
      </trkpt>
      <trkpt lat="44.54697" lon="4.26285">
        <ele>354</ele>
      </trkpt>
      <trkpt lat="44.54648" lon="4.26375">
        <ele>357</ele>
      </trkpt>
      <trkpt lat="44.54604" lon="4.2645">
        <ele>371</ele>
      </trkpt>
      <trkpt lat="44.54535" lon="4.266">
        <ele>370</ele>
      </trkpt>
      <trkpt lat="44.54467" lon="4.26709">
        <ele>357</ele>
      </trkpt>
      <trkpt lat="44.54416" lon="4.26797">
        <ele>350</ele>
      </trkpt>
      <trkpt lat="44.54373" lon="4.269">
        <ele>353</ele>
      </trkpt>
      <trkpt lat="44.54461" lon="4.26957">
        <ele>369</ele>
      </trkpt>
      <trkpt lat="44.54555" lon="4.27066">
        <ele>377</ele>
      </trkpt>
      <trkpt lat="44.5447" lon="4.26856">
        <ele>383</ele>
      </trkpt>
      <trkpt lat="44.54503" lon="4.26826">
        <ele>395</ele>
      </trkpt>
      <trkpt lat="44.5472" lon="4.27044">
        <ele>406</ele>
      </trkpt>
      <trkpt lat="44.54892" lon="4.27169">
        <ele>413</ele>
      </trkpt>
      <trkpt lat="44.5498" lon="4.27328">
        <ele>414</ele>
      </trkpt>
      <trkpt lat="44.55005" lon="4.27465">
        <ele>417</ele>
      </trkpt>
      <trkpt lat="44.55097" lon="4.27585">
        <ele>415</ele>
      </trkpt>
      <trkpt lat="44.55164" lon="4.27611">
        <ele>415</ele>
      </trkpt>
      <trkpt lat="44.55185" lon="4.27589">
        <ele>419</ele>
      </trkpt>
      <trkpt lat="44.55229" lon="4.27716">
        <ele>415</ele>
      </trkpt>
      <trkpt lat="44.55248" lon="4.27802">
        <ele>413</ele>
      </trkpt>
      <trkpt lat="44.55236" lon="4.27877">
        <ele>410</ele>
      </trkpt>
      <trkpt lat="44.55217" lon="4.27982">
        <ele>411</ele>
      </trkpt>
      <trkpt lat="44.552" lon="4.28029">
        <ele>416</ele>
      </trkpt>
      <trkpt lat="44.55159" lon="4.28015">
        <ele>413</ele>
      </trkpt>
      <trkpt lat="44.55112" lon="4.27994">
        <ele>405</ele>
      </trkpt>
      <trkpt lat="44.55064" lon="4.27953">
        <ele>402</ele>
      </trkpt>
      <trkpt lat="44.55049" lon="4.27934">
        <ele>400</ele>
      </trkpt>
      <trkpt lat="44.55041" lon="4.27951">
        <ele>402</ele>
      </trkpt>
      <trkpt lat="44.55056" lon="4.2797">
        <ele>403</ele>
      </trkpt>
      <trkpt lat="44.55096" lon="4.27999">
        <ele>406</ele>
      </trkpt>
      <trkpt lat="44.5509" lon="4.28009">
        <ele>411</ele>
      </trkpt>
      <trkpt lat="44.5506" lon="4.28004">
        <ele>416</ele>
      </trkpt>
      <trkpt lat="44.55094" lon="4.28032">
        <ele>415</ele>
      </trkpt>
      <trkpt lat="44.55118" lon="4.2804">
        <ele>416</ele>
      </trkpt>
      <trkpt lat="44.55079" lon="4.28049">
        <ele>422</ele>
      </trkpt>
      <trkpt lat="44.55047" lon="4.28046">
        <ele>422</ele>
      </trkpt>
      <trkpt lat="44.55027" lon="4.28033">
        <ele>422</ele>
      </trkpt>
      <trkpt lat="44.5494" lon="4.28009">
        <ele>426</ele>
      </trkpt>
      <trkpt lat="44.5483" lon="4.27997">
        <ele>421</ele>
      </trkpt>
      <trkpt lat="44.54905" lon="4.28022">
        <ele>429</ele>
      </trkpt>
      <trkpt lat="44.54974" lon="4.28056">
        <ele>431</ele>
      </trkpt>
      <trkpt lat="44.5502" lon="4.28121">
        <ele>434</ele>
      </trkpt>
      <trkpt lat="44.5494" lon="4.28142">
        <ele>441</ele>
      </trkpt>
      <trkpt lat="44.54881" lon="4.2814">
        <ele>447</ele>
      </trkpt>
      <trkpt lat="44.54819" lon="4.28147">
        <ele>452</ele>
      </trkpt>
      <trkpt lat="44.54787" lon="4.28168">
        <ele>452</ele>
      </trkpt>
      <trkpt lat="44.54752" lon="4.28192">
        <ele>452</ele>
      </trkpt>
      <trkpt lat="44.54676" lon="4.28147">
        <ele>457</ele>
      </trkpt>
      <trkpt lat="44.54578" lon="4.28108">
        <ele>444</ele>
      </trkpt>
      <trkpt lat="44.54513" lon="4.28121">
        <ele>439</ele>
      </trkpt>
      <trkpt lat="44.54606" lon="4.28438">
        <ele>427</ele>
      </trkpt>
      <trkpt lat="44.54633" lon="4.28489">
        <ele>420</ele>
      </trkpt>
      <trkpt lat="44.54794" lon="4.28328">
        <ele>428</ele>
      </trkpt>
      <trkpt lat="44.54948" lon="4.28221">
        <ele>433</ele>
      </trkpt>
      <trkpt lat="44.54993" lon="4.28236">
        <ele>429</ele>
      </trkpt>
      <trkpt lat="44.5495" lon="4.28311">
        <ele>413</ele>
      </trkpt>
      <trkpt lat="44.54885" lon="4.28318">
        <ele>417</ele>
      </trkpt>
      <trkpt lat="44.54835" lon="4.28358">
        <ele>402</ele>
      </trkpt>
      <trkpt lat="44.54749" lon="4.2847">
        <ele>400</ele>
      </trkpt>
      <trkpt lat="44.54745" lon="4.28494">
        <ele>390</ele>
      </trkpt>
      <trkpt lat="44.54729" lon="4.28564">
        <ele>378</ele>
      </trkpt>
      <trkpt lat="44.54814" lon="4.28483">
        <ele>378</ele>
      </trkpt>
      <trkpt lat="44.54729" lon="4.28635">
        <ele>359</ele>
      </trkpt>
      <trkpt lat="44.54656" lon="4.2874">
        <ele>341</ele>
      </trkpt>
      <trkpt lat="44.54603" lon="4.28815">
        <ele>322</ele>
      </trkpt>
      <trkpt lat="44.54529" lon="4.28856">
        <ele>307</ele>
      </trkpt>
      <trkpt lat="44.5447" lon="4.28904">
        <ele>305</ele>
      </trkpt>
      <trkpt lat="44.54427" lon="4.28969">
        <ele>282</ele>
      </trkpt>
      <trkpt lat="44.54367" lon="4.29027">
        <ele>266</ele>
      </trkpt>
      <trkpt lat="44.54298" lon="4.29009">
        <ele>260</ele>
      </trkpt>
      <trkpt lat="44.54253" lon="4.28992">
        <ele>261</ele>
      </trkpt>
      <trkpt lat="44.54271" lon="4.29034">
        <ele>254</ele>
      </trkpt>
      <trkpt lat="44.54305" lon="4.2908">
        <ele>254</ele>
      </trkpt>
      <trkpt lat="44.54275" lon="4.29077">
        <ele>249</ele>
      </trkpt>
      <trkpt lat="44.5425" lon="4.29125">
        <ele>230</ele>
      </trkpt>
      <trkpt lat="44.54185" lon="4.29074">
        <ele>234</ele>
      </trkpt>
      <trkpt lat="44.54149" lon="4.29082">
        <ele>227</ele>
      </trkpt>
      <trkpt lat="44.54127" lon="4.29052">
        <ele>227</ele>
      </trkpt>
      <trkpt lat="44.54092" lon="4.29176">
        <ele>209</ele>
      </trkpt>
      <trkpt lat="44.54064" lon="4.29209">
        <ele>211</ele>
      </trkpt>
      <trkpt lat="44.53911" lon="4.29185">
        <ele>203</ele>
      </trkpt>
      <trkpt lat="44.53797" lon="4.29323">
        <ele>206</ele>
      </trkpt>
      <trkpt lat="44.53676" lon="4.2953">
        <ele>212</ele>
      </trkpt>
      <trkpt lat="44.53648" lon="4.29551">
        <ele>206</ele>
      </trkpt>
      <trkpt lat="44.53606" lon="4.29579">
        <ele>202</ele>
      </trkpt>
      <trkpt lat="44.5343" lon="4.29585">
        <ele>203</ele>
      </trkpt>
      <trkpt lat="44.53326" lon="4.29594">
        <ele>206</ele>
      </trkpt>
      <trkpt lat="44.53244" lon="4.29623">
        <ele>202</ele>
      </trkpt>
      <trkpt lat="44.5316" lon="4.29625">
        <ele>191</ele>
      </trkpt>
      <trkpt lat="44.53137" lon="4.29621">
        <ele>191</ele>
      </trkpt>
      <trkpt lat="44.53111" lon="4.29599">
        <ele>189</ele>
      </trkpt>
      <trkpt lat="44.53088" lon="4.29524">
        <ele>188</ele>
      </trkpt>
      <trkpt lat="44.53068" lon="4.29478">
        <ele>194</ele>
      </trkpt>
      <trkpt lat="44.53038" lon="4.29476">
        <ele>197</ele>
      </trkpt>
      <trkpt lat="44.52997" lon="4.29509">
        <ele>193</ele>
      </trkpt>
      <trkpt lat="44.53083" lon="4.29365">
        <ele>209</ele>
      </trkpt>
      <trkpt lat="44.53078" lon="4.29314">
        <ele>210</ele>
      </trkpt>
      <trkpt lat="44.53" lon="4.29147">
        <ele>210</ele>
      </trkpt>
      <trkpt lat="44.52976" lon="4.2904">
        <ele>228</ele>
      </trkpt>
      <trkpt lat="44.52986" lon="4.28933">
        <ele>237</ele>
      </trkpt>
      <trkpt lat="44.53043" lon="4.28785">
        <ele>230</ele>
      </trkpt>
      <trkpt lat="44.53027" lon="4.28692">
        <ele>233</ele>
      </trkpt>
      <trkpt lat="44.53015" lon="4.28554">
        <ele>237</ele>
      </trkpt>
      <trkpt lat="44.53074" lon="4.28394">
        <ele>251</ele>
      </trkpt>
      <trkpt lat="44.53119" lon="4.28331">
        <ele>265</ele>
      </trkpt>
      <trkpt lat="44.53219" lon="4.28314">
        <ele>258</ele>
      </trkpt>
      <trkpt lat="44.53126" lon="4.28301">
        <ele>268</ele>
      </trkpt>
      <trkpt lat="44.53043" lon="4.28366">
        <ele>266</ele>
      </trkpt>
      <trkpt lat="44.52971" lon="4.28457">
        <ele>277</ele>
      </trkpt>
      <trkpt lat="44.52907" lon="4.2862">
        <ele>287</ele>
      </trkpt>
      <trkpt lat="44.52924" lon="4.28756">
        <ele>285</ele>
      </trkpt>
      <trkpt lat="44.52934" lon="4.28781">
        <ele>276</ele>
      </trkpt>
      <trkpt lat="44.52876" lon="4.28862">
        <ele>282</ele>
      </trkpt>
      <trkpt lat="44.52851" lon="4.28955">
        <ele>277</ele>
      </trkpt>
      <trkpt lat="44.52828" lon="4.29056">
        <ele>286</ele>
      </trkpt>
      <trkpt lat="44.52828" lon="4.29145">
        <ele>289</ele>
      </trkpt>
      <trkpt lat="44.52838" lon="4.29227">
        <ele>289</ele>
      </trkpt>
      <trkpt lat="44.52786" lon="4.2923">
        <ele>291</ele>
      </trkpt>
      <trkpt lat="44.52799" lon="4.29046">
        <ele>286</ele>
      </trkpt>
      <trkpt lat="44.52715" lon="4.29021">
        <ele>280</ele>
      </trkpt>
      <trkpt lat="44.52648" lon="4.28983">
        <ele>272</ele>
      </trkpt>
      <trkpt lat="44.52612" lon="4.28897">
        <ele>270</ele>
      </trkpt>
      <trkpt lat="44.52597" lon="4.28875">
        <ele>270</ele>
      </trkpt>
      <trkpt lat="44.52527" lon="4.28917">
        <ele>268</ele>
      </trkpt>
      <trkpt lat="44.52464" lon="4.28993">
        <ele>268</ele>
      </trkpt>
      <trkpt lat="44.52414" lon="4.29032">
        <ele>267</ele>
      </trkpt>
      <trkpt lat="44.52403" lon="4.29089">
        <ele>262</ele>
      </trkpt>
      <trkpt lat="44.52389" lon="4.29105">
        <ele>261</ele>
      </trkpt>
      <trkpt lat="44.52336" lon="4.29099">
        <ele>264</ele>
      </trkpt>
      <trkpt lat="44.52267" lon="4.29029">
        <ele>267</ele>
      </trkpt>
      <trkpt lat="44.5225" lon="4.29">
        <ele>271</ele>
      </trkpt>
      <trkpt lat="44.52208" lon="4.28993">
        <ele>272</ele>
      </trkpt>
      <trkpt lat="44.52206" lon="4.28965">
        <ele>273</ele>
      </trkpt>
      <trkpt lat="44.52172" lon="4.28926">
        <ele>274</ele>
      </trkpt>
      <trkpt lat="44.52182" lon="4.28872">
        <ele>277</ele>
      </trkpt>
      <trkpt lat="44.52238" lon="4.28834">
        <ele>279</ele>
      </trkpt>
      <trkpt lat="44.52274" lon="4.28736">
        <ele>285</ele>
      </trkpt>
      <trkpt lat="44.52322" lon="4.28652">
        <ele>290</ele>
      </trkpt>
      <trkpt lat="44.52347" lon="4.28584">
        <ele>291</ele>
      </trkpt>
      <trkpt lat="44.52287" lon="4.28554">
        <ele>293</ele>
      </trkpt>
      <trkpt lat="44.5225" lon="4.28546">
        <ele>293</ele>
      </trkpt>
      <trkpt lat="44.52239" lon="4.2856">
        <ele>289</ele>
      </trkpt>
      <trkpt lat="44.52225" lon="4.28549">
        <ele>288</ele>
      </trkpt>
      <trkpt lat="44.52236" lon="4.28514">
        <ele>290</ele>
      </trkpt>
      <trkpt lat="44.52246" lon="4.28385">
        <ele>289</ele>
      </trkpt>
      <trkpt lat="44.52265" lon="4.28339">
        <ele>294</ele>
      </trkpt>
      <trkpt lat="44.52286" lon="4.28334">
        <ele>296</ele>
      </trkpt>
      <trkpt lat="44.52377" lon="4.2826">
        <ele>298</ele>
      </trkpt>
      <trkpt lat="44.52421" lon="4.28247">
        <ele>297</ele>
      </trkpt>
      <trkpt lat="44.52394" lon="4.28157">
        <ele>298</ele>
      </trkpt>
      <trkpt lat="44.52387" lon="4.28152">
        <ele>298</ele>
      </trkpt>
      <trkpt lat="44.52349" lon="4.28184">
        <ele>297</ele>
      </trkpt>
      <trkpt lat="44.52321" lon="4.28187">
        <ele>297</ele>
      </trkpt>
      <trkpt lat="44.52251" lon="4.28232">
        <ele>296</ele>
      </trkpt>
      <trkpt lat="44.5222" lon="4.28257">
        <ele>291</ele>
      </trkpt>
      <trkpt lat="44.52188" lon="4.2824">
        <ele>295</ele>
      </trkpt>
      <trkpt lat="44.52162" lon="4.2821">
        <ele>295</ele>
      </trkpt>
      <trkpt lat="44.52125" lon="4.28141">
        <ele>301</ele>
      </trkpt>
      <trkpt lat="44.52168" lon="4.2807">
        <ele>308</ele>
      </trkpt>
      <trkpt lat="44.522" lon="4.28036">
        <ele>307</ele>
      </trkpt>
      <trkpt lat="44.52218" lon="4.27996">
        <ele>306</ele>
      </trkpt>
      <trkpt lat="44.52264" lon="4.27957">
        <ele>309</ele>
      </trkpt>
      <trkpt lat="44.52405" lon="4.27943">
        <ele>312</ele>
      </trkpt>
      <trkpt lat="44.52432" lon="4.27908">
        <ele>314</ele>
      </trkpt>
      <trkpt lat="44.52401" lon="4.27831">
        <ele>314</ele>
      </trkpt>
      <trkpt lat="44.52445" lon="4.27777">
        <ele>317</ele>
      </trkpt>
      <trkpt lat="44.52443" lon="4.27748">
        <ele>316</ele>
      </trkpt>
      <trkpt lat="44.5238" lon="4.27594">
        <ele>306</ele>
      </trkpt>
      <trkpt lat="44.524" lon="4.27577">
        <ele>305</ele>
      </trkpt>
      <trkpt lat="44.52402" lon="4.27557">
        <ele>304</ele>
      </trkpt>
      <trkpt lat="44.52392" lon="4.27549">
        <ele>304</ele>
      </trkpt>
      <trkpt lat="44.52385" lon="4.27505">
        <ele>303</ele>
      </trkpt>
      <trkpt lat="44.52398" lon="4.27474">
        <ele>303</ele>
      </trkpt>
      <trkpt lat="44.52408" lon="4.27469">
        <ele>303</ele>
      </trkpt>
      <trkpt lat="44.52405" lon="4.27433">
        <ele>304</ele>
      </trkpt>
      <trkpt lat="44.52394" lon="4.27444">
        <ele>303</ele>
      </trkpt>
      <trkpt lat="44.52378" lon="4.27446">
        <ele>302</ele>
      </trkpt>
      <trkpt lat="44.52367" lon="4.27455">
        <ele>301</ele>
      </trkpt>
      <trkpt lat="44.52349" lon="4.27455">
        <ele>300</ele>
      </trkpt>
      <trkpt lat="44.5233" lon="4.2746">
        <ele>298</ele>
      </trkpt>
      <trkpt lat="44.52325" lon="4.27463">
        <ele>298</ele>
      </trkpt>
      <trkpt lat="44.52314" lon="4.27452">
        <ele>298</ele>
      </trkpt>
      <trkpt lat="44.52309" lon="4.27445">
        <ele>298</ele>
      </trkpt>
      <trkpt lat="44.52285" lon="4.27463">
        <ele>298</ele>
      </trkpt>
      <trkpt lat="44.52269" lon="4.27468">
        <ele>298</ele>
      </trkpt>
      <trkpt lat="44.52264" lon="4.27452">
        <ele>299</ele>
      </trkpt>
      <trkpt lat="44.52238" lon="4.27418">
        <ele>302</ele>
      </trkpt>
      <trkpt lat="44.52224" lon="4.27412">
        <ele>303</ele>
      </trkpt>
      <trkpt lat="44.52218" lon="4.27413">
        <ele>303</ele>
      </trkpt>
      <trkpt lat="44.52207" lon="4.27401">
        <ele>303</ele>
      </trkpt>
      <trkpt lat="44.52185" lon="4.27378">
        <ele>302</ele>
      </trkpt>
      <trkpt lat="44.52164" lon="4.27361">
        <ele>302</ele>
      </trkpt>
      <trkpt lat="44.5212" lon="4.27324">
        <ele>302</ele>
      </trkpt>
      <trkpt lat="44.52112" lon="4.27316">
        <ele>302</ele>
      </trkpt>
      <trkpt lat="44.5214" lon="4.27266">
        <ele>303</ele>
      </trkpt>
      <trkpt lat="44.52155" lon="4.27254">
        <ele>303</ele>
      </trkpt>
      <trkpt lat="44.52207" lon="4.27229">
        <ele>308</ele>
      </trkpt>
      <trkpt lat="44.52243" lon="4.2717">
        <ele>314</ele>
      </trkpt>
      <trkpt lat="44.5228" lon="4.27128">
        <ele>324</ele>
      </trkpt>
      <trkpt lat="44.52294" lon="4.27061">
        <ele>330</ele>
      </trkpt>
      <trkpt lat="44.52307" lon="4.2703">
        <ele>332</ele>
      </trkpt>
      <trkpt lat="44.52395" lon="4.26983">
        <ele>343</ele>
      </trkpt>
      <trkpt lat="44.52428" lon="4.26953">
        <ele>350</ele>
      </trkpt>
      <trkpt lat="44.52439" lon="4.26936">
        <ele>351</ele>
      </trkpt>
      <trkpt lat="44.52474" lon="4.26928">
        <ele>353</ele>
      </trkpt>
      <trkpt lat="44.52496" lon="4.2693">
        <ele>355</ele>
      </trkpt>
      <trkpt lat="44.52515" lon="4.26919">
        <ele>356</ele>
      </trkpt>
      <trkpt lat="44.52524" lon="4.26895">
        <ele>357</ele>
      </trkpt>
      <trkpt lat="44.52547" lon="4.26874">
        <ele>358</ele>
      </trkpt>
      <trkpt lat="44.52562" lon="4.26858">
        <ele>358</ele>
      </trkpt>
      <trkpt lat="44.52622" lon="4.26838">
        <ele>361</ele>
      </trkpt>
      <trkpt lat="44.52635" lon="4.26838">
        <ele>361</ele>
      </trkpt>
      <trkpt lat="44.52664" lon="4.26816">
        <ele>362</ele>
      </trkpt>
      <trkpt lat="44.52706" lon="4.26809">
        <ele>366</ele>
      </trkpt>
      <trkpt lat="44.52733" lon="4.26795">
        <ele>367</ele>
      </trkpt>
      <trkpt lat="44.52736" lon="4.26786">
        <ele>367</ele>
      </trkpt>
      <trkpt lat="44.52714" lon="4.26759">
        <ele>367</ele>
      </trkpt>
      <trkpt lat="44.52698" lon="4.26747">
        <ele>369</ele>
      </trkpt>
      <trkpt lat="44.52689" lon="4.26712">
        <ele>369</ele>
      </trkpt>
      <trkpt lat="44.52686" lon="4.26681">
        <ele>369</ele>
      </trkpt>
      <trkpt lat="44.52683" lon="4.26653">
        <ele>369</ele>
      </trkpt>
      <trkpt lat="44.52683" lon="4.26627">
        <ele>369</ele>
      </trkpt>
      <trkpt lat="44.52685" lon="4.26607">
        <ele>368</ele>
      </trkpt>
      <trkpt lat="44.52697" lon="4.26588">
        <ele>369</ele>
      </trkpt>
      <trkpt lat="44.52723" lon="4.26559">
        <ele>369</ele>
      </trkpt>
      <trkpt lat="44.52734" lon="4.26547">
        <ele>369</ele>
      </trkpt>
      <trkpt lat="44.52752" lon="4.26522">
        <ele>374</ele>
      </trkpt>
      <trkpt lat="44.52785" lon="4.26475">
        <ele>374</ele>
      </trkpt>
      <trkpt lat="44.52819" lon="4.26421">
        <ele>376</ele>
      </trkpt>
      <trkpt lat="44.52855" lon="4.26419">
        <ele>377</ele>
      </trkpt>
      <trkpt lat="44.5285" lon="4.26352">
        <ele>375</ele>
      </trkpt>
      <trkpt lat="44.52812" lon="4.26327">
        <ele>371</ele>
      </trkpt>
      <trkpt lat="44.52847" lon="4.26271">
        <ele>376</ele>
      </trkpt>
      <trkpt lat="44.52842" lon="4.26245">
        <ele>379</ele>
      </trkpt>
      <trkpt lat="44.52851" lon="4.262">
        <ele>384</ele>
      </trkpt>
      <trkpt lat="44.52871" lon="4.2617">
        <ele>386</ele>
      </trkpt>
      <trkpt lat="44.52871" lon="4.26116">
        <ele>397</ele>
      </trkpt>
      <trkpt lat="44.52811" lon="4.26093">
        <ele>398</ele>
      </trkpt>
      <trkpt lat="44.52803" lon="4.26061">
        <ele>403</ele>
      </trkpt>
      <trkpt lat="44.52804" lon="4.26025">
        <ele>404</ele>
      </trkpt>
      <trkpt lat="44.52832" lon="4.26008">
        <ele>407</ele>
      </trkpt>
      <trkpt lat="44.52856" lon="4.26012">
        <ele>406</ele>
      </trkpt>
      <trkpt lat="44.52868" lon="4.25984">
        <ele>405</ele>
      </trkpt>
      <trkpt lat="44.52877" lon="4.2593">
        <ele>404</ele>
      </trkpt>
      <trkpt lat="44.52898" lon="4.25919">
        <ele>405</ele>
      </trkpt>
      <trkpt lat="44.529" lon="4.25848">
        <ele>404</ele>
      </trkpt>
      <trkpt lat="44.52891" lon="4.25817">
        <ele>405</ele>
      </trkpt>
      <trkpt lat="44.52919" lon="4.25807">
        <ele>406</ele>
      </trkpt>
      <trkpt lat="44.52944" lon="4.25751">
        <ele>408</ele>
      </trkpt>
      <trkpt lat="44.52953" lon="4.25699">
        <ele>413</ele>
      </trkpt>
      <trkpt lat="44.52949" lon="4.25644">
        <ele>416</ele>
      </trkpt>
      <trkpt lat="44.52952" lon="4.25542">
        <ele>419</ele>
      </trkpt>
      <trkpt lat="44.52951" lon="4.25492">
        <ele>422</ele>
      </trkpt>
      <trkpt lat="44.52966" lon="4.25417">
        <ele>422</ele>
      </trkpt>
      <trkpt lat="44.52997" lon="4.25347">
        <ele>433</ele>
      </trkpt>
      <trkpt lat="44.53054" lon="4.25269">
        <ele>434</ele>
      </trkpt>
      <trkpt lat="44.53088" lon="4.25161">
        <ele>440</ele>
      </trkpt>
      <trkpt lat="44.53119" lon="4.25027">
        <ele>445</ele>
      </trkpt>
      <trkpt lat="44.5311" lon="4.24996">
        <ele>445</ele>
      </trkpt>
      <trkpt lat="44.53024" lon="4.25129">
        <ele>444</ele>
      </trkpt>
      <trkpt lat="44.52959" lon="4.25219">
        <ele>442</ele>
      </trkpt>
      <trkpt lat="44.5292" lon="4.25238">
        <ele>439</ele>
      </trkpt>
      <trkpt lat="44.52892" lon="4.25226">
        <ele>433</ele>
      </trkpt>
      <trkpt lat="44.52827" lon="4.25208">
        <ele>422</ele>
      </trkpt>
      <trkpt lat="44.52791" lon="4.25215">
        <ele>421</ele>
      </trkpt>
      <trkpt lat="44.52787" lon="4.25244">
        <ele>420</ele>
      </trkpt>
      <trkpt lat="44.52751" lon="4.25261">
        <ele>416</ele>
      </trkpt>
      <trkpt lat="44.52731" lon="4.25243">
        <ele>412</ele>
      </trkpt>
      <trkpt lat="44.52689" lon="4.25187">
        <ele>409</ele>
      </trkpt>
      <trkpt lat="44.52663" lon="4.25186">
        <ele>398</ele>
      </trkpt>
      <trkpt lat="44.52658" lon="4.25206">
        <ele>396</ele>
      </trkpt>
      <trkpt lat="44.52633" lon="4.25199">
        <ele>393</ele>
      </trkpt>
      <trkpt lat="44.52609" lon="4.25134">
        <ele>384</ele>
      </trkpt>
      <trkpt lat="44.52633" lon="4.25068">
        <ele>377</ele>
      </trkpt>
      <trkpt lat="44.52659" lon="4.25039">
        <ele>377</ele>
      </trkpt>
      <trkpt lat="44.52776" lon="4.25035">
        <ele>396</ele>
      </trkpt>
      <trkpt lat="44.52878" lon="4.25035">
        <ele>405</ele>
      </trkpt>
      <trkpt lat="44.52954" lon="4.24993">
        <ele>407</ele>
      </trkpt>
      <trkpt lat="44.52966" lon="4.24924">
        <ele>407</ele>
      </trkpt>
      <trkpt lat="44.52884" lon="4.24813">
        <ele>402</ele>
      </trkpt>
      <trkpt lat="44.52842" lon="4.24744">
        <ele>398</ele>
      </trkpt>
      <trkpt lat="44.52859" lon="4.2469">
        <ele>404</ele>
      </trkpt>
      <trkpt lat="44.52872" lon="4.24641">
        <ele>404</ele>
      </trkpt>
      <trkpt lat="44.52877" lon="4.24583">
        <ele>396</ele>
      </trkpt>
      <trkpt lat="44.53012" lon="4.24536">
        <ele>419</ele>
      </trkpt>
      <trkpt lat="44.53145" lon="4.24431">
        <ele>416</ele>
      </trkpt>
      <trkpt lat="44.53206" lon="4.24349">
        <ele>422</ele>
      </trkpt>
      <trkpt lat="44.5311" lon="4.24221">
        <ele>421</ele>
      </trkpt>
      <trkpt lat="44.5316" lon="4.24236">
        <ele>424</ele>
      </trkpt>
      <trkpt lat="44.53209" lon="4.24259">
        <ele>427</ele>
      </trkpt>
      <trkpt lat="44.53237" lon="4.2418">
        <ele>436</ele>
      </trkpt>
      <trkpt lat="44.53166" lon="4.24135">
        <ele>429</ele>
      </trkpt>
      <trkpt lat="44.53143" lon="4.24036">
        <ele>433</ele>
      </trkpt>
      <trkpt lat="44.5312" lon="4.23924">
        <ele>436</ele>
      </trkpt>
      <trkpt lat="44.53067" lon="4.23809">
        <ele>434</ele>
      </trkpt>
      <trkpt lat="44.53027" lon="4.23697">
        <ele>435</ele>
      </trkpt>
      <trkpt lat="44.53019" lon="4.23663">
        <ele>438</ele>
      </trkpt>
      <trkpt lat="44.53214" lon="4.23847">
        <ele>452</ele>
      </trkpt>
      <trkpt lat="44.53287" lon="4.23796">
        <ele>468</ele>
      </trkpt>
      <trkpt lat="44.53272" lon="4.2371">
        <ele>476</ele>
      </trkpt>
      <trkpt lat="44.53273" lon="4.23637">
        <ele>482</ele>
      </trkpt>
      <trkpt lat="44.53279" lon="4.23504">
        <ele>482</ele>
      </trkpt>
      <trkpt lat="44.53322" lon="4.23431">
        <ele>485</ele>
      </trkpt>
      <trkpt lat="44.53304" lon="4.23341">
        <ele>480</ele>
      </trkpt>
      <trkpt lat="44.534" lon="4.23271">
        <ele>479</ele>
      </trkpt>
      <trkpt lat="44.53484" lon="4.2325">
        <ele>479</ele>
      </trkpt>
      <trkpt lat="44.53587" lon="4.23183">
        <ele>492</ele>
      </trkpt>
      <trkpt lat="44.53683" lon="4.23061">
        <ele>496</ele>
      </trkpt>
      <trkpt lat="44.53721" lon="4.22986">
        <ele>502</ele>
      </trkpt>
      <trkpt lat="44.53705" lon="4.22924">
        <ele>501</ele>
      </trkpt>
      <trkpt lat="44.53772" lon="4.22797">
        <ele>524</ele>
      </trkpt>
      <trkpt lat="44.53838" lon="4.22776">
        <ele>535</ele>
      </trkpt>
      <trkpt lat="44.53822" lon="4.22722">
        <ele>531</ele>
      </trkpt>
      <trkpt lat="44.53874" lon="4.22724">
        <ele>543</ele>
      </trkpt>
      <trkpt lat="44.5387" lon="4.22647">
        <ele>550</ele>
      </trkpt>
      <trkpt lat="44.54043" lon="4.22874">
        <ele>556</ele>
      </trkpt>
      <trkpt lat="44.54112" lon="4.22801">
        <ele>567</ele>
      </trkpt>
      <trkpt lat="44.54185" lon="4.22598">
        <ele>591</ele>
      </trkpt>
      <trkpt lat="44.54313" lon="4.2258">
        <ele>602</ele>
      </trkpt>
      <trkpt lat="44.54341" lon="4.22602">
        <ele>598</ele>
      </trkpt>
      <trkpt lat="44.54379" lon="4.22561">
        <ele>608</ele>
      </trkpt>
      <trkpt lat="44.54391" lon="4.22598">
        <ele>601</ele>
      </trkpt>
      <trkpt lat="44.54439" lon="4.22673">
        <ele>599</ele>
      </trkpt>
      <trkpt lat="44.54484" lon="4.22733">
        <ele>605</ele>
      </trkpt>
      <trkpt lat="44.54501" lon="4.2284">
        <ele>614</ele>
      </trkpt>
      <trkpt lat="44.54523" lon="4.22879">
        <ele>621</ele>
      </trkpt>
      <trkpt lat="44.54493" lon="4.22971">
        <ele>601</ele>
      </trkpt>
      <trkpt lat="44.5453" lon="4.23007">
        <ele>604</ele>
      </trkpt>
      <trkpt lat="44.54577" lon="4.23003">
        <ele>610</ele>
      </trkpt>
      <trkpt lat="44.54707" lon="4.2301">
        <ele>604</ele>
      </trkpt>
      <trkpt lat="44.5471" lon="4.2304">
        <ele>602</ele>
      </trkpt>
      <trkpt lat="44.54744" lon="4.23028">
        <ele>603</ele>
      </trkpt>
      <trkpt lat="44.54831" lon="4.23011">
        <ele>595</ele>
      </trkpt>
      <trkpt lat="44.54833" lon="4.2309">
        <ele>583</ele>
      </trkpt>
      <trkpt lat="44.54816" lon="4.23139">
        <ele>578</ele>
      </trkpt>
      <trkpt lat="44.54813" lon="4.23163">
        <ele>575</ele>
      </trkpt>
      <trkpt lat="44.54886" lon="4.23137">
        <ele>560</ele>
      </trkpt>
      <trkpt lat="44.54969" lon="4.23084">
        <ele>534</ele>
      </trkpt>
      <trkpt lat="44.54984" lon="4.23004">
        <ele>536</ele>
      </trkpt>
      <trkpt lat="44.55013" lon="4.22931">
        <ele>524</ele>
      </trkpt>
      <trkpt lat="44.55053" lon="4.22901">
        <ele>516</ele>
      </trkpt>
      <trkpt lat="44.55058" lon="4.22937">
        <ele>509</ele>
      </trkpt>
      <trkpt lat="44.55076" lon="4.2288">
        <ele>513</ele>
      </trkpt>
      <trkpt lat="44.55092" lon="4.22905">
        <ele>491</ele>
      </trkpt>
      <trkpt lat="44.55096" lon="4.22888">
        <ele>487</ele>
      </trkpt>
      <trkpt lat="44.55111" lon="4.22917">
        <ele>482</ele>
      </trkpt>
      <trkpt lat="44.55118" lon="4.22831">
        <ele>488</ele>
      </trkpt>
      <trkpt lat="44.5512" lon="4.22813">
        <ele>487</ele>
      </trkpt>
      <trkpt lat="44.55159" lon="4.22808">
        <ele>479</ele>
      </trkpt>
      <trkpt lat="44.55186" lon="4.22777">
        <ele>462</ele>
      </trkpt>
      <trkpt lat="44.55191" lon="4.22812">
        <ele>460</ele>
      </trkpt>
      <trkpt lat="44.55226" lon="4.22795">
        <ele>455</ele>
      </trkpt>
      <trkpt lat="44.55221" lon="4.22837">
        <ele>451</ele>
      </trkpt>
      <trkpt lat="44.55258" lon="4.22804">
        <ele>440</ele>
      </trkpt>
      <trkpt lat="44.55267" lon="4.22831">
        <ele>441</ele>
      </trkpt>
      <trkpt lat="44.55294" lon="4.22788">
        <ele>435</ele>
      </trkpt>
      <trkpt lat="44.55289" lon="4.22715">
        <ele>436</ele>
      </trkpt>
      <trkpt lat="44.55289" lon="4.22671">
        <ele>437</ele>
      </trkpt>
      <trkpt lat="44.55297" lon="4.22623">
        <ele>444</ele>
      </trkpt>
      <trkpt lat="44.55319" lon="4.22612">
        <ele>445</ele>
      </trkpt>
      <trkpt lat="44.55376" lon="4.22689">
        <ele>440</ele>
      </trkpt>
      <trkpt lat="44.55403" lon="4.22715">
        <ele>441</ele>
      </trkpt>
      <trkpt lat="44.55421" lon="4.22723">
        <ele>456</ele>
      </trkpt>
    </trkseg>
  </trk>
</gpx>